GFSSGP_925_thetae_000.txt.gz
Theta_e
326 324 319 324 328 330 329 331 333 332 331 326 326 326 328 328 329 333 334 337 336 336 336 344 343 340 340 341 338 335 333 332 332 331 329 329 330 329 330 328 329 328 328 328 329 329 330 331 330
325 319 320 326 324 327 326 331 334 332 326 324 325 326 327 329 327 331 334 336 336 336 336 340 342 342 340 339 335 334 334 334 332 330 330 330 332 330 330 329 328 328 329 328 326 325 327 329 328
322 317 324 324 326 324 328 330 326 323 324 325 328 324 326 328 326 329 333 336 337 336 337 340 344 340 337 337 334 334 334 336 334 330 330 332 334 332 330 328 329 327 327 328 327 326 328 328 328
323 323 321 323 319 321 325 326 321 324 326 325 326 328 325 325 327 331 334 336 336 337 338 341 341 336 337 337 337 335 333 333 335 333 331 332 334 333 330 330 328 327 326 327 327 327 326 327 328
322 323 327 327 327 321 320 321 320 324 326 327 326 331 328 327 330 331 335 336 336 337 339 339 337 335 339 337 336 334 333 331 333 333 332 332 334 334 333 330 329 328 328 328 328 328 328 327 327
327 324 327 329 328 325 325 322 322 324 325 326 327 326 329 327 330 332 336 336 336 338 340 338 336 338 338 334 335 333 333 332 332 333 332 330 332 335 332 333 330 328 328 329 326 325 329 328 329
328 328 328 328 327 327 325 320 323 324 326 326 324 327 327 328 330 332 336 336 338 339 340 339 339 342 335 336 335 334 334 333 332 331 331 331 329 330 332 331 329 329 328 327 327 327 327 330 327
327 327 328 327 327 328 324 320 325 325 326 324 323 327 328 328 326 331 334 336 338 339 340 340 340 341 341 341 337 335 334 333 333 331 329 327 327 329 330 329 329 328 327 326 328 327 327 326 327
322 328 328 328 327 326 322 325 327 325 325 324 324 324 324 326 326 330 331 333 336 338 339 340 340 341 341 340 339 336 335 333 333 332 330 326 328 330 329 329 327 325 324 325 327 328 327 326 324
328 330 328 326 326 326 325 327 328 328 327 326 324 323 322 321 324 327 329 331 332 335 337 339 340 340 340 340 339 338 337 335 334 333 331 329 328 329 329 328 326 325 325 325 325 324 324 324 327
329 330 327 326 325 324 327 328 327 328 329 326 325 324 324 322 322 323 325 328 330 330 333 337 339 340 340 340 339 338 336 335 334 333 332 330 329 328 329 329 329 329 329 329 328 328 328 327 327
329 328 327 327 326 327 328 328 329 329 329 328 327 326 322 323 323 322 323 327 329 329 329 332 336 339 340 339 339 338 337 335 334 334 333 332 331 330 330 329 330 330 329 330 330 329 329 329 328
329 328 328 327 327 327 328 329 330 329 328 328 327 323 322 321 321 321 327 328 329 330 330 330 331 335 337 339 339 338 337 335 334 334 333 333 332 332 331 331 331 331 331 331 331 331 330 330 330
329 328 328 327 328 328 329 329 326 328 327 325 323 323 321 320 320 324 326 328 328 326 325 326 328 331 334 337 337 337 336 335 335 334 333 333 332 332 332 332 332 332 332 331 331 331 330 330 330
329 331 330 329 329 329 328 329 328 326 320 320 321 320 320 321 321 322 322 322 322 322 322 323 323 326 331 334 336 336 335 334 334 334 333 332 332 332 332 332 332 332 331 331 331 330 330 330 330
333 332 334 329 330 329 326 330 327 321 321 321 320 321 322 320 319 319 319 320 320 321 322 323 322 324 329 332 333 333 333 332 332 331 331 331 330 330 331 331 332 331 330 329 329 328 327 328 327
334 336 333 330 329 328 327 328 323 320 321 322 321 321 321 321 319 318 317 317 318 320 323 323 324 327 329 330 330 330 329 330 330 330 330 330 329 329 329 328 325 324 324 324 324 324 324 324 324
334 333 331 331 328 324 325 327 324 323 320 322 321 321 321 320 319 317 316 317 318 321 324 325 327 328 328 329 330 330 330 328 325 321 320 319 316 316 317 315 314 315 315 314 314 315 315 316 318
327 330 332 328 325 325 328 329 324 326 322 322 321 321 321 320 317 316 316 317 318 319 322 325 328 329 330 331 329 325 320 317 315 313 312 311 310 310 310 310 310 310 310 310 310 310 311 311 312
329 329 330 328 323 324 328 330 328 326 322 321 321 321 321 319 318 316 316 316 316 317 318 320 323 326 328 328 323 319 317 315 313 311 310 309 307 307 307 307 307 307 307 308 308 308 308 308 308
330 329 328 329 326 325 324 329 327 319 317 316 319 321 320 319 318 317 316 316 316 316 316 316 318 318 317 317 316 316 315 314 312 310 308 306 305 303 303 303 303 303 304 304 304 303 304 305 305
331 328 328 329 333 335 324 333 328 324 319 318 320 320 319 318 317 317 316 316 315 315 315 315 315 315 315 315 315 314 313 311 309 307 306 304 302 299 298 299 299 299 300 300 300 300 301 302 303
329 327 329 329 331 331 330 329 328 319 320 319 320 320 319 319 318 317 316 314 314 314 314 313 312 312 311 311 311 310 309 307 306 304 303 301 300 297 295 296 296 296 297 297 297 297 299 300 300
325 326 326 325 327 334 330 328 328 324 321 319 320 320 319 318 317 316 314 313 313 313 313 311 310 309 309 308 307 307 305 304 303 301 299 298 297 296 294 294 294 295 294 294 295 295 298 298 297
327 330 337 337 335 334 321 324 326 322 318 319 320 320 319 318 317 316 315 314 313 313 312 310 308 307 306 305 303 302 301 300 298 297 296 295 295 294 293 293 293 293 292 292 293 294 296 296 295
327 330 331 334 334 330 319 327 324 318 317 317 319 320 319 318 317 316 315 314 313 312 311 309 307 305 303 301 300 298 297 296 295 294 293 293 292 292 291 291 291 291 291 291 291 292 293 293 293
328 331 325 325 323 327 327 326 323 319 318 317 318 320 320 318 317 316 315 314 313 310 308 307 305 303 301 299 297 295 294 293 293 292 292 291 291 290 290 290 290 290 290 290 290 291 291 291 292
327 326 329 326 331 331 327 327 326 322 320 317 318 319 320 318 316 315 314 313 311 308 305 304 303 301 298 296 295 293 292 291 291 290 290 290 290 290 290 289 289 289 289 289 289 290 290 290 290
327 329 329 326 325 329 328 327 321 321 319 319 317 319 319 317 316 315 313 312 308 305 304 302 301 299 296 294 293 292 291 290 289 289 289 289 289 289 289 288 288 288 288 288 288 289 289 289 290
325 326 326 330 326 323 324 325 318 318 317 316 317 318 318 317 316 314 313 309 305 304 302 300 299 298 295 292 291 290 289 289 289 289 288 288 288 288 288 287 287 288 288 288 288 288 288 289 289

GFSSGP_925_thetae_003.txt.gz
Theta_e
328 324 320 325 327 327 329 329 334 336 335 329 328 329 331 330 332 335 336 337 335 335 340 342 343 341 338 341 339 336 332 331 329 330 329 328 330 329 327 329 330 329 328 329 328 329 329 330 332
327 323 323 324 323 328 326 329 331 335 330 328 328 329 330 331 330 334 338 336 335 335 339 343 341 339 339 340 336 334 334 333 330 330 330 331 332 331 330 329 328 329 327 328 328 323 327 327 330
326 323 325 328 323 323 330 329 331 326 328 329 330 328 329 330 329 332 335 336 335 335 337 343 340 341 339 337 334 333 333 334 333 330 330 333 333 334 332 330 329 328 326 328 327 326 326 328 328
325 325 325 327 328 322 323 326 324 325 329 328 329 331 328 328 331 334 335 335 336 336 338 344 342 341 335 336 335 333 332 332 334 333 332 331 334 335 333 330 329 328 328 328 328 328 328 327 326
326 326 327 330 330 327 321 321 323 324 327 327 328 332 331 329 331 332 335 335 335 336 339 341 342 339 335 336 335 334 333 330 331 332 332 333 335 336 336 333 330 329 328 328 328 328 329 329 328
328 327 329 329 330 329 327 324 323 325 327 327 328 328 331 329 331 333 336 335 335 337 340 340 337 335 335 336 333 333 332 331 330 329 331 332 331 333 335 335 331 328 327 328 326 328 328 331 330
328 329 330 328 328 329 328 323 322 325 326 328 326 328 330 329 328 333 336 335 336 338 340 339 339 339 336 334 336 335 333 333 331 332 330 332 329 330 331 331 330 328 328 330 329 327 328 328 329
329 329 330 329 328 328 327 324 323 325 326 326 326 329 330 328 327 330 335 336 337 339 340 340 339 340 340 339 335 334 334 333 332 332 330 326 326 326 329 329 330 330 328 325 325 328 328 328 328
327 330 330 328 329 327 326 326 326 327 327 326 326 326 326 324 325 329 331 334 336 338 339 340 339 340 340 339 340 335 333 333 333 333 331 329 328 330 330 329 327 323 323 323 325 329 329 326 323
329 329 328 327 327 328 326 326 328 328 328 328 328 326 324 324 324 325 327 330 334 336 338 339 340 340 340 339 338 337 337 336 335 333 333 331 328 329 330 327 328 327 328 328 328 328 328 328 329
330 330 328 327 327 327 326 327 327 329 330 328 328 327 326 326 324 324 325 325 330 333 335 338 340 340 340 340 338 337 336 335 334 333 333 332 331 330 331 331 331 331 331 331 331 331 331 330 330
331 328 328 327 327 327 328 327 328 329 329 328 328 328 328 326 324 324 324 325 329 331 332 335 337 340 340 340 339 337 336 335 334 333 333 333 332 332 332 332 333 333 333 333 333 333 333 332 332
330 328 327 327 327 327 328 328 328 329 329 328 328 327 327 326 324 322 324 328 330 331 331 332 334 337 339 340 339 338 336 335 334 335 335 334 334 334 334 334 334 334 334 334 333 333 333 333 332
330 329 328 328 328 328 329 329 328 329 329 328 326 323 324 325 323 323 326 328 330 331 330 331 332 333 336 338 338 338 337 336 335 335 335 335 334 334 335 335 335 334 333 333 332 332 331 331 331
330 331 329 328 328 328 329 330 330 328 328 322 321 321 322 323 323 324 324 325 325 325 325 325 326 329 333 337 337 337 336 335 335 335 334 334 334 334 334 334 333 332 331 331 330 329 328 327 327
331 333 335 329 329 328 329 333 328 326 322 322 322 323 324 323 322 322 322 323 323 323 325 326 324 325 331 335 336 336 335 334 333 332 333 332 332 332 333 331 328 325 325 324 322 320 320 321 321
334 337 335 332 329 329 331 330 327 325 322 323 323 323 324 323 322 321 320 321 321 324 325 327 329 329 331 334 334 333 332 332 332 331 330 325 323 323 322 318 315 315 315 315 314 314 314 315 315
336 336 333 335 329 330 330 329 327 325 325 324 323 324 324 323 321 320 321 321 324 326 327 329 330 330 331 332 332 332 328 322 318 316 315 314 313 313 313 312 312 311 312 312 312 312 312 312 313
331 334 333 332 329 330 330 328 326 326 326 326 323 324 324 322 320 319 321 321 323 326 328 330 330 331 332 333 329 324 320 318 316 313 312 311 309 309 309 309 309 309 309 309 308 307 307 308 308
332 333 333 330 327 327 327 328 328 327 328 327 323 324 323 321 320 320 320 320 320 322 325 326 329 330 328 324 323 320 318 315 313 311 309 308 306 305 305 305 305 304 305 304 304 303 304 304 304
331 334 333 331 329 326 328 331 330 329 325 322 322 323 322 321 320 320 320 319 319 319 320 321 321 320 320 320 319 317 316 314 312 310 308 306 304 301 301 301 301 301 301 301 301 300 301 303 303
335 330 328 329 331 332 329 331 328 327 322 320 321 323 322 320 320 319 319 318 318 318 318 318 318 318 318 317 316 315 313 310 309 308 307 305 302 299 298 298 299 299 299 299 299 299 300 301 301
333 330 328 330 332 334 333 333 330 327 325 322 321 323 321 320 319 319 319 317 317 317 316 315 314 314 313 313 312 311 310 309 307 306 304 302 301 298 297 297 297 297 297 297 297 297 298 300 299
329 331 331 330 331 333 330 332 329 327 325 323 321 322 321 320 319 318 317 316 316 316 315 313 312 311 311 310 310 309 308 307 305 303 302 300 299 298 296 295 295 296 295 295 295 295 296 298 297
331 333 337 334 335 332 328 331 329 322 321 322 322 321 321 320 319 318 317 316 316 315 314 312 311 310 309 307 306 305 304 303 301 300 299 298 297 296 295 294 294 294 294 293 293 294 295 295 295
331 332 330 332 332 330 325 329 327 322 321 321 322 321 321 320 319 317 317 316 316 315 313 311 309 307 306 304 303 302 301 300 298 297 296 295 295 294 293 293 293 293 293 292 292 292 293 293 293
327 335 326 329 328 330 328 327 323 322 321 320 321 321 321 320 319 318 317 317 316 314 312 310 308 305 304 302 301 299 297 296 296 295 294 293 293 292 292 292 292 292 291 291 291 291 292 292 292
329 328 331 329 331 331 329 328 328 324 323 320 320 322 321 320 319 318 317 316 315 312 310 308 307 305 302 300 298 297 295 294 293 293 292 292 291 291 291 291 291 290 290 290 290 290 291 291 291
329 332 330 328 328 330 332 329 325 322 321 321 320 321 321 321 319 318 317 316 313 310 308 306 304 302 300 298 296 295 293 292 292 291 291 290 290 290 290 290 290 290 290 290 290 290 290 290 290
329 330 329 331 330 327 327 327 322 321 321 320 320 320 321 320 319 317 317 314 311 309 307 305 303 301 298 296 294 293 292 291 291 291 290 289 289 289 289 289 289 289 289 289 289 289 289 289 289

GFSSGP_925_thetae_006.txt.gz
Theta_e
324 326 324 324 330 328 330 326 333 335 334 327 326 327 327 328 331 338 336 335 336 339 340 340 342 339 340 340 338 335 332 330 331 329 328 328 329 329 328 330 330 328 328 328 328 328 329 329 332
326 327 324 326 326 328 325 326 333 330 327 326 327 328 329 329 332 334 337 335 335 339 341 342 342 338 337 339 337 335 335 333 331 330 330 329 331 330 328 328 328 328 327 328 327 326 327 327 328
327 326 325 330 328 323 325 327 326 324 324 328 328 328 328 329 331 334 336 335 335 336 342 344 337 337 339 337 332 333 335 332 331 329 329 332 332 335 332 329 328 328 327 325 327 327 325 325 327
327 325 324 327 329 328 322 323 322 322 324 327 326 328 328 330 332 334 336 335 335 336 342 343 340 340 337 336 335 332 331 332 334 331 327 332 335 335 336 330 329 328 328 327 328 328 329 329 328
326 327 328 328 329 329 325 320 322 323 324 327 327 328 330 330 331 335 335 335 336 338 343 341 341 340 334 335 336 333 332 330 331 331 328 333 334 333 335 333 330 328 327 327 327 327 328 330 331
328 328 329 329 327 327 327 325 323 322 322 326 327 325 329 329 332 334 335 334 336 338 341 337 342 337 333 335 333 332 332 331 330 329 327 332 331 333 334 334 332 329 327 330 328 327 328 329 331
329 329 331 329 327 327 328 323 321 321 324 325 326 326 327 326 330 334 335 334 336 338 340 340 336 333 334 334 335 335 333 333 332 333 329 327 327 329 330 331 329 328 327 326 328 329 328 327 329
329 329 329 328 330 329 326 326 323 322 324 324 325 326 327 326 328 332 335 336 336 339 340 339 340 339 334 334 335 334 333 333 332 332 330 327 323 326 327 328 329 330 330 325 321 323 328 329 325
329 332 332 330 329 329 326 326 325 326 326 325 324 324 325 323 326 330 332 335 337 338 339 340 340 341 340 340 338 334 332 332 332 332 329 329 326 330 331 330 329 326 322 322 323 324 325 327 327
330 332 331 327 326 326 326 326 326 327 327 325 325 325 325 324 324 324 328 331 336 338 339 340 339 340 340 339 340 338 336 336 334 334 333 332 329 329 330 329 329 330 330 330 330 330 331 330 330
331 333 329 326 325 326 326 326 325 326 328 327 326 326 326 326 326 323 324 326 331 335 337 339 340 340 340 339 338 338 337 336 335 333 332 332 331 330 331 331 331 332 332 332 332 332 332 332 331
332 330 328 328 326 327 327 326 326 325 326 327 326 326 326 325 326 322 324 324 328 332 335 337 339 340 340 340 339 338 336 335 334 333 333 332 332 332 333 333 333 333 333 333 333 333 333 333 332
330 329 327 327 326 326 326 327 327 326 325 325 325 326 325 325 324 324 323 328 328 331 332 334 336 339 340 340 339 338 336 335 334 334 334 334 334 334 334 334 335 334 333 333 332 331 331 330 330
329 329 330 328 326 326 327 327 326 326 325 325 326 324 321 321 323 323 323 327 330 331 332 332 333 336 338 339 339 338 337 335 335 334 335 334 334 334 334 333 333 332 331 330 329 327 326 326 325
328 331 330 329 328 327 326 328 328 326 325 325 324 318 321 322 323 323 324 325 325 326 326 326 328 332 336 338 338 337 336 335 335 334 334 333 333 333 332 331 326 323 323 321 320 315 315 316 316
330 330 333 330 329 328 326 330 328 326 325 324 320 320 322 322 322 323 323 323 323 324 326 326 325 327 333 337 337 336 335 334 333 332 332 331 329 328 325 318 315 314 314 313 313 312 313 313 313
330 333 334 333 329 328 327 329 327 326 323 321 319 319 321 321 320 321 321 322 322 325 326 328 326 328 333 336 334 333 332 331 326 320 318 316 316 314 313 312 311 311 311 311 310 309 309 308 308
328 334 331 334 330 329 329 329 327 326 322 320 320 319 320 320 319 320 321 322 325 327 329 330 331 332 334 333 331 326 320 316 315 313 311 310 309 310 310 309 308 307 308 306 305 304 303 304 304
325 328 334 330 330 330 329 329 329 326 324 322 321 320 320 319 318 321 322 325 328 329 330 331 331 332 332 332 322 319 316 314 312 309 308 307 307 306 305 304 303 303 304 302 301 301 301 303 302
324 328 332 329 329 329 330 330 327 325 324 323 322 319 319 318 317 319 321 323 326 328 330 331 329 328 327 324 321 318 314 312 309 308 306 304 302 301 301 300 300 300 301 299 299 299 300 301 301
324 327 332 332 330 328 327 328 325 324 323 324 323 319 319 318 317 318 318 320 322 322 322 324 325 322 321 319 317 314 313 310 309 308 306 303 301 299 298 298 299 298 299 298 298 298 299 300 300
323 324 328 331 333 335 325 329 326 325 326 323 320 319 319 317 317 317 317 318 319 320 320 320 320 319 319 318 316 313 310 309 308 306 305 302 300 298 297 297 297 297 297 296 296 296 296 298 299
322 322 328 330 333 333 329 329 326 326 327 318 317 318 318 316 316 316 316 318 318 317 316 315 315 314 313 312 311 310 309 307 306 304 302 300 299 297 296 295 295 295 295 294 294 294 295 296 297
319 322 325 333 331 338 334 330 328 325 322 319 318 319 318 316 316 315 317 318 317 315 313 312 312 311 311 311 310 309 308 306 303 301 300 299 298 296 295 294 294 294 293 293 293 293 293 293 295
322 326 330 335 332 333 327 332 326 321 320 320 319 319 317 316 316 315 314 315 316 314 312 311 310 309 308 307 306 305 303 301 300 298 297 296 295 294 293 293 292 293 292 292 292 292 292 292 293
324 326 330 338 337 329 326 329 326 320 318 319 319 319 318 317 315 314 314 315 316 314 312 310 308 306 305 304 303 301 300 298 297 296 295 294 294 293 292 292 292 292 291 291 291 291 291 291 292
324 323 320 334 324 328 326 325 319 318 318 318 319 319 318 317 316 314 314 316 315 313 311 309 306 304 303 301 299 298 297 297 295 294 294 293 292 292 291 291 291 291 290 290 290 290 290 290 290
324 323 328 333 330 333 328 326 324 320 318 318 319 319 318 317 316 314 314 315 315 313 310 307 305 303 301 300 298 296 295 294 293 293 292 291 291 291 290 290 290 289 289 289 289 289 289 289 289
330 331 332 333 329 330 329 327 321 320 319 317 318 319 318 317 316 315 314 315 313 310 309 307 304 301 299 298 296 295 293 293 292 292 291 290 290 290 289 289 289 289 289 289 289 289 288 288 288
328 330 331 331 330 326 326 324 317 318 318 317 316 319 318 317 316 315 313 313 310 309 307 305 302 300 298 296 294 293 292 292 291 291 290 289 289 289 289 289 289 289 289 288 288 288 288 288 287

GFSSGP_925_thetae_009.txt.gz
Theta_e
323 325 326 323 320 322 327 326 328 326 327 325 325 326 325 325 329 337 335 337 338 338 339 342 340 337 337 339 337 333 331 330 329 328 329 329 329 329 331 330 329 327 327 328 328 327 329 329 331
324 326 325 320 320 321 323 322 324 322 323 323 325 326 326 328 332 334 334 337 338 338 334 340 338 341 337 337 336 332 332 331 329 329 329 328 328 328 328 328 328 327 326 325 327 326 324 326 326
327 327 321 323 324 320 321 323 321 321 320 325 326 325 326 329 332 334 335 335 338 341 335 341 342 335 336 339 331 331 334 331 329 328 329 331 330 331 331 328 327 327 327 325 324 325 324 322 320
327 322 318 323 324 324 323 318 320 321 321 323 325 327 327 329 331 336 335 334 339 342 343 338 335 339 338 334 332 331 334 333 330 325 327 332 335 333 334 329 327 328 327 326 325 326 327 328 328
326 320 324 325 325 324 322 321 321 321 322 324 325 326 328 329 334 335 335 335 336 341 344 340 338 338 337 335 334 332 331 331 329 326 326 333 331 332 334 332 329 329 326 326 326 327 327 329 330
324 321 326 326 325 324 322 324 321 321 320 321 325 324 327 331 334 335 334 335 337 340 342 340 341 339 334 335 334 332 331 331 330 326 328 331 329 331 334 334 332 329 328 328 330 329 329 328 329
327 325 327 326 326 326 325 319 318 319 322 324 322 325 325 328 333 335 334 335 339 340 340 335 342 339 332 335 333 333 332 332 331 330 328 325 327 328 330 332 330 328 327 327 327 330 330 329 328
325 325 329 325 327 327 325 324 322 320 322 322 323 324 325 325 332 335 335 334 338 339 339 338 334 332 333 332 334 335 334 333 333 331 330 325 321 327 326 327 328 328 329 326 321 321 323 324 326
327 328 332 329 327 326 324 324 323 323 324 324 323 323 323 327 330 333 334 335 336 339 339 339 338 337 332 333 334 334 332 333 332 330 328 323 323 328 331 330 329 327 327 329 329 330 330 330 330
328 329 331 326 324 325 324 323 323 325 325 325 323 322 323 326 328 329 330 334 336 338 339 339 339 340 340 339 338 336 333 332 330 331 332 331 329 330 330 329 330 331 332 332 332 332 332 332 332
329 332 328 327 326 324 323 324 324 325 325 324 325 323 324 324 323 322 322 331 333 337 338 339 339 340 340 340 339 338 336 335 335 334 332 331 330 329 330 331 331 332 332 333 333 333 333 332 331
330 329 329 328 328 327 325 324 324 324 323 323 323 323 323 323 322 323 322 321 325 335 337 339 339 340 340 339 337 338 336 335 334 333 332 332 332 331 332 333 333 333 333 333 332 331 330 329 328
327 327 328 328 327 326 324 324 324 325 322 322 322 322 322 322 321 324 323 326 329 334 336 337 339 339 340 339 339 338 335 335 334 333 333 333 333 332 333 333 334 333 331 329 327 322 321 320 320
323 325 327 327 327 325 326 324 324 324 322 322 322 322 321 319 319 321 322 326 328 331 335 337 337 339 340 339 339 337 336 334 334 333 333 333 334 334 332 332 326 322 320 318 316 315 314 314 314
325 329 327 328 327 328 327 327 325 322 323 323 322 320 317 319 320 321 323 324 328 329 331 331 333 336 339 339 338 337 336 334 334 333 333 331 332 332 325 317 314 314 314 314 313 311 311 311 308
325 327 331 327 328 327 327 331 325 323 322 323 322 317 317 320 319 321 323 323 324 325 326 326 329 334 337 338 338 336 335 334 332 331 330 326 320 317 317 314 312 311 312 311 309 307 306 304 305
323 327 328 330 326 328 328 330 325 322 322 322 318 315 317 318 318 320 321 322 323 325 325 325 325 331 337 337 335 333 332 329 323 322 320 314 313 312 311 310 308 308 308 306 303 301 300 303 301
323 325 324 329 327 328 330 330 324 323 323 322 316 314 317 318 317 319 320 321 323 326 327 327 325 333 335 333 330 325 320 318 316 313 311 310 309 309 308 306 303 303 303 300 299 298 298 300 300
318 320 325 325 326 328 329 330 327 324 323 319 315 315 317 317 316 320 321 323 327 328 330 329 333 332 331 326 320 317 311 311 310 308 307 307 306 303 302 302 300 300 299 298 299 297 298 298 299
320 322 323 322 324 328 329 329 327 325 325 321 319 315 317 316 316 317 321 326 328 329 330 332 332 331 328 324 320 316 311 309 307 306 304 303 302 301 301 300 298 298 298 296 297 296 297 299 298
320 321 321 322 324 326 329 331 328 325 323 321 319 316 317 317 317 315 317 322 324 326 326 328 329 325 321 319 316 312 309 307 306 305 303 302 301 299 298 298 297 297 296 295 295 295 295 296 296
318 317 320 322 325 331 328 336 330 327 323 321 318 317 316 316 316 315 315 317 320 321 322 323 322 321 319 317 313 310 309 308 307 305 302 300 299 298 297 296 296 295 294 294 293 293 293 293 294
317 316 318 322 326 327 328 333 327 324 325 322 316 317 316 317 316 315 314 317 318 319 319 319 319 317 316 314 312 310 308 307 305 302 301 299 298 297 295 294 294 294 293 293 292 292 292 292 292
315 318 320 323 324 330 328 329 327 325 324 323 313 317 316 316 315 314 316 316 314 314 313 313 313 312 314 313 310 308 307 305 302 300 299 297 296 295 294 293 292 292 292 292 292 291 291 291 291
315 317 323 325 326 327 328 328 328 321 322 322 316 317 316 315 315 315 314 313 312 312 311 311 311 309 310 309 308 306 304 302 300 298 297 296 295 293 292 292 292 291 291 291 291 291 290 290 290
316 316 321 323 325 324 329 331 331 323 319 319 317 317 316 315 315 315 313 312 312 311 310 309 308 307 307 306 304 302 301 299 297 296 295 294 293 292 292 291 291 290 290 290 290 290 290 289 289
315 319 317 325 328 331 331 328 322 316 316 316 318 317 316 315 314 314 313 313 312 310 309 307 306 304 304 302 301 299 298 296 295 294 293 292 292 291 291 290 290 290 289 289 289 289 289 289 288
316 318 322 323 331 336 332 324 323 317 317 318 318 317 316 315 314 313 313 312 312 310 308 306 304 302 301 299 298 297 295 294 293 293 292 292 291 290 290 289 289 289 289 289 289 288 288 288 288
317 321 322 323 323 334 334 328 316 316 317 319 318 317 316 315 314 313 313 312 311 309 307 305 303 300 299 297 296 294 293 293 293 292 291 291 290 289 289 289 289 289 289 288 288 288 288 288 287
320 323 321 322 325 327 322 321 316 315 314 317 317 317 316 315 313 313 312 310 308 307 305 303 301 299 297 296 295 293 292 292 292 291 291 290 289 289 288 288 288 288 288 288 288 288 288 287 287

GFSSGP_925_thetae_012.txt.gz
Theta_e
323 323 326 321 319 321 324 325 322 322 325 324 322 326 325 325 328 332 334 338 338 338 343 342 341 342 339 342 338 333 330 330 329 330 331 330 329 329 330 329 328 327 326 326 326 327 328 328 329
324 326 324 317 319 320 321 321 323 322 321 319 323 324 325 332 333 332 337 338 336 336 342 340 338 338 338 339 335 332 331 331 329 328 327 328 327 329 328 328 327 325 326 324 324 323 320 324 325
324 325 320 320 321 320 320 320 321 321 320 323 325 323 326 330 333 333 334 338 337 334 338 339 338 339 341 337 334 330 331 332 329 329 330 329 330 330 329 327 327 327 327 324 322 324 325 326 323
327 321 316 322 323 322 322 321 317 320 320 322 324 326 327 328 330 335 335 337 338 335 337 338 340 341 339 338 332 332 333 332 330 327 329 332 331 331 332 329 326 327 326 325 325 325 327 328 329
324 317 324 323 323 321 321 321 317 321 321 322 322 325 328 330 334 334 335 338 339 338 338 341 339 336 339 334 332 333 335 334 330 329 328 332 330 331 333 333 329 328 326 326 326 329 328 328 329
324 318 325 326 323 322 320 320 319 320 319 321 323 325 327 330 334 334 334 336 338 341 340 338 336 339 337 335 333 333 334 334 331 330 331 332 329 331 333 334 331 330 327 328 330 330 331 330 329
326 323 325 325 325 325 324 322 317 318 321 324 322 326 325 326 334 334 333 334 338 341 342 339 339 338 336 334 334 332 334 332 330 328 326 329 328 328 331 333 332 329 327 328 327 324 325 326 326
323 323 327 325 327 327 324 323 320 319 319 321 322 325 326 323 334 334 333 335 339 341 341 339 340 339 335 334 333 333 333 332 331 331 329 325 321 326 327 327 328 328 328 324 323 327 330 330 329
325 328 329 328 327 326 323 324 322 320 322 323 323 320 321 324 332 333 333 339 342 341 339 337 337 340 332 333 333 334 334 332 333 330 328 325 320 326 329 329 328 328 330 330 331 331 331 331 332
327 330 330 325 325 325 324 322 322 323 324 325 324 322 321 327 332 332 332 333 338 340 340 339 336 333 332 332 333 335 333 332 331 329 330 328 328 329 329 329 329 330 332 332 332 332 332 332 330
328 332 327 326 325 323 324 323 321 322 324 323 325 324 321 323 326 327 330 333 335 338 339 339 338 338 337 335 336 335 334 333 332 331 331 330 328 329 330 330 330 331 332 332 332 331 331 329 327
325 328 328 328 327 327 327 323 324 322 322 322 322 322 322 321 319 319 321 329 332 335 337 338 339 339 339 339 339 338 335 335 334 333 332 331 331 331 331 331 332 332 332 330 327 325 320 321 320
323 324 326 327 327 327 326 326 324 323 321 320 320 321 320 320 319 322 324 321 321 331 336 338 339 339 340 339 338 337 336 335 334 333 331 331 333 331 332 332 330 327 325 319 319 319 318 317 316
319 320 323 324 325 326 328 327 323 323 320 320 321 321 319 319 320 319 320 323 326 326 333 337 339 339 339 338 338 337 336 335 333 332 332 331 332 333 330 326 318 316 316 316 315 313 311 310 309
321 324 324 323 325 327 325 328 328 322 320 321 320 320 319 317 318 317 320 324 326 329 333 336 338 339 339 339 338 336 335 333 332 333 333 333 331 330 321 318 316 314 314 312 310 308 305 303 303
322 322 326 324 325 326 326 332 326 322 320 321 320 319 318 316 317 320 323 324 327 329 333 335 337 338 339 339 338 335 334 332 332 332 330 329 326 321 323 316 312 310 310 307 304 301 300 299 299
321 323 322 325 323 327 326 329 325 322 320 321 320 318 317 315 316 319 321 323 324 325 327 330 333 336 338 337 336 333 331 331 327 325 323 318 317 315 312 309 306 305 304 301 299 297 298 297 297
322 322 320 321 325 326 328 328 326 322 321 320 320 318 312 316 316 318 320 321 322 324 325 325 327 336 337 335 330 326 326 322 320 318 316 314 311 309 307 304 302 302 300 298 297 296 296 297 296
318 318 318 318 319 321 323 327 326 325 321 320 319 317 312 316 315 317 319 320 323 325 326 325 326 334 333 328 321 318 313 314 313 310 308 307 305 303 303 302 300 299 297 297 296 295 295 297 295
316 318 320 318 318 320 324 326 326 325 325 323 321 315 314 316 315 316 320 323 326 327 327 327 329 325 328 328 321 320 315 309 307 306 304 303 303 302 301 299 298 297 296 295 294 294 294 295 295
317 317 316 317 318 318 320 321 323 326 324 323 321 315 316 317 316 316 319 323 326 328 329 329 326 325 325 322 319 312 309 305 303 302 301 300 300 300 299 297 296 295 294 293 293 293 293 293 293
317 316 318 319 321 322 322 326 324 325 326 323 322 314 316 315 316 315 317 318 324 326 328 329 326 325 323 321 317 312 306 305 303 302 300 299 299 298 297 296 295 294 293 293 292 292 292 291 292
316 314 315 317 319 320 321 325 324 324 326 326 323 315 316 316 316 317 317 318 321 323 324 325 323 322 319 319 316 309 307 307 304 301 299 298 297 296 295 294 293 293 292 292 291 291 291 291 291
314 316 317 317 319 322 319 323 323 325 324 324 320 315 316 316 315 315 315 316 317 319 320 320 320 317 316 315 310 309 307 304 302 299 298 297 296 295 294 293 292 292 291 291 291 290 290 290 290
313 314 316 317 319 320 317 323 321 320 320 322 322 315 315 316 314 315 314 312 310 313 316 316 316 313 312 311 309 307 306 303 301 299 298 296 295 294 293 292 291 290 290 290 290 290 289 289 289
315 315 315 315 317 317 324 326 324 321 320 319 320 316 315 315 316 315 313 311 309 309 310 311 312 310 310 308 306 304 303 301 299 297 296 295 294 292 291 291 290 289 289 289 289 289 289 289 288
314 315 313 316 319 322 325 327 325 324 321 315 316 316 316 316 315 314 311 310 309 308 308 308 307 306 306 305 303 301 300 299 297 295 294 294 292 291 290 290 289 289 289 289 289 288 288 288 288
313 313 316 315 317 321 326 328 330 326 321 316 316 316 316 316 315 313 311 309 308 308 307 306 305 303 302 301 300 298 297 296 295 294 293 292 291 290 289 289 289 289 289 288 288 288 288 288 287
314 314 315 313 317 327 328 329 322 325 319 318 318 316 315 315 314 313 311 310 307 307 306 304 303 301 299 299 297 296 295 294 293 293 292 291 290 289 289 288 288 288 288 288 288 288 287 287 287
313 313 314 317 315 320 323 322 314 321 317 319 318 316 314 314 313 313 311 308 306 304 303 302 300 298 297 296 295 294 293 293 293 292 291 290 289 289 288 288 288 288 288 287 287 287 287 287 287

GFSSGP_925_thetae_015.txt.gz
Theta_e
326 324 325 319 317 319 324 325 320 322 325 322 320 323 324 326 327 330 333 337 338 339 343 343 340 344 343 342 339 335 331 330 331 333 337 330 329 328 330 329 328 325 326 324 325 328 327 329 329
323 325 322 315 320 318 319 320 323 321 321 318 321 323 325 333 332 332 336 338 338 338 343 342 342 342 342 342 338 335 333 330 330 330 331 330 329 329 328 328 328 327 326 324 324 322 322 323 325
324 324 319 319 317 320 318 319 320 319 317 323 324 323 326 334 333 332 334 336 338 337 341 340 341 342 341 341 337 334 333 331 329 329 329 329 328 329 328 328 329 327 326 324 323 324 325 326 325
326 320 315 322 323 321 317 321 319 317 319 321 322 327 326 327 331 334 335 337 336 334 339 338 339 340 341 338 336 333 333 332 330 331 329 329 331 331 333 329 326 326 325 324 325 324 326 327 329
321 316 323 323 323 321 319 319 319 318 318 321 321 325 328 328 332 334 336 337 336 334 338 338 338 340 339 338 334 332 334 333 330 330 329 330 330 331 333 333 329 327 326 325 326 328 329 329 328
323 317 324 325 322 320 319 319 319 318 317 321 322 326 326 329 333 334 336 336 338 334 338 338 340 340 339 337 334 335 335 335 330 329 331 332 329 331 333 332 330 329 326 327 329 328 328 329 329
324 321 324 323 323 323 322 321 323 318 318 323 320 326 324 325 334 333 336 337 339 337 339 340 340 338 339 335 334 333 334 334 331 329 332 332 328 329 334 335 332 328 326 327 326 324 326 327 329
322 322 326 323 325 325 323 323 320 316 318 319 320 325 327 323 330 332 332 337 339 340 340 340 337 339 338 336 334 332 332 331 330 329 327 326 326 326 328 328 326 327 327 326 327 329 330 330 331
321 327 328 326 325 324 322 324 321 320 320 321 321 321 320 323 332 331 332 338 340 341 341 339 338 339 338 335 334 333 333 332 331 331 330 327 322 325 327 327 328 328 330 330 330 331 331 332 331
327 329 327 324 322 322 323 323 321 322 321 323 323 321 322 325 331 331 332 337 341 342 342 340 339 339 338 334 334 333 334 333 333 331 328 326 322 327 329 329 329 329 330 331 331 332 332 331 329
326 330 326 326 324 323 323 323 322 323 322 320 323 323 321 325 329 330 331 333 339 341 341 340 338 337 338 332 333 334 335 333 332 330 329 329 328 328 329 330 330 330 330 331 332 330 327 324 321
324 325 326 327 326 327 327 324 324 322 320 320 319 321 321 320 323 326 328 331 332 336 339 339 338 337 334 332 333 334 335 332 332 330 331 331 329 329 330 329 330 332 331 329 320 320 319 318 316
321 322 323 323 326 326 326 327 325 323 320 319 318 318 319 319 318 321 324 326 327 331 334 338 338 337 337 335 336 337 336 334 333 333 332 331 330 330 329 331 329 326 319 317 316 317 315 312 309
318 319 319 321 323 323 325 326 325 323 320 319 318 319 319 318 317 319 320 321 321 322 326 335 338 338 338 338 338 338 337 335 334 334 332 330 331 330 329 324 320 317 314 312 311 310 307 305 303
319 321 320 321 321 323 324 326 327 323 321 320 318 318 318 317 319 317 321 321 322 322 321 330 336 338 338 339 339 337 337 336 333 331 332 331 331 329 324 321 317 313 310 308 306 303 301 300 299
321 320 323 320 321 322 325 326 325 323 323 324 319 317 317 316 317 319 320 320 321 324 326 329 336 337 338 339 337 336 334 334 332 332 332 331 329 325 320 318 312 308 306 303 301 299 298 298 297
321 321 321 320 321 324 326 327 323 321 321 320 318 317 317 316 314 317 319 322 323 325 328 331 335 337 338 337 335 333 332 329 330 330 326 323 322 316 317 308 305 303 302 300 298 297 296 296 296
319 321 320 320 322 321 323 324 322 322 322 321 320 320 316 315 315 316 319 321 323 325 329 332 335 337 337 335 331 327 326 324 325 322 319 322 311 307 305 303 302 301 299 298 296 295 295 296 294
316 318 318 316 317 317 319 320 320 321 321 323 318 318 317 313 313 316 318 320 320 323 325 326 331 336 335 329 322 319 316 316 315 314 312 310 305 303 303 302 301 299 297 295 294 294 293 294 293
314 316 317 315 316 317 317 318 317 317 318 322 323 320 318 313 314 314 316 318 321 323 324 323 330 332 328 326 324 325 315 309 307 306 304 303 303 302 302 300 299 297 295 294 293 293 292 292 293
314 315 315 315 313 314 314 314 311 314 317 320 322 321 320 315 314 314 315 319 323 325 325 324 325 324 325 326 321 314 309 305 302 301 301 301 301 301 300 299 297 295 294 293 292 292 291 291 291
314 313 315 316 316 316 315 315 312 315 316 318 321 322 317 313 314 314 317 319 323 326 326 324 323 324 323 323 321 318 310 302 300 301 300 299 299 299 298 297 295 294 293 292 291 291 290 290 290
314 313 314 316 318 317 317 319 315 317 319 320 321 320 315 314 315 316 318 320 323 325 325 323 323 322 320 322 326 319 309 305 301 300 299 299 298 297 296 294 293 292 292 291 291 290 290 290 289
313 314 315 316 316 318 314 316 314 313 319 320 319 320 315 314 314 315 316 319 319 322 323 321 321 318 319 320 318 317 308 303 300 298 298 297 296 295 294 293 292 291 291 290 290 289 289 289 289
311 314 318 319 320 317 313 316 315 313 314 317 319 319 313 314 314 316 315 314 313 316 318 319 319 315 316 316 312 309 307 305 302 299 298 297 295 294 293 292 291 290 289 289 289 289 289 288 288
313 313 316 316 316 313 313 318 316 315 314 314 314 315 312 314 315 317 316 314 312 312 314 315 316 313 312 310 308 307 306 304 301 299 298 296 295 294 292 291 290 289 289 289 289 289 288 288 288
315 316 312 314 314 320 318 318 321 320 319 317 316 314 314 314 316 317 314 311 310 310 311 314 313 311 309 308 306 304 302 300 298 297 296 295 293 292 290 290 289 289 288 288 288 288 288 288 287
312 311 316 316 317 316 314 321 320 321 319 317 316 314 314 314 316 314 311 308 307 308 309 310 311 309 306 305 303 301 299 298 297 295 294 293 292 290 289 289 288 288 288 288 288 287 287 287 287
313 313 313 313 312 312 315 313 319 319 318 316 314 313 314 315 315 312 310 307 305 305 305 305 306 304 302 301 299 297 296 295 294 294 293 292 290 289 289 288 288 288 288 287 287 286 286 287 287
312 312 312 317 309 311 314 317 314 316 314 316 315 316 317 316 313 311 308 305 303 302 302 301 300 300 298 298 296 295 294 294 294 293 292 290 289 288 288 288 288 288 287 287 286 286 286 286 287

GFSSGP_925_thetae_018.txt.gz
Theta_e
325 323 324 318 319 317 322 322 320 321 324 321 319 322 324 325 328 330 333 337 337 337 342 342 339 342 343 341 339 334 331 333 332 335 337 332 330 327 329 329 328 326 326 325 328 328 328 329 330
325 324 321 314 320 318 317 318 321 320 320 317 320 323 325 332 331 331 336 337 337 337 342 341 339 345 343 341 339 334 333 331 331 335 333 329 329 328 327 327 328 328 327 324 323 322 324 323 324
325 323 318 318 316 320 317 318 319 318 315 320 323 323 325 333 332 331 334 337 338 339 342 341 341 344 342 341 337 336 333 331 330 329 330 329 328 328 329 328 329 327 325 323 322 321 322 323 324
325 318 314 321 322 320 316 318 319 317 318 320 322 326 325 327 331 332 334 336 338 339 342 340 342 342 342 339 337 336 334 331 329 331 328 329 330 331 330 329 329 326 324 322 323 324 324 324 326
320 316 321 323 322 320 318 318 319 319 318 318 320 325 327 327 331 332 335 336 337 339 341 338 341 342 339 338 337 334 334 333 330 331 329 329 330 331 332 332 328 327 325 325 326 328 329 329 328
322 316 322 323 321 320 318 318 320 318 316 315 322 326 326 327 332 335 336 335 335 335 339 337 339 339 339 338 335 334 333 333 331 330 331 332 329 331 332 333 330 329 326 326 329 331 331 331 331
323 320 322 322 321 321 320 318 320 321 316 319 319 325 324 324 332 335 336 336 336 334 338 338 339 339 339 338 335 333 333 335 330 329 332 333 328 329 334 333 332 328 327 329 329 330 331 330 330
320 321 325 321 323 323 321 322 321 316 317 317 319 323 325 323 331 333 337 337 338 336 338 338 339 340 338 339 335 333 332 331 329 327 330 331 328 327 329 330 327 327 328 328 330 330 331 331 331
318 326 326 324 323 323 321 322 320 319 319 319 320 321 320 321 330 331 334 337 339 338 338 339 340 339 339 338 335 333 331 331 331 330 329 327 323 323 326 326 327 328 329 330 330 331 331 331 331
326 326 325 322 320 322 321 322 320 322 321 321 321 321 322 323 330 329 331 335 339 339 339 339 340 338 339 338 336 334 333 332 332 331 330 326 321 324 327 328 328 329 329 330 331 331 330 327 327
325 327 324 325 324 324 323 322 321 323 323 320 321 319 319 325 329 329 330 333 336 339 340 341 340 339 339 338 335 334 333 333 332 332 329 327 326 327 328 329 329 329 330 330 331 327 321 319 318
323 322 325 326 325 326 327 324 324 321 320 318 318 318 318 320 325 328 329 330 334 337 339 340 340 340 339 338 335 333 334 334 333 331 329 329 328 328 329 329 328 330 330 325 317 317 316 314 311
321 321 322 321 321 322 323 325 325 324 321 319 320 318 317 317 316 323 329 330 329 331 334 338 340 339 338 339 333 333 334 334 332 331 330 330 330 329 328 329 328 323 317 316 314 312 310 307 304
317 318 318 318 320 320 323 323 322 322 321 319 318 318 317 316 317 318 319 321 321 322 324 329 336 338 338 336 333 334 335 334 333 333 332 332 330 330 326 324 320 315 312 311 308 306 303 301 300
319 320 318 318 319 319 321 323 323 321 320 321 319 318 317 317 317 317 320 321 323 323 321 320 328 336 338 336 335 336 337 335 334 333 332 330 331 329 323 320 315 310 308 305 302 300 300 299 299
321 320 321 317 318 319 322 322 321 318 318 321 321 318 317 318 316 318 319 319 321 321 320 320 324 333 337 337 337 337 337 336 334 331 331 330 325 324 323 316 309 304 302 301 300 299 298 297 297
320 320 320 319 317 320 323 323 323 319 319 319 318 316 316 315 315 317 319 320 320 320 321 324 327 333 337 337 337 337 335 334 330 331 330 323 321 320 317 309 304 301 301 300 298 297 296 295 295
318 320 320 320 317 316 318 320 319 317 318 319 318 317 316 315 316 318 318 318 320 323 324 325 330 333 335 335 334 330 328 327 326 324 322 319 314 313 307 304 302 300 300 298 296 295 294 293 293
316 317 317 316 315 316 317 316 316 314 315 317 319 320 317 316 315 315 317 318 320 322 325 328 332 334 334 332 326 319 319 320 318 316 315 312 308 304 303 303 301 299 299 295 294 293 293 292 292
315 315 315 312 313 314 314 315 314 312 314 316 318 319 318 318 313 313 315 317 319 321 324 327 332 332 331 329 323 320 317 314 312 309 305 303 304 302 302 302 300 298 295 294 293 292 292 291 292
312 313 313 312 312 312 312 312 308 308 309 311 312 313 316 318 315 312 312 315 318 320 322 324 330 329 326 325 321 315 311 306 302 301 300 301 302 301 301 300 298 296 294 293 292 291 291 291 291
314 311 313 314 314 314 310 313 310 310 310 307 309 312 316 318 313 313 312 315 318 321 322 322 326 326 324 323 321 319 308 302 300 300 300 300 299 299 298 297 296 295 293 292 291 290 290 290 289
312 311 313 314 315 315 314 317 311 311 312 311 312 313 315 317 315 313 313 316 319 322 324 322 322 322 322 321 322 313 306 305 301 299 299 298 297 297 296 295 295 293 292 291 290 290 289 289 289
311 311 313 314 315 317 313 313 312 309 309 309 311 312 315 316 312 313 314 317 320 322 323 320 319 319 319 318 313 318 314 303 299 298 298 297 296 295 295 294 293 291 290 290 289 289 289 289 288
312 316 317 318 318 315 311 313 312 309 309 309 311 312 314 313 312 313 315 317 316 318 318 317 317 315 314 313 314 316 315 307 302 299 298 296 295 294 293 292 291 290 289 289 289 289 289 288 288
312 313 316 317 312 311 311 315 312 310 310 310 310 310 313 311 311 314 316 317 316 315 315 315 315 313 312 313 312 312 309 304 301 299 298 296 295 294 292 291 290 289 289 289 288 288 288 288 287
315 314 311 315 314 317 313 313 311 316 315 314 312 310 310 311 312 315 316 317 314 314 314 314 313 312 311 310 309 306 303 302 299 297 296 295 293 292 291 290 289 288 288 288 288 288 287 287 287
313 312 316 314 316 316 312 311 311 313 315 314 314 314 312 311 312 314 315 312 312 312 311 313 313 311 308 306 305 303 301 300 298 296 295 293 292 291 290 289 288 288 288 288 288 287 286 286 286
313 314 314 313 316 314 309 308 311 317 314 315 315 313 312 312 313 315 312 308 305 306 308 308 308 306 304 303 301 299 297 296 295 294 293 292 291 289 289 288 288 288 288 287 286 286 286 286 286
310 311 312 313 308 310 308 310 312 314 313 314 316 312 312 312 313 311 308 304 304 302 302 303 302 302 301 299 298 296 295 294 294 293 291 290 290 288 288 288 288 288 287 286 285 285 286 286 286

GFSSGP_925_thetae_021.txt.gz
Theta_e
323 323 323 318 326 322 324 324 321 323 324 321 319 324 326 326 331 335 333 336 336 341 344 345 341 341 342 339 336 333 332 332 332 336 337 333 330 326 328 328 328 327 326 326 329 328 326 329 330
324 323 320 319 325 326 325 319 322 322 320 317 320 325 325 332 332 333 336 336 337 341 343 344 340 342 341 340 337 333 332 333 331 337 334 330 328 326 327 328 328 328 327 325 325 325 324 324 325
325 322 323 323 322 326 325 318 321 321 318 318 323 323 326 333 332 332 334 336 337 341 343 341 340 342 342 341 337 334 332 331 331 335 330 328 328 328 327 328 329 327 321 322 322 321 321 322 322
324 320 318 324 325 322 319 317 320 321 321 319 322 327 326 326 331 332 334 336 338 339 343 340 341 345 342 340 338 336 332 331 330 329 330 328 330 331 331 329 330 327 322 323 325 326 327 326 327
320 319 324 325 323 321 319 318 319 322 320 319 319 325 328 327 331 330 335 337 337 339 342 342 343 343 341 338 338 335 334 331 330 329 328 329 330 332 332 331 328 327 324 324 327 329 331 331 330
324 319 324 325 323 321 320 319 320 320 319 318 321 325 327 326 332 334 336 336 336 336 342 340 342 342 340 337 336 334 334 333 331 332 329 330 330 331 332 333 330 329 326 327 330 331 331 331 330
325 323 325 322 322 321 321 319 320 321 320 319 320 325 325 325 332 336 337 337 336 335 339 339 342 341 339 337 335 333 332 331 330 330 331 332 328 331 332 331 331 328 327 329 330 331 331 331 331
322 324 324 323 324 323 321 321 321 319 319 317 320 325 326 323 332 336 337 337 336 335 338 338 339 340 340 340 336 333 331 331 326 326 330 331 328 327 332 332 328 328 330 330 330 331 331 331 330
319 329 329 325 323 323 321 322 321 319 320 321 320 321 320 321 330 335 337 337 337 337 337 339 338 340 340 339 337 333 332 331 329 327 327 327 325 326 327 326 327 328 329 330 330 331 331 329 328
327 329 327 323 321 323 321 322 322 323 322 323 322 320 319 323 328 331 335 337 338 338 336 339 339 341 340 340 337 334 332 332 331 330 329 327 323 322 326 327 328 329 329 329 330 331 327 325 323
325 328 324 324 324 325 325 324 321 323 325 323 324 321 320 322 327 329 331 332 336 338 338 338 340 341 339 339 337 335 333 333 332 331 329 326 323 324 327 328 329 329 330 329 328 321 319 318 317
324 322 325 325 325 325 327 325 327 324 325 320 319 320 319 322 320 328 329 330 332 334 337 338 339 340 339 339 338 335 333 333 332 332 329 328 328 328 328 329 328 328 327 323 318 316 314 312 308
322 321 321 321 319 320 322 324 325 325 324 322 322 323 322 321 320 319 323 328 329 332 334 337 339 340 339 339 338 335 333 333 333 331 329 329 329 328 328 327 327 324 318 317 315 311 307 304 301
317 318 318 318 319 319 322 322 322 322 321 323 322 323 321 320 321 320 319 319 321 327 329 332 336 339 339 339 338 335 333 334 332 330 330 330 330 328 327 325 320 316 314 311 308 303 301 300 299
319 321 318 318 319 320 320 321 322 320 320 321 321 321 322 322 321 319 320 321 321 321 321 321 325 334 339 338 337 334 333 335 332 332 332 331 330 329 324 322 316 313 308 304 301 300 299 299 298
320 320 320 317 318 318 319 319 318 317 319 321 321 321 320 321 321 321 321 320 321 321 320 320 319 322 335 338 337 333 334 335 333 333 333 330 330 326 323 321 313 305 302 301 300 299 298 297 297
318 319 320 318 317 319 321 323 321 319 318 319 319 319 319 320 319 318 320 319 320 320 320 320 320 325 332 337 336 334 335 335 334 332 330 329 325 322 320 313 305 301 301 301 299 297 296 295 296
316 319 318 318 316 316 317 318 316 315 316 317 317 317 318 318 318 318 319 319 320 320 319 320 322 328 332 335 335 334 335 334 332 329 326 323 322 317 311 307 302 301 302 299 297 295 294 293 294
315 317 318 316 315 315 316 316 315 314 314 315 315 315 316 317 317 317 319 319 318 318 321 322 326 330 332 334 332 328 326 326 324 322 320 319 314 306 304 304 302 301 301 297 295 294 293 292 292
316 317 318 315 312 313 313 314 312 312 313 313 313 314 315 317 318 317 316 316 317 319 321 325 329 330 330 328 325 322 318 313 317 313 310 307 304 302 304 304 302 299 298 295 294 293 292 291 291
314 315 314 314 312 312 312 313 311 310 310 310 311 312 312 315 316 317 316 315 317 317 321 326 329 327 325 325 324 317 312 307 305 303 302 301 301 302 303 302 300 297 295 294 292 291 291 292 290
314 311 313 313 313 313 310 314 310 310 310 309 307 308 310 311 312 315 317 315 315 318 320 324 328 325 324 324 321 320 311 305 301 301 299 299 299 300 300 299 297 295 293 292 291 290 290 290 291
312 310 311 312 314 313 313 315 312 310 311 310 311 309 308 310 312 315 316 316 316 317 319 322 325 322 321 321 322 316 309 306 302 300 298 297 297 298 297 297 295 293 292 291 290 290 289 289 289
312 312 312 313 315 318 313 314 313 311 310 308 308 309 311 313 313 315 315 315 316 317 320 320 321 318 318 319 317 315 311 304 299 297 297 296 296 296 295 294 293 292 291 290 290 289 289 289 288
312 316 317 316 318 316 311 314 313 310 310 310 310 309 309 310 314 314 315 316 317 318 319 318 317 315 315 315 312 311 312 309 301 299 297 295 295 294 293 293 292 291 290 289 289 289 289 288 288
312 313 315 316 314 313 310 316 313 310 310 310 309 309 309 311 313 313 315 317 317 318 316 315 314 312 311 312 308 309 309 302 299 300 298 297 296 294 292 292 291 290 289 289 289 289 288 288 287
314 314 311 314 313 316 313 312 309 309 310 313 313 314 313 310 312 313 315 317 317 317 315 314 312 310 309 309 310 308 302 302 300 298 297 296 295 293 291 290 290 289 289 289 289 288 287 287 287
313 311 314 314 314 315 313 313 314 309 309 314 313 315 315 312 311 313 315 317 317 316 313 312 311 309 308 310 310 306 301 300 298 296 295 294 293 292 291 290 289 288 288 288 288 287 286 286 286
313 314 315 313 315 315 313 310 305 307 311 314 314 315 315 312 311 313 316 315 314 310 310 308 307 307 306 307 303 300 298 298 296 295 294 293 292 291 290 289 288 288 288 288 287 286 286 286 286
311 312 312 315 313 313 312 312 310 313 312 313 314 314 314 312 312 314 311 307 308 306 305 305 302 302 302 301 299 298 297 295 294 293 292 292 291 289 289 288 288 288 287 287 286 286 286 286 286

GFSSGP_925_thetae_024.txt.gz
Theta_e
327 326 323 324 328 327 328 323 325 327 328 327 324 328 331 331 337 338 337 340 339 342 346 346 341 341 340 338 334 332 332 329 333 336 337 334 329 326 330 329 327 328 326 326 327 330 330 331 331
326 324 324 325 327 329 327 325 324 326 326 324 324 327 329 333 333 337 337 339 340 342 346 346 342 340 340 338 335 332 333 329 336 338 335 330 327 327 328 328 329 328 326 326 326 325 324 324 325
325 321 325 326 327 328 327 325 323 326 324 323 328 328 330 335 335 336 337 339 340 343 346 345 343 341 340 339 336 334 333 331 335 337 331 330 328 327 328 330 330 326 324 326 326 325 326 326 327
325 324 324 326 326 326 326 323 325 326 325 324 325 330 330 330 335 335 336 340 340 342 345 346 341 342 341 340 336 335 332 332 335 332 326 328 330 330 330 330 330 327 322 324 326 328 328 328 327
324 324 325 326 325 325 325 324 324 325 325 325 323 329 330 332 333 335 339 341 340 342 344 345 341 342 342 340 338 335 333 332 331 332 327 329 331 333 332 331 329 327 323 325 328 331 331 331 331
326 324 325 325 325 325 324 324 324 325 324 324 323 326 329 331 335 338 340 341 341 342 343 344 344 345 341 339 338 336 334 331 332 329 330 332 331 331 332 332 329 329 325 329 330 332 332 332 331
324 324 322 323 324 324 324 323 324 324 324 325 324 327 329 331 337 340 340 340 341 341 342 342 346 345 341 339 336 334 334 331 331 332 331 332 329 332 334 333 331 328 328 329 330 331 332 332 331
325 324 323 324 323 323 323 323 323 324 324 322 323 327 329 326 337 339 340 340 340 340 341 341 344 344 342 341 336 334 333 330 327 329 330 330 328 331 333 333 329 329 329 330 331 331 331 331 330
326 325 325 324 324 323 323 323 323 323 324 325 324 325 324 325 335 338 339 340 340 340 341 341 341 342 343 341 339 335 333 331 326 326 329 329 331 330 330 330 327 329 329 330 330 331 330 327 325
326 326 324 323 324 323 323 324 324 325 325 325 326 324 323 327 332 337 338 339 339 340 340 342 342 342 343 341 340 337 336 334 331 330 329 328 327 328 327 328 328 329 329 329 330 329 322 320 320
325 327 323 325 324 324 325 326 325 324 325 325 326 325 325 325 326 330 334 336 338 339 340 341 342 342 343 341 340 338 336 335 334 332 331 328 326 326 328 330 330 332 329 324 326 317 315 314 314
325 323 324 323 325 326 326 325 327 325 324 323 324 324 325 326 327 326 329 332 334 338 340 340 342 343 343 341 340 338 336 336 334 333 329 327 328 329 329 331 328 323 325 322 318 314 311 309 307
323 321 321 322 323 322 322 323 324 323 323 324 324 325 326 327 327 326 325 328 332 334 337 340 341 342 343 341 340 338 336 336 335 333 330 330 330 330 329 325 322 325 320 314 312 310 307 305 303
320 321 321 321 321 320 321 321 321 321 321 321 322 322 323 324 325 326 326 325 324 329 332 337 340 341 342 342 340 339 336 336 336 333 331 331 331 329 327 326 325 319 315 313 307 305 303 302 301
321 322 321 320 320 320 320 322 321 320 320 320 321 321 322 322 322 325 325 325 325 324 325 330 336 340 341 341 341 339 336 337 336 333 332 332 330 328 326 324 321 316 311 305 304 302 302 302 301
320 321 323 320 320 320 320 320 319 319 320 321 321 321 321 321 321 320 322 323 324 324 324 322 324 332 338 340 341 339 336 337 335 334 333 331 329 328 324 322 318 312 304 302 302 302 302 301 301
319 321 322 321 318 319 321 323 321 322 321 322 321 322 322 322 322 321 320 321 323 323 324 322 322 324 331 336 339 339 336 338 334 332 331 331 329 326 324 320 310 303 302 302 300 300 300 300 300
320 321 319 319 318 318 319 320 319 319 319 319 320 321 321 321 322 322 322 322 321 321 322 322 322 325 331 335 338 338 337 334 329 332 332 330 326 323 322 311 302 302 302 300 299 299 298 298 298
317 318 319 318 317 317 317 317 317 316 317 317 317 317 317 319 319 319 320 321 322 322 322 323 324 327 332 335 336 334 328 324 322 330 329 325 322 319 312 305 301 301 301 299 298 298 297 297 296
316 316 317 316 315 315 315 316 315 314 315 314 314 315 315 315 317 317 318 320 321 321 322 323 325 329 332 333 331 331 325 319 317 317 320 315 315 310 303 302 301 300 299 298 297 297 297 296 295
315 316 315 315 315 314 315 316 315 313 313 313 313 313 314 314 314 315 317 318 320 321 322 324 328 331 331 330 330 323 313 308 306 306 311 307 304 303 301 301 300 299 298 297 296 296 296 297 295
317 314 314 314 314 316 313 319 315 314 314 313 312 313 313 313 313 313 314 316 318 320 322 324 329 329 329 328 320 317 317 314 310 305 303 303 302 299 299 299 298 298 297 296 294 294 294 294 295
314 312 312 313 314 314 315 315 314 313 314 314 314 314 314 314 314 313 314 314 315 319 322 324 328 328 325 322 321 321 320 316 304 300 301 299 298 297 297 298 297 296 295 294 293 293 293 293 293
312 313 313 313 315 319 315 316 315 315 315 314 312 313 313 313 314 314 314 314 315 318 322 324 326 324 322 323 322 323 317 306 300 297 297 297 296 296 296 295 295 294 294 293 292 292 292 292 291
313 315 316 317 319 316 313 316 315 313 312 312 313 313 313 313 313 314 316 317 318 318 322 323 324 323 322 322 322 320 311 305 303 300 298 297 297 296 295 294 294 293 292 292 292 292 291 291 291
313 313 316 315 315 313 313 316 314 312 312 312 313 314 317 317 318 315 315 318 319 319 321 322 322 321 321 321 317 312 308 304 302 299 299 299 298 296 294 293 293 292 291 291 291 291 291 290 290
314 316 313 315 314 316 313 312 312 312 312 312 312 315 317 317 318 317 315 317 319 320 321 321 321 320 320 317 310 307 304 301 300 299 298 297 296 294 293 292 292 291 290 290 290 290 290 289 289
314 312 315 316 315 315 312 311 312 312 311 313 314 315 316 317 317 316 316 316 319 321 321 321 320 318 318 313 305 303 301 302 298 296 296 296 294 292 292 291 291 290 290 290 289 289 289 289 289
313 315 316 314 316 314 313 312 311 310 310 312 313 315 317 317 317 317 315 318 320 321 321 319 318 316 312 307 301 301 300 299 296 295 294 294 293 292 291 291 290 290 290 289 289 288 288 289 289
311 312 312 316 316 316 317 317 311 312 313 314 313 314 316 316 316 316 317 319 320 319 318 317 314 311 307 301 299 300 298 295 296 293 293 292 292 291 290 290 289 289 288 288 288 288 288 289 288

GFSSGP_925_thetae_027.txt.gz
Theta_e
328 326 325 326 328 329 329 329 324 327 326 327 328 329 332 333 336 339 339 341 340 345 350 346 342 340 343 341 337 333 333 334 334 338 339 334 332 332 329 329 329 328 326 330 331 330 330 331 331
327 325 325 327 329 330 330 327 325 323 327 327 327 327 329 333 334 340 340 340 340 346 347 347 343 340 340 340 336 334 331 334 336 338 335 331 328 328 329 330 330 327 326 326 328 328 327 327 328
326 324 326 328 328 329 329 328 326 325 326 326 328 329 332 335 336 338 340 339 340 345 346 347 342 341 340 339 335 334 333 336 338 336 332 329 328 329 330 331 330 324 325 326 325 323 323 324 325
325 325 325 327 328 327 327 327 325 325 326 326 328 330 331 333 336 337 339 339 340 344 346 346 343 341 340 338 335 335 331 332 338 332 329 330 329 329 330 331 329 324 323 325 328 329 327 325 325
325 325 327 326 325 325 326 326 325 325 326 327 327 330 332 335 335 338 339 338 341 343 347 347 343 342 340 339 336 335 333 333 335 331 331 331 332 333 332 331 330 326 324 326 329 332 331 332 332
326 324 326 326 325 325 325 326 325 325 325 326 326 328 332 334 336 339 340 339 339 343 345 346 342 341 342 339 337 334 333 332 333 333 333 331 331 331 332 333 329 328 327 330 332 333 333 332 332
326 326 324 325 324 324 324 325 325 325 325 325 326 328 331 334 339 340 340 339 339 341 342 345 346 344 342 338 337 335 333 332 332 332 332 332 329 333 335 332 331 329 329 331 332 332 332 331 330
325 325 325 324 323 324 324 324 324 324 325 325 325 326 330 331 339 340 339 340 339 341 341 343 346 346 343 341 337 334 333 330 330 330 331 330 328 333 333 332 330 328 330 331 331 331 331 330 327
326 328 326 326 323 323 323 324 324 324 324 325 325 326 327 328 338 338 339 340 340 340 340 340 344 344 343 340 338 335 333 329 327 329 329 329 332 332 333 333 326 329 329 330 330 330 329 324 323
327 326 324 322 323 323 323 324 324 324 325 324 326 326 326 328 333 337 338 339 339 340 340 340 341 342 342 340 339 337 335 333 328 328 330 330 331 331 330 327 328 329 329 330 329 328 320 321 322
325 326 322 322 325 325 324 324 324 325 326 324 325 326 326 327 330 333 336 337 338 339 340 341 341 341 342 340 339 337 336 334 332 329 328 327 328 328 327 329 329 331 330 324 322 320 318 317 315
324 323 323 324 324 326 325 325 325 325 325 324 324 326 327 327 327 328 330 333 335 337 339 340 342 342 342 341 340 337 336 335 334 333 330 328 326 327 328 330 331 328 323 321 319 318 314 313 310
323 323 322 322 323 324 324 324 324 325 324 324 324 325 326 326 327 327 328 328 332 334 337 339 341 343 343 342 340 338 336 335 335 334 330 327 328 329 329 330 326 321 321 317 317 315 312 308 306
322 322 322 322 322 322 322 322 321 321 321 322 322 323 323 324 326 326 327 327 328 332 334 337 340 342 342 342 341 339 337 336 336 335 331 329 330 330 329 326 320 324 320 318 311 309 306 305 305
322 324 323 323 322 322 321 323 323 321 321 321 321 321 321 322 322 323 325 327 327 326 330 332 337 340 341 342 341 339 338 337 336 335 332 331 332 329 324 322 324 322 319 309 308 306 305 305 304
322 322 325 322 321 321 320 322 320 320 321 321 321 321 321 321 321 321 323 325 327 327 326 326 332 337 340 341 340 340 339 337 336 335 333 332 331 326 324 324 323 318 313 306 306 305 305 304 303
323 325 324 323 321 320 322 324 322 322 323 321 321 322 322 322 322 321 321 322 324 326 326 326 325 329 334 338 339 339 338 337 337 335 333 333 326 323 324 324 320 310 306 306 304 303 302 302 302
324 324 322 321 320 319 320 321 320 320 321 321 321 322 322 322 322 322 322 322 321 323 325 325 325 324 327 333 337 338 338 337 337 336 334 328 321 326 325 322 309 306 305 304 303 302 301 300 300
319 319 320 320 319 318 318 319 318 318 318 318 318 319 320 320 320 321 321 322 322 322 323 324 325 325 326 330 335 338 338 337 336 333 326 320 322 323 321 313 306 305 305 303 302 301 301 300 299
318 319 319 317 316 316 317 317 316 316 316 316 316 317 318 318 318 318 319 320 321 322 323 324 324 325 327 332 336 338 337 333 330 324 318 318 321 321 315 307 305 304 302 301 301 301 301 299 298
318 318 317 317 315 315 316 317 317 317 315 316 316 316 316 316 316 317 317 317 320 321 322 323 324 325 329 333 336 336 329 323 317 315 311 310 313 315 307 305 304 303 302 301 300 299 299 300 298
318 316 316 316 316 319 314 320 316 316 316 316 315 314 314 315 315 315 316 317 317 319 322 323 324 327 331 333 334 330 321 317 313 309 308 306 306 305 304 303 302 302 301 300 298 298 297 297 298
315 314 314 315 315 315 316 318 317 315 316 316 315 315 315 316 316 315 315 315 315 316 321 323 325 328 332 333 333 329 321 322 312 308 305 301 302 303 303 301 301 300 299 298 297 296 296 295 296
313 313 313 314 314 317 315 316 316 315 314 315 316 316 315 314 314 314 315 314 315 315 319 324 325 330 331 331 330 324 323 319 308 305 302 299 301 302 301 299 299 298 297 296 296 295 295 294 294
314 315 317 320 320 318 314 316 315 314 314 313 314 314 314 314 316 317 315 316 315 316 316 323 326 330 330 330 325 324 325 314 308 304 302 300 298 298 298 298 298 297 296 295 295 294 294 294 293
315 314 316 318 318 317 315 315 315 314 313 313 313 313 313 313 317 319 320 318 316 317 318 323 326 329 327 326 326 326 319 312 307 304 301 300 299 298 298 297 297 295 294 294 294 294 293 293 293
314 315 313 315 314 316 314 313 313 313 313 312 312 313 313 315 317 318 319 319 316 318 320 322 325 327 326 326 326 324 314 307 304 302 300 300 300 299 297 296 295 294 293 293 293 293 292 292 292
313 313 315 316 316 317 315 314 314 313 312 312 312 312 313 316 317 318 319 317 316 318 320 322 324 325 324 325 323 316 308 304 302 302 302 301 298 297 296 295 294 293 293 292 292 292 291 291 291
313 314 314 314 318 317 317 316 313 312 312 311 312 314 315 316 316 317 318 317 317 317 321 322 323 323 323 320 312 307 302 302 301 300 299 297 295 295 295 294 293 293 292 291 291 291 291 291 291
312 313 313 318 316 316 318 317 312 312 312 311 311 313 314 314 315 315 317 319 320 321 323 323 322 321 320 310 305 302 301 299 298 297 296 295 294 294 294 293 292 292 291 290 290 290 290 290 290

GFSSGP_925_thetae_030.txt.gz
Theta_e
322 328 326 326 330 330 330 329 326 326 326 324 327 327 326 327 338 347 341 341 348 348 347 345 340 341 342 340 335 332 333 335 336 340 340 337 334 333 330 329 328 327 330 332 331 330 331 331 329
322 328 325 328 330 331 329 328 327 324 325 325 325 325 325 331 339 338 341 340 348 349 347 345 340 339 341 338 337 335 333 334 338 337 333 331 330 330 330 329 326 326 327 329 329 327 324 326 327
322 327 326 329 328 329 328 327 326 324 325 325 326 324 326 336 336 338 341 340 348 349 347 344 339 339 340 336 334 332 335 338 339 336 331 329 329 331 331 331 326 326 326 327 327 325 322 323 322
326 326 324 325 327 326 325 325 325 325 325 326 326 328 330 335 336 340 339 340 345 347 348 342 341 340 338 335 334 335 333 336 337 332 328 329 330 330 332 331 325 322 326 328 329 327 326 325 326
325 326 327 325 325 324 324 324 325 325 324 326 326 326 334 335 338 339 338 340 344 347 347 341 341 340 339 336 334 330 330 338 334 331 331 331 332 332 332 331 328 323 325 328 332 332 331 331 331
327 324 326 327 326 324 322 322 324 324 323 324 325 325 335 335 338 339 338 340 344 348 346 343 342 341 340 337 335 330 332 337 334 331 334 333 331 332 333 332 328 324 326 330 331 331 331 331 331
326 327 326 324 324 323 322 322 324 324 323 323 324 326 332 336 339 340 338 338 342 347 347 344 342 341 341 337 334 330 331 332 334 333 333 330 330 332 335 332 330 328 330 330 331 331 331 330 329
323 326 328 325 323 323 322 322 323 324 323 323 324 325 331 337 339 340 339 339 340 343 346 344 343 342 341 337 334 330 329 331 331 332 331 330 330 334 333 331 329 328 329 330 330 330 329 326 325
324 328 327 326 324 323 321 321 323 323 323 323 324 324 327 337 339 339 339 339 339 341 343 344 344 343 342 339 335 332 330 327 329 330 329 329 329 333 332 334 326 328 329 330 330 329 326 323 322
326 329 329 324 322 323 322 322 323 323 322 322 323 325 327 329 337 338 339 339 339 341 341 344 344 344 343 340 336 334 332 327 325 329 329 329 331 333 334 332 326 329 329 330 329 324 320 319 319
324 326 323 322 321 325 325 324 323 324 324 323 321 324 324 328 331 336 337 339 339 339 340 340 344 344 341 339 338 336 335 331 326 325 328 328 330 330 330 324 328 329 329 325 322 319 318 318 316
323 323 323 323 322 324 325 324 324 322 323 322 322 323 325 325 326 329 332 336 338 339 339 340 340 342 341 339 338 337 336 334 330 328 328 327 328 328 327 329 329 329 327 324 319 317 314 311 308
322 322 321 321 322 322 323 324 324 323 321 321 321 322 323 325 325 326 328 330 332 338 339 340 341 341 341 340 338 338 337 335 334 332 330 328 326 326 327 331 329 325 323 318 317 314 311 308 306
320 321 321 321 320 321 322 322 321 320 319 320 321 321 320 321 323 325 326 327 327 332 338 339 340 342 343 341 339 339 337 335 335 333 332 328 326 328 330 327 326 325 321 317 312 310 307 305 305
321 323 322 321 321 322 321 322 322 320 319 318 318 318 319 319 321 321 324 325 327 327 333 338 339 342 342 343 341 340 338 336 336 335 332 328 329 330 329 327 325 324 320 311 310 307 306 305 304
323 323 325 321 321 321 321 323 320 319 319 319 319 318 317 318 319 320 321 323 324 327 327 333 338 340 342 342 342 341 339 337 336 335 333 329 331 331 329 325 323 321 314 309 307 306 305 303 303
322 324 323 323 321 321 321 322 321 319 320 320 318 318 318 318 318 319 320 320 323 324 327 328 334 339 340 341 341 341 340 338 336 335 333 331 332 331 327 324 323 319 309 306 304 304 303 302 301
324 324 322 322 321 320 319 320 318 318 317 317 319 318 318 318 318 320 320 320 321 323 325 327 327 336 339 340 341 340 340 338 335 335 333 332 332 328 324 322 321 310 307 305 304 303 302 301 300
323 321 319 318 318 317 317 317 316 316 315 316 316 317 317 317 317 320 321 322 322 321 321 323 326 326 329 334 339 339 339 337 336 335 333 333 332 326 322 321 310 308 306 304 303 302 301 301 299
319 319 318 317 316 315 315 315 314 314 314 314 315 315 315 315 316 316 318 321 321 322 322 322 325 325 324 327 334 338 338 337 336 336 333 332 329 322 320 316 309 306 305 303 302 302 301 299 298
317 318 317 316 315 314 314 315 315 315 314 314 314 314 314 314 314 314 315 317 319 320 321 322 323 324 324 325 330 337 338 335 333 329 327 323 320 318 316 311 307 305 304 302 302 301 301 299 298
318 316 316 316 316 316 313 317 314 313 313 313 311 311 312 313 313 313 313 313 315 317 320 321 322 324 325 326 333 337 332 327 324 321 319 317 314 312 310 307 306 303 303 302 301 300 299 299 298
316 314 314 315 315 314 314 314 314 313 313 313 312 312 312 310 311 311 311 313 315 315 317 320 321 323 324 327 335 335 327 325 319 316 314 311 306 307 306 305 304 303 302 300 299 298 298 296 296
313 314 314 314 315 316 314 315 313 311 312 312 311 312 311 312 313 312 313 315 314 315 314 315 322 323 326 331 335 331 326 319 314 311 307 305 304 303 303 303 302 301 301 299 298 297 296 295 294
315 315 315 317 317 313 313 314 312 311 312 312 311 312 311 311 312 314 315 315 315 314 315 314 320 324 326 332 334 329 324 319 314 309 304 302 301 301 301 301 300 300 299 297 297 296 295 294 294
315 315 314 317 317 316 312 316 311 312 311 311 311 311 311 310 311 315 316 315 317 317 315 315 321 325 329 333 332 326 322 315 309 308 303 302 301 301 300 300 299 299 297 296 296 295 294 293 293
314 314 312 314 312 311 311 310 310 311 311 311 309 310 309 309 313 316 315 315 316 316 316 316 320 325 330 331 327 324 320 311 307 305 303 302 302 300 299 298 297 296 295 295 294 294 293 292 292
312 312 315 314 310 314 312 311 312 312 310 309 308 310 309 310 313 313 314 314 316 316 317 317 322 325 329 329 326 319 314 309 306 305 303 302 300 299 298 297 296 294 294 294 293 293 292 291 291
313 314 314 313 316 314 314 313 312 311 310 311 309 311 312 314 314 312 313 315 316 318 317 319 322 326 326 326 318 312 308 306 304 303 301 300 299 298 297 295 294 293 293 292 292 292 291 291 291
312 312 311 310 310 312 312 314 312 310 311 309 308 310 312 314 312 312 313 314 316 319 320 321 322 324 323 313 308 307 304 302 301 300 298 298 297 296 295 294 293 292 292 291 291 290 290 290 290

GFSSGP_925_thetae_033.txt.gz
Theta_e
321 323 328 326 324 323 326 328 325 322 324 322 323 323 324 326 334 341 338 340 344 344 345 344 342 341 341 338 332 330 331 337 339 340 339 337 334 332 329 328 328 332 333 333 333 334 333 332 328
321 322 325 320 325 328 326 323 325 320 323 322 323 323 323 341 337 338 344 344 345 343 345 342 339 338 334 329 331 331 332 335 340 339 336 334 332 331 328 327 327 328 331 331 330 329 327 327 327
321 325 321 323 323 326 326 323 322 322 322 323 324 322 324 337 336 338 343 348 346 343 343 341 338 336 333 332 332 330 334 339 335 333 331 331 331 331 330 327 327 327 328 328 328 326 322 321 323
327 321 318 321 324 323 323 322 322 323 322 323 324 325 330 335 336 340 345 348 348 345 343 339 338 337 335 335 331 335 338 339 335 330 328 330 332 333 332 327 327 329 330 330 330 326 324 325 325
325 320 322 322 321 320 319 320 320 323 322 323 324 325 333 337 340 339 344 349 348 346 343 339 338 338 335 333 332 329 338 338 334 329 331 331 331 332 334 328 322 324 326 332 332 332 330 329 330
323 319 323 327 323 321 318 319 319 322 322 322 323 324 334 338 338 339 342 346 346 346 341 340 340 339 337 334 331 326 338 335 331 331 332 333 334 333 334 330 324 325 328 330 331 330 330 330 329
322 320 322 322 321 320 321 319 319 320 322 321 321 324 332 335 338 338 339 345 346 346 341 341 340 340 338 335 331 325 335 335 330 333 332 330 330 331 335 330 327 328 328 329 329 329 329 328 327
318 321 326 322 323 321 318 319 320 319 320 321 322 324 338 336 339 338 338 347 347 345 343 342 341 340 339 335 331 327 327 334 332 331 329 330 330 332 334 330 326 326 328 329 329 329 327 324 322
320 323 324 325 324 323 319 320 321 321 321 321 320 325 331 338 339 338 337 344 347 346 344 342 342 341 340 335 332 329 328 328 332 331 329 329 332 333 332 330 324 327 329 329 329 328 323 322 320
320 324 325 322 321 320 320 322 320 321 321 321 321 324 332 338 338 337 337 337 341 345 344 341 341 341 341 337 333 331 328 329 329 329 329 329 331 332 331 332 325 328 329 329 328 321 320 319 318
320 324 324 324 321 320 323 323 321 321 321 319 320 322 324 331 336 336 337 338 340 341 344 343 342 341 341 339 335 332 330 325 326 328 329 329 330 333 333 331 327 329 329 328 320 319 318 316 313
321 321 321 322 321 321 323 322 323 322 321 319 320 320 322 323 328 333 336 338 338 340 340 344 343 343 342 340 337 333 331 328 322 322 326 327 330 332 333 325 327 329 326 323 319 317 315 311 308
320 320 320 319 319 319 320 322 322 321 319 318 317 318 320 321 322 328 332 335 338 339 340 340 344 344 342 339 337 336 335 332 327 327 327 326 329 329 329 327 329 328 325 320 316 314 311 309 306
318 319 320 319 319 319 320 319 320 320 318 316 316 316 316 317 319 323 323 325 328 338 339 339 339 342 342 340 338 337 336 335 332 330 328 327 327 327 326 328 330 324 323 317 315 313 310 306 305
319 321 320 320 320 320 319 320 319 317 316 317 315 314 315 315 318 319 323 323 324 327 338 339 340 340 341 340 339 337 337 337 334 332 330 328 327 326 326 330 326 324 322 316 312 310 306 305 304
321 321 324 320 320 320 319 321 319 317 316 317 317 317 315 315 315 319 320 321 322 323 326 338 340 341 341 341 340 339 337 336 335 334 332 330 326 326 328 327 326 325 319 312 311 308 306 304 303
321 322 322 322 318 320 320 321 319 317 316 315 315 315 316 316 315 317 319 320 320 321 322 335 339 340 342 342 342 340 338 337 335 335 334 329 328 329 329 329 326 324 315 308 309 306 304 303 302
323 322 320 321 319 319 319 318 317 316 314 314 312 314 313 314 315 317 318 319 320 320 320 323 337 339 341 342 342 341 339 337 336 335 334 330 329 330 330 329 325 320 311 309 306 305 303 302 301
321 322 318 316 315 315 315 314 313 312 311 312 314 312 313 315 315 317 318 318 319 319 320 320 325 338 340 340 340 340 340 338 336 335 334 331 330 331 331 327 322 314 312 308 305 304 303 301 301
320 318 316 315 314 314 313 314 313 312 312 312 313 311 311 312 312 313 316 317 318 320 320 320 321 333 338 339 340 340 339 338 337 335 334 332 330 331 330 325 318 310 308 304 304 304 302 301 299
316 316 316 316 313 312 311 312 311 311 311 311 311 312 312 312 313 310 310 315 317 318 320 321 321 321 333 336 338 338 338 336 335 333 334 332 331 330 328 323 315 310 308 305 304 304 304 301 298
317 313 314 315 313 314 311 314 310 311 310 310 309 308 310 311 310 309 309 310 313 315 317 319 321 321 322 327 333 337 335 333 332 332 332 331 330 327 323 317 311 309 306 304 304 303 302 302 299
315 313 313 313 313 310 311 311 310 309 310 310 308 307 306 309 310 309 309 311 313 314 314 315 319 320 321 323 325 332 334 333 331 326 325 325 321 321 319 309 308 307 304 304 303 301 301 300 299
312 312 312 312 311 306 310 311 310 310 310 311 309 308 309 307 307 308 311 313 313 314 313 313 315 319 320 321 325 329 333 330 323 319 316 317 316 311 308 307 307 305 303 303 302 301 299 297 296
313 310 305 308 314 310 311 312 310 309 309 309 308 308 310 308 307 311 314 313 315 316 317 317 313 315 318 321 327 331 332 331 326 319 312 310 308 306 305 305 304 304 302 301 300 299 298 296 295
313 311 306 312 313 313 310 314 312 310 310 308 309 308 308 307 307 312 313 313 314 316 316 316 316 314 315 322 329 330 331 323 321 315 312 308 306 305 304 304 304 302 300 299 298 297 296 295 294
314 310 310 311 309 303 309 307 307 308 308 306 306 306 305 305 308 311 312 312 314 315 316 316 315 314 317 328 329 327 324 322 323 315 312 308 304 303 303 303 301 300 298 298 297 296 295 293 293
310 310 311 304 305 311 309 309 310 309 309 308 307 308 310 310 312 311 311 312 313 314 317 317 316 314 320 329 327 323 319 322 319 313 308 306 304 301 301 301 299 299 296 296 295 294 293 292 292
312 313 312 310 307 310 313 311 307 310 309 308 307 307 309 312 311 310 310 313 314 314 317 319 318 316 323 325 322 319 317 317 312 309 307 305 301 300 300 299 298 297 295 294 293 293 292 291 291
309 310 309 306 305 308 306 312 310 309 308 309 310 311 312 311 311 309 310 312 313 314 316 320 318 322 325 322 316 313 312 309 308 305 304 302 299 299 298 298 295 294 294 293 292 292 291 290 291

GFSSGP_925_thetae_036.txt.gz
Theta_e
324 321 323 323 322 321 325 327 325 325 321 322 322 323 324 328 331 335 338 342 344 344 342 342 342 342 342 342 339 339 339 340 340 340 338 336 333 331 328 329 334 334 336 337 338 338 337 333 329
323 321 324 318 324 326 324 322 324 322 321 319 321 321 324 340 336 341 343 344 342 341 342 342 341 341 340 336 331 329 336 339 339 339 338 335 333 329 328 328 332 333 333 333 333 333 332 328 323
322 325 320 322 322 326 325 322 322 320 319 321 323 321 328 337 336 341 342 344 342 342 342 341 341 338 335 333 332 332 333 340 339 338 335 333 331 328 328 328 329 331 330 329 329 327 323 322 326
325 321 316 322 326 322 322 321 320 319 319 322 322 324 331 335 337 339 343 344 343 343 341 340 339 334 332 331 328 333 338 339 336 331 332 332 332 330 328 328 328 329 329 329 328 322 323 323 325
324 316 321 322 322 319 318 319 319 320 319 322 323 324 334 337 337 343 345 345 342 343 339 339 337 334 332 330 330 334 340 336 333 331 332 333 333 333 329 328 329 330 331 331 330 328 328 329 329
322 317 323 324 321 320 317 316 318 318 318 321 323 329 333 336 338 346 347 346 342 341 339 337 337 335 333 332 332 337 338 335 331 330 332 333 333 334 330 326 328 330 332 332 333 330 329 329 328
321 318 323 321 322 321 320 317 318 318 318 320 319 327 332 334 337 346 347 347 345 342 339 339 338 337 334 333 327 336 338 334 328 331 332 333 333 333 333 327 326 330 332 332 331 330 329 328 326
316 319 323 319 321 320 318 319 317 317 318 319 318 336 338 334 337 340 346 346 345 344 340 339 339 338 336 334 327 331 337 331 329 330 332 331 331 333 333 329 326 330 330 329 330 329 326 323 320
316 320 323 324 321 320 319 319 318 319 319 320 320 328 332 337 337 340 345 345 345 344 341 340 340 339 337 334 329 329 337 332 330 329 329 329 330 331 333 329 325 328 329 329 329 327 322 320 319
319 321 322 320 321 322 319 322 321 318 320 320 325 327 336 337 337 335 343 344 344 343 343 342 340 340 339 335 331 329 332 334 332 331 329 329 332 332 331 329 323 327 329 329 328 323 320 320 319
318 322 321 323 322 321 322 321 320 321 320 318 321 328 330 334 335 335 337 343 345 344 343 342 341 340 339 336 332 329 328 328 331 331 329 329 331 332 330 329 325 328 329 328 323 319 318 317 314
321 319 321 321 321 320 321 321 322 321 320 319 319 318 320 324 325 333 335 337 342 345 344 342 341 340 340 339 334 331 328 327 328 329 329 329 331 332 331 331 326 328 328 327 319 318 315 311 308
319 319 319 319 319 318 317 320 320 320 318 317 316 317 318 317 321 331 335 337 339 341 344 343 341 340 340 340 337 333 330 328 324 325 328 328 329 331 332 330 325 328 325 322 319 316 312 309 307
318 318 319 319 319 318 319 318 318 319 317 316 316 315 314 316 317 320 323 332 335 338 339 343 343 342 341 341 338 336 333 330 327 321 321 326 328 330 332 328 325 329 326 320 317 313 310 308 305
319 320 319 319 319 320 319 320 318 317 316 316 315 314 314 313 316 316 319 320 323 329 338 339 342 343 342 341 339 337 336 335 332 325 325 326 326 329 330 327 328 328 323 319 315 311 309 306 304
320 319 322 319 319 318 319 321 318 315 315 315 314 313 313 314 314 317 318 318 320 320 324 336 339 342 343 341 340 338 337 336 335 332 329 328 326 327 327 326 328 327 320 316 313 311 308 305 303
320 321 321 321 318 319 318 321 318 317 315 315 313 313 313 313 314 314 317 318 319 319 319 322 337 340 340 341 340 338 338 336 336 335 332 329 328 327 326 326 329 324 319 315 313 310 306 304 303
322 321 319 320 318 316 318 318 317 315 315 314 312 312 312 313 314 315 315 317 318 319 319 318 327 338 339 339 339 338 338 337 336 336 334 331 329 327 325 327 327 322 317 314 310 308 304 304 303
319 322 321 316 315 313 313 312 312 311 310 310 311 311 311 312 312 314 316 316 316 317 318 318 319 336 339 339 338 338 337 337 336 336 334 333 331 327 326 327 325 321 319 316 309 305 304 302 302
322 318 317 314 314 314 312 312 311 311 312 311 312 312 312 311 311 309 314 316 317 318 318 318 317 321 338 339 338 338 338 338 337 336 334 333 332 328 328 327 325 321 318 310 308 305 304 302 300
317 316 315 315 312 311 310 312 310 309 309 309 310 310 310 310 311 310 308 312 315 315 317 318 318 317 328 338 338 338 337 335 334 334 333 333 332 329 329 328 327 322 317 312 308 305 306 303 299
317 313 314 314 313 314 310 314 309 309 308 308 306 306 307 308 308 308 309 309 312 314 315 316 317 319 321 334 338 336 335 333 334 334 334 332 330 329 329 329 325 322 317 313 308 304 305 305 301
315 312 312 312 311 309 310 311 309 307 310 308 307 306 305 304 306 307 306 308 311 312 313 314 314 315 318 322 335 337 335 334 334 333 332 331 328 326 328 327 323 320 316 311 307 304 304 304 302
311 311 309 309 308 305 308 310 308 308 309 310 308 306 304 306 305 305 307 310 310 312 313 313 313 312 314 317 325 334 334 333 332 331 326 325 323 322 324 323 319 315 314 308 305 304 303 302 302
309 308 306 305 310 310 309 310 308 308 307 308 307 306 305 306 306 306 310 312 314 315 315 315 316 316 315 314 318 323 333 334 332 332 325 320 319 317 318 317 312 308 310 305 303 303 301 300 299
312 309 306 309 311 311 309 313 309 307 307 305 305 304 304 304 302 306 310 311 313 314 314 315 315 315 316 316 315 321 327 331 328 328 325 322 317 315 314 309 307 306 305 303 302 300 298 297 297
313 309 308 309 307 303 308 306 304 306 306 306 305 308 309 308 304 310 311 311 312 313 314 316 316 317 316 316 315 321 326 325 326 324 322 319 316 314 308 306 307 305 303 302 299 298 297 296 295
311 309 308 300 300 308 307 307 307 307 309 307 306 306 306 308 308 309 309 310 312 312 313 316 318 318 318 314 316 323 325 323 322 321 317 316 313 311 307 305 305 302 302 299 297 297 295 294 293
311 311 310 307 304 307 311 310 304 308 309 308 306 305 306 308 308 307 307 310 312 312 313 314 316 318 319 316 322 323 320 319 317 315 313 311 309 307 304 303 301 301 299 296 296 295 295 292 292
309 309 308 303 302 305 304 311 307 306 307 306 309 309 310 312 313 312 311 308 311 312 313 316 317 319 319 320 322 318 316 316 314 311 311 309 306 303 300 299 299 297 296 295 299 294 292 291 291

GFSSGP_925_thetae_039.txt.gz
Theta_e
324 322 321 321 321 321 325 325 323 324 324 321 319 321 324 325 330 331 337 344 344 344 343 342 342 343 344 343 343 341 342 341 341 338 336 335 333 329 330 335 336 337 339 340 340 340 337 335 331
323 321 322 316 321 323 321 321 323 321 321 318 319 320 328 337 336 340 342 343 344 342 341 341 341 342 343 343 341 340 340 340 340 339 337 335 332 329 329 333 332 334 335 336 336 334 333 330 321
322 324 319 321 321 323 321 320 320 320 316 319 321 320 326 334 335 340 341 343 344 342 341 341 341 341 342 341 340 340 340 340 339 339 337 334 330 328 328 331 332 332 333 332 332 331 329 323 320
324 321 316 322 325 322 321 321 318 318 319 317 321 330 331 334 337 340 342 344 343 342 341 340 341 340 339 336 335 337 339 339 339 338 335 333 329 329 328 329 330 330 329 329 329 320 317 321 323
323 315 321 323 323 320 318 318 317 318 318 317 318 325 332 335 337 339 344 344 342 342 341 340 340 338 334 333 332 333 338 340 337 334 334 332 331 329 329 329 329 330 330 330 326 324 324 327 328
321 316 321 323 321 318 317 316 317 317 316 316 321 329 332 333 341 344 344 344 342 342 340 340 337 333 332 330 330 334 339 337 334 332 332 333 333 330 329 328 328 331 332 332 332 330 329 329 328
321 320 323 320 319 319 318 316 318 318 316 317 318 332 332 333 343 345 344 344 343 341 339 339 335 333 332 329 330 337 337 334 328 331 333 334 333 332 328 325 328 331 332 332 333 331 329 328 326
316 318 321 319 320 319 318 316 317 316 318 315 321 330 336 332 342 346 345 344 343 341 338 336 336 335 333 332 331 336 337 333 326 330 332 332 332 332 330 324 327 332 332 331 331 331 326 324 321
314 320 322 320 319 319 318 320 319 317 317 318 318 328 329 335 342 346 345 344 344 342 339 337 337 336 334 333 328 335 338 334 328 330 331 332 332 333 332 327 325 329 331 330 331 328 322 319 318
318 319 321 319 318 321 319 320 320 320 317 318 323 330 333 334 341 343 343 344 342 343 343 343 338 338 336 335 330 328 337 333 329 328 330 330 330 330 332 329 324 328 329 329 329 325 321 320 317
318 320 319 321 321 321 320 319 320 321 320 318 318 321 324 332 333 342 343 343 343 343 342 346 339 339 338 336 331 326 336 334 330 329 329 329 330 331 333 330 326 328 329 329 327 321 319 318 316
321 319 320 320 321 320 320 319 321 320 319 319 318 316 317 327 329 332 341 343 343 343 343 344 340 339 339 337 333 328 328 335 333 331 330 329 332 333 333 330 324 327 328 328 323 319 317 314 310
319 319 319 319 319 318 317 318 318 319 317 316 316 315 315 315 316 325 334 339 342 343 342 342 341 340 340 338 335 331 328 327 328 330 331 329 330 332 331 330 326 327 328 328 319 317 314 310 308
318 318 319 318 318 318 319 318 317 317 315 316 315 315 314 313 314 316 324 333 337 343 343 343 342 341 340 339 338 334 330 328 326 326 328 329 328 331 332 331 329 327 328 324 319 317 313 309 306
318 320 319 318 319 319 317 319 317 316 315 315 315 312 313 312 314 314 317 321 333 336 341 343 343 342 341 340 339 338 335 331 328 325 323 328 328 328 330 331 330 325 328 323 318 314 310 308 305
319 318 321 318 318 317 318 320 316 315 314 314 313 312 312 312 313 316 317 317 318 323 329 337 341 342 341 340 340 340 337 333 331 329 324 322 326 328 328 329 330 326 328 322 316 312 309 307 304
318 319 321 320 317 318 317 319 317 314 314 314 313 313 311 312 311 314 316 317 317 317 318 322 334 341 341 341 340 340 338 335 334 333 330 323 322 324 327 329 329 327 327 319 314 311 308 306 303
322 320 318 319 317 316 317 316 316 315 314 313 312 312 312 312 312 313 314 316 317 317 316 317 320 333 339 341 339 338 337 335 335 335 333 330 327 326 326 327 327 326 325 317 312 310 308 305 303
317 320 320 318 315 313 313 312 311 311 309 308 309 310 311 311 311 311 313 314 315 316 316 315 316 321 335 339 338 337 336 336 336 335 335 334 331 328 327 326 325 325 326 320 314 308 307 303 302
323 321 319 315 313 313 311 311 311 311 311 311 311 311 311 311 309 308 311 313 314 315 317 316 315 318 329 337 337 337 336 336 337 336 335 335 335 331 328 326 325 326 324 317 311 310 305 302 301
323 318 315 316 312 310 309 310 309 308 308 308 309 310 310 310 310 310 308 310 312 313 314 316 317 315 320 335 337 336 336 335 335 334 334 334 334 333 330 327 325 326 324 318 313 311 309 303 300
317 312 314 313 313 315 310 314 310 309 308 307 305 304 306 306 306 307 307 307 309 310 312 314 314 315 316 327 336 336 335 333 335 334 335 334 333 332 330 327 325 326 323 317 315 312 309 305 302
316 311 312 311 310 309 310 310 310 306 308 307 306 305 304 303 302 303 304 306 309 309 310 311 312 313 314 317 335 336 335 334 334 334 333 334 333 330 330 328 326 324 322 317 315 312 307 305 305
311 309 307 308 307 305 308 309 309 307 308 304 305 305 302 301 302 302 304 306 308 310 311 311 311 312 312 313 320 335 334 334 333 333 331 332 330 328 326 326 325 323 321 317 314 312 307 305 305
308 308 305 304 306 308 308 309 309 307 307 306 305 303 303 303 304 301 305 308 311 313 314 315 315 314 314 313 313 318 330 333 333 332 330 325 325 324 325 323 323 322 320 317 313 307 304 304 302
311 309 305 307 308 309 308 312 309 306 306 305 307 308 306 306 306 307 308 309 311 312 312 312 313 313 313 314 315 314 316 329 332 332 328 328 326 326 324 321 321 319 315 314 309 304 302 301 299
312 307 307 307 304 302 308 305 302 305 305 305 305 304 304 305 305 307 307 309 311 312 311 312 314 315 315 314 315 314 315 319 326 329 328 326 325 323 323 321 319 314 310 307 303 301 299 297 296
310 308 308 300 302 307 305 306 306 306 306 306 305 304 304 304 305 306 306 308 311 311 312 311 313 315 315 316 316 315 315 318 322 325 326 323 320 317 316 313 311 308 305 303 301 299 296 296 295
311 310 307 306 304 307 310 308 303 307 306 306 305 305 307 310 312 311 308 309 310 311 310 312 311 314 315 317 317 317 317 321 323 323 321 319 317 313 311 306 306 305 303 300 298 296 295 295 295
308 308 307 301 302 302 306 309 306 305 307 306 307 311 314 315 311 308 308 309 307 308 309 312 314 313 315 317 318 319 319 319 318 316 313 311 310 308 306 305 303 300 298 296 296 296 296 297 294

GFSSGP_925_thetae_042.txt.gz
Theta_e
327 323 321 320 320 319 323 321 320 323 322 318 319 320 322 324 330 331 337 342 342 342 344 341 342 342 343 342 342 342 342 341 339 337 335 335 332 330 332 335 337 338 339 339 339 339 336 334 330
325 322 321 315 319 320 319 319 321 320 320 314 316 320 327 333 336 339 341 343 342 343 343 340 342 341 340 341 341 341 342 341 338 336 335 334 331 329 333 336 336 337 338 338 336 334 332 327 326
322 323 319 320 319 320 318 317 318 318 315 317 319 319 324 333 334 339 341 342 343 343 342 340 341 341 341 341 341 340 340 340 340 336 335 334 330 329 332 331 332 334 334 334 334 332 328 323 329
323 320 315 321 323 320 317 320 317 317 318 316 318 323 328 332 335 339 340 343 343 343 340 340 341 341 341 342 340 340 339 339 337 336 335 332 329 329 331 333 332 332 331 331 328 321 323 329 329
321 315 321 323 322 320 318 317 317 318 317 317 317 320 329 333 336 339 341 344 344 342 341 341 340 340 340 338 336 337 338 338 338 337 335 330 329 329 329 330 330 330 329 327 322 323 324 328 330
319 315 320 324 322 319 317 316 316 317 316 315 318 325 329 334 340 343 343 344 344 341 341 341 340 339 336 334 334 333 335 341 338 336 334 332 330 330 329 329 330 330 330 331 332 331 330 330 330
320 320 322 320 321 317 317 314 317 317 317 317 319 327 328 332 342 346 345 343 342 341 340 340 340 335 331 333 330 329 339 339 335 333 333 333 331 329 329 327 330 332 332 332 332 332 330 328 326
316 319 320 319 319 319 317 315 316 316 318 315 316 324 329 332 343 344 344 343 342 341 340 339 336 331 330 330 328 338 337 335 332 332 332 332 332 328 326 324 327 331 331 331 331 330 327 324 322
313 320 321 320 319 319 317 319 318 316 316 315 317 322 326 332 344 344 343 343 343 342 339 338 334 332 331 330 327 335 336 334 327 331 332 333 332 332 329 323 326 330 331 330 330 328 324 319 318
317 319 320 317 316 317 319 319 319 320 317 318 320 326 331 340 344 341 342 343 342 341 342 338 336 334 333 332 328 334 337 336 329 329 331 331 332 332 332 328 325 329 330 330 331 326 321 319 317
317 319 318 320 319 320 320 321 319 320 320 317 318 316 323 333 340 340 341 341 342 341 341 340 339 336 336 334 333 327 336 336 333 327 330 331 331 332 332 331 326 329 330 330 330 325 321 320 317
320 318 318 319 319 320 320 318 319 319 318 317 318 317 316 322 331 337 340 341 342 342 340 340 340 337 337 336 335 330 328 335 335 329 327 330 328 329 330 332 328 326 329 329 328 322 318 317 314
319 318 318 318 318 318 317 318 317 317 316 315 315 315 316 315 315 320 332 341 341 340 340 340 340 342 338 337 336 333 327 332 333 331 329 329 328 331 331 332 329 325 328 328 325 319 317 313 310
317 318 318 318 318 317 318 317 315 316 314 314 314 315 314 313 314 316 317 327 339 341 341 341 343 345 340 339 338 336 331 328 330 332 331 330 329 330 332 331 329 325 327 328 326 318 315 311 308
316 319 318 317 318 318 317 318 317 315 314 314 313 312 313 312 314 314 316 317 326 335 341 343 343 344 342 340 339 338 335 331 328 327 328 330 330 329 331 330 330 328 326 327 323 318 313 309 307
318 318 321 317 317 318 317 318 316 314 314 314 312 310 310 311 313 315 316 316 316 321 334 341 342 342 342 341 339 339 337 335 331 329 326 326 329 328 329 331 330 330 326 326 322 317 311 307 306
318 318 320 320 316 317 317 318 316 314 314 313 311 310 310 309 310 313 315 316 316 316 318 329 338 341 342 341 340 339 339 337 336 334 329 327 325 327 328 328 330 331 326 327 323 315 310 307 306
321 320 318 319 316 316 317 316 314 312 313 313 312 311 310 310 310 313 314 315 316 316 316 316 320 334 338 340 339 338 338 338 337 336 332 330 327 324 326 328 328 329 327 327 322 315 308 307 305
317 318 318 317 314 314 314 312 311 311 309 308 308 309 309 310 311 312 313 315 314 314 315 316 316 316 329 339 338 336 336 336 336 337 335 333 332 328 322 322 325 328 328 327 321 311 308 306 302
320 319 320 316 313 312 311 311 310 311 311 310 310 310 310 310 309 308 310 311 312 313 313 314 315 315 318 336 337 337 336 335 336 337 336 336 334 332 326 324 325 327 327 325 319 312 307 304 302
322 321 318 318 312 309 308 312 309 308 307 307 306 307 307 307 307 307 306 308 309 310 311 312 314 315 315 325 334 336 336 335 334 333 334 336 335 333 330 328 327 326 326 325 321 314 312 305 301
322 313 314 313 313 316 309 315 310 309 306 305 303 302 302 302 302 302 302 304 306 308 310 310 311 312 314 317 333 334 334 334 333 333 335 334 335 335 333 331 328 326 325 323 323 315 311 309 305
319 311 311 310 310 309 310 310 308 305 307 306 302 302 302 302 301 301 301 305 307 307 307 307 309 311 313 314 327 334 334 334 334 333 333 332 333 334 334 333 330 327 325 322 322 317 311 308 309
309 308 307 307 307 305 307 308 306 306 306 305 304 303 304 304 305 307 308 310 312 313 313 311 308 308 310 312 314 332 333 333 333 333 333 332 330 329 330 331 331 328 326 323 321 317 313 309 306
308 310 308 305 304 308 307 309 306 306 306 306 305 305 304 304 304 305 306 307 310 311 311 312 312 312 311 309 311 317 329 333 333 333 331 330 328 327 328 328 327 327 325 323 318 315 313 309 304
310 309 307 307 308 309 307 311 308 304 305 305 305 303 303 303 302 304 305 307 309 310 312 311 311 312 313 313 313 312 316 330 331 331 330 330 329 328 329 329 327 326 323 319 315 311 310 308 303
311 306 306 305 303 301 306 304 301 305 304 304 303 305 304 304 305 306 305 307 309 310 311 312 311 311 312 313 314 314 314 313 317 323 327 329 328 327 324 322 320 319 317 316 313 310 307 303 301
309 306 307 298 303 305 303 304 303 305 306 305 306 305 304 305 307 308 306 307 308 309 310 310 309 309 311 313 314 315 315 315 314 315 321 325 327 325 322 320 316 314 312 311 308 306 303 300 298
310 310 305 305 303 305 307 304 302 304 306 306 305 304 306 311 312 309 307 308 308 309 308 308 310 311 311 311 314 316 317 317 317 318 320 322 321 320 318 315 313 310 307 306 305 301 298 296 294
308 308 305 301 302 303 304 306 305 304 305 305 305 309 315 313 311 308 306 307 307 308 309 308 307 308 309 309 312 315 315 316 317 318 318 318 316 314 313 310 308 305 304 302 299 296 294 295 295

GFSSGP_925_thetae_045.txt.gz
Theta_e
324 323 321 320 326 324 325 323 320 323 323 319 318 321 324 324 334 338 337 342 340 344 346 344 343 342 342 343 344 343 342 341 339 336 335 335 333 333 334 337 337 337 337 338 338 338 336 332 328
325 322 320 320 325 324 323 320 323 322 321 317 316 320 327 332 336 340 342 342 340 344 344 345 340 343 342 341 341 342 341 340 338 335 334 334 331 331 336 337 338 339 340 339 336 332 330 327 329
323 322 324 325 322 324 322 318 320 319 318 318 320 320 323 331 335 340 340 342 342 343 343 341 340 341 339 340 341 341 341 339 337 335 333 334 330 332 336 335 336 337 336 334 332 331 329 329 331
322 320 318 324 326 322 319 319 318 319 319 317 317 321 327 332 334 338 341 342 344 344 342 340 341 340 340 341 341 340 340 340 336 335 334 332 330 332 331 331 333 334 332 331 330 327 329 331 332
319 319 324 325 324 321 319 318 318 320 318 318 317 321 326 332 336 339 342 343 344 344 341 340 341 341 341 341 340 339 339 339 336 334 335 330 330 331 333 332 331 330 330 328 325 329 330 332 332
322 318 324 327 324 321 319 318 317 318 317 318 318 322 328 334 339 345 346 344 343 343 340 341 341 341 341 340 338 338 337 337 335 336 334 331 330 330 331 331 331 330 330 329 331 332 332 331 328
323 323 325 323 324 322 318 316 318 318 318 319 318 323 327 333 341 343 343 345 344 341 340 341 340 340 339 335 330 332 334 339 337 335 333 331 330 330 330 331 331 331 332 332 332 331 331 327 325
319 321 322 320 322 322 317 316 316 317 318 315 318 323 325 331 341 341 341 342 343 341 340 340 340 339 335 333 329 327 334 341 337 333 332 332 327 326 327 327 331 332 331 331 331 331 328 324 323
314 324 323 323 319 320 316 317 318 316 318 316 317 322 327 331 340 340 340 340 340 341 340 339 340 337 330 330 326 328 337 337 334 331 332 332 332 329 327 326 328 330 331 330 331 329 325 320 319
320 323 322 318 318 318 318 319 320 320 319 319 321 319 333 338 340 340 339 339 340 341 342 340 338 334 332 331 327 334 336 335 332 331 333 333 332 332 330 324 326 330 331 329 332 326 321 318 316
317 321 318 319 317 318 320 320 318 320 320 319 319 320 327 336 340 340 339 340 340 340 339 341 339 335 334 333 330 330 336 336 335 327 330 332 331 332 332 330 325 329 330 330 331 325 321 319 317
320 318 318 319 320 320 321 319 319 319 320 317 318 317 316 334 336 339 338 339 340 340 339 339 339 336 335 334 333 329 332 337 335 331 327 330 331 332 332 332 328 326 330 329 329 326 321 318 316
319 318 318 319 318 318 317 318 319 318 317 316 315 316 317 317 319 330 338 339 339 340 340 339 339 337 336 336 335 334 329 333 336 335 328 328 329 330 329 330 331 325 328 329 328 325 318 316 313
318 318 318 318 318 317 318 317 316 317 314 315 315 317 316 316 317 315 316 328 339 340 340 340 339 339 339 338 337 336 335 329 329 333 333 328 327 328 328 330 332 329 326 328 327 323 318 314 311
316 319 318 318 317 318 317 318 318 316 315 316 316 314 315 315 315 315 316 316 318 332 340 340 340 339 339 340 338 337 337 335 329 328 332 331 329 328 328 331 332 330 324 327 327 321 316 312 309
319 318 321 317 317 317 317 318 316 314 315 316 315 314 312 313 313 314 315 315 316 316 324 336 339 340 339 339 342 339 338 337 334 330 329 331 330 330 329 330 331 329 327 326 327 322 315 310 308
318 320 319 319 317 317 318 318 316 314 314 315 314 313 312 312 312 313 314 314 315 315 315 319 334 339 340 341 341 340 339 338 337 335 331 329 329 329 329 329 330 330 329 326 326 320 316 311 307
322 319 319 318 315 316 317 318 316 313 311 313 313 313 313 312 313 314 315 315 316 315 316 316 316 332 338 340 340 338 337 337 337 336 335 333 330 327 328 328 328 330 330 328 325 321 314 309 308
317 318 319 317 313 314 315 314 313 312 311 311 311 311 311 312 310 310 311 312 312 313 314 315 315 315 330 339 338 338 335 334 335 337 336 336 335 331 327 326 328 328 330 330 326 322 311 307 305
318 318 318 316 312 312 312 312 312 312 312 311 311 310 310 310 309 308 307 307 308 309 311 313 313 314 315 329 335 335 335 334 335 334 334 335 336 334 331 327 326 327 327 327 327 324 310 306 305
320 320 317 319 312 309 310 314 311 309 307 306 304 303 304 306 305 304 305 305 304 305 307 309 310 312 313 315 330 335 335 334 333 332 333 333 335 335 334 332 328 324 325 326 327 324 316 305 303
324 314 314 313 315 318 309 319 311 308 306 304 305 305 305 305 305 306 307 309 308 310 309 308 308 309 310 312 326 333 332 332 332 332 331 333 332 333 333 333 331 325 323 324 326 325 318 310 306
319 312 311 310 311 311 310 313 310 305 307 305 306 305 306 306 306 308 308 309 310 311 311 311 311 308 308 309 313 330 332 331 332 332 332 331 331 331 331 331 332 328 325 324 324 323 317 312 308
309 309 307 307 308 315 308 309 307 307 307 305 305 305 305 305 306 307 308 308 309 311 312 312 311 311 311 308 310 321 331 331 332 332 331 331 331 331 329 329 329 328 327 326 325 322 319 315 308
310 315 315 311 311 317 307 309 309 305 306 306 306 306 305 304 307 308 309 308 309 309 310 311 312 312 310 312 311 309 314 330 331 331 331 330 328 327 328 329 328 326 326 323 321 318 317 314 309
311 312 315 313 311 310 307 312 309 304 303 305 305 304 304 306 307 309 308 308 308 308 309 309 310 310 310 311 313 313 312 311 324 329 329 329 328 328 327 326 326 328 326 323 317 315 313 312 309
311 312 305 306 303 308 307 305 302 303 304 305 306 307 307 308 309 309 309 308 308 308 308 307 308 309 309 311 312 313 313 313 313 313 320 327 328 328 328 325 322 321 320 318 314 312 309 309 307
309 306 311 305 309 310 303 303 304 303 306 306 307 307 306 309 312 311 309 308 308 307 309 309 308 309 310 310 311 313 314 315 316 315 314 316 321 324 325 323 320 319 317 315 312 309 307 306 305
310 310 306 305 304 307 306 304 302 305 306 306 306 306 308 313 311 310 308 308 307 306 305 305 305 305 306 307 309 311 313 314 315 316 317 317 318 319 320 321 319 316 314 312 309 307 306 304 301
308 308 305 307 305 304 305 307 303 302 304 304 305 306 313 311 309 307 306 306 306 303 302 303 303 303 303 304 307 309 312 313 314 313 314 315 315 316 317 317 315 312 309 307 306 304 300 298 294

GFSSGP_925_thetae_048.txt.gz
Theta_e
327 325 323 325 328 326 326 325 324 327 327 324 323 325 328 328 334 338 341 344 342 345 347 346 344 339 343 344 344 344 343 341 340 337 337 336 336 336 336 336 337 338 338 337 338 337 335 331 331
329 323 324 326 327 328 325 324 325 326 324 323 323 324 329 333 338 343 344 344 343 347 348 347 342 341 343 345 344 343 342 339 337 335 335 333 332 334 337 337 337 340 339 340 337 330 329 330 332
325 323 326 327 328 328 325 323 323 323 322 323 324 324 327 333 338 342 343 344 344 346 345 348 342 341 341 342 342 342 340 339 337 335 333 333 331 337 338 338 339 339 337 335 331 331 330 331 333
323 324 324 328 327 326 324 324 323 323 322 322 322 326 330 336 337 341 344 343 345 345 345 347 341 342 341 341 341 340 340 338 336 335 333 332 331 336 335 336 335 336 334 332 331 330 331 332 333
323 327 330 330 327 325 324 322 323 323 322 322 322 325 327 338 342 343 345 345 345 344 344 345 340 339 339 341 341 340 341 338 336 334 334 331 331 333 331 332 333 332 329 330 330 330 329 331 331
326 327 331 332 328 326 324 323 322 322 322 321 322 324 328 339 343 345 345 345 345 345 343 343 341 341 341 341 340 339 340 338 336 334 333 331 331 333 332 331 331 329 329 330 331 333 333 331 329
327 328 330 329 328 327 325 323 323 323 322 321 322 324 329 337 344 344 344 345 345 345 342 341 341 342 341 340 340 338 338 337 336 335 332 331 330 331 331 331 331 331 332 333 332 332 332 328 325
324 327 328 328 328 327 325 322 321 321 321 320 321 325 327 333 343 343 342 343 343 344 342 341 340 341 341 340 336 334 333 337 336 335 331 330 328 328 330 328 330 332 331 331 331 331 328 325 323
321 326 327 327 326 324 321 321 320 319 320 320 321 324 331 333 341 342 342 341 342 344 342 342 340 340 339 336 335 331 333 342 338 333 331 331 329 329 328 329 329 330 331 330 331 329 325 322 321
320 323 322 322 323 322 320 320 321 322 322 322 323 325 336 339 340 341 341 340 341 342 343 342 341 339 337 335 335 331 337 339 338 333 332 331 331 330 328 327 328 330 331 330 332 327 322 319 321
320 321 320 321 320 319 321 321 322 322 323 321 322 325 333 339 340 340 341 342 341 342 342 342 341 339 337 335 335 334 338 336 336 332 331 332 333 333 331 328 328 331 331 331 332 326 321 318 316
321 319 319 321 321 321 322 321 322 321 321 321 323 321 322 337 340 340 340 341 340 341 341 340 341 340 337 336 335 334 336 337 335 333 331 332 333 333 333 331 329 330 331 332 333 328 322 318 315
320 320 319 319 321 321 321 322 321 321 321 320 320 320 322 322 330 339 340 340 341 341 342 341 340 342 339 338 337 336 335 336 335 335 332 331 332 332 333 333 331 329 330 331 330 327 320 316 313
320 320 320 319 320 320 321 321 320 320 320 320 320 320 320 321 321 322 331 339 341 342 342 341 341 341 341 339 339 338 337 336 336 335 334 332 331 331 332 333 333 331 329 329 328 326 319 315 312
320 321 319 320 319 319 319 320 321 319 319 319 318 319 319 320 320 320 321 322 325 332 338 341 341 340 340 339 338 339 339 337 336 336 335 334 331 330 330 331 332 333 331 328 327 324 318 314 311
321 319 322 318 320 320 319 318 317 318 319 319 318 318 318 319 318 318 319 319 319 319 322 330 337 340 340 340 339 339 340 339 337 336 335 334 332 331 331 331 332 332 332 328 326 322 317 314 311
319 317 317 318 319 318 319 317 317 317 317 318 318 318 318 318 318 317 317 317 317 318 318 318 327 335 339 340 340 339 339 340 339 337 336 335 334 332 331 331 331 332 331 328 326 322 319 315 312
319 317 318 317 318 320 320 318 318 318 318 318 318 317 318 318 318 318 318 317 317 317 317 317 318 325 333 338 339 337 337 338 339 338 337 336 334 333 331 331 330 331 331 329 325 321 317 316 313
318 317 316 317 315 318 319 319 319 318 318 318 318 317 318 317 317 314 313 313 313 313 314 316 316 317 323 330 338 338 337 337 337 338 338 337 334 333 333 331 330 330 330 330 326 322 317 312 311
318 317 317 318 315 317 318 318 318 317 317 315 313 314 314 313 312 310 311 311 310 309 311 313 314 315 316 323 331 336 337 336 338 335 335 335 335 333 333 332 331 330 329 329 328 323 316 315 309
320 318 320 320 316 313 315 318 316 311 310 310 310 309 310 312 313 314 314 314 313 312 310 309 310 312 313 315 322 330 334 335 335 334 334 333 333 333 332 332 331 330 329 328 328 323 318 316 309
321 319 319 318 320 321 314 319 315 310 311 311 312 312 313 314 315 315 315 315 314 314 313 313 310 309 310 311 314 320 329 333 332 331 332 333 332 332 332 332 331 330 329 327 326 323 320 320 313
319 316 316 316 319 318 317 319 314 310 311 311 312 313 314 314 315 315 315 314 314 314 314 314 313 313 311 310 311 315 322 329 329 330 331 332 332 331 330 330 329 330 328 326 325 321 319 320 318
311 313 312 313 316 325 317 316 312 311 311 311 312 313 313 314 315 315 315 314 314 313 313 313 313 314 313 313 310 312 316 324 328 330 331 332 332 331 329 328 328 328 328 326 324 320 317 317 318
316 320 325 326 325 324 311 312 313 310 309 311 313 313 314 314 316 316 315 314 313 313 312 312 312 313 313 313 314 312 312 316 324 327 329 331 332 330 328 327 327 327 326 325 324 321 317 316 315
318 321 324 323 316 314 309 313 312 309 308 310 310 311 311 315 316 315 314 313 312 312 312 312 311 311 311 312 314 314 315 314 314 319 325 329 329 330 328 327 326 326 325 324 323 321 318 315 314
316 321 309 313 308 315 312 310 308 307 309 309 312 313 314 316 315 315 313 312 311 311 311 311 310 311 312 312 313 314 315 316 316 315 316 320 324 327 327 327 324 323 323 323 321 317 316 314 313
314 310 317 316 319 319 311 308 311 310 310 310 313 314 314 316 315 314 313 312 311 310 309 309 309 309 309 309 310 312 313 314 315 316 317 317 319 321 324 324 324 322 322 321 318 315 314 312 311
312 314 311 311 311 312 308 308 307 310 311 310 310 313 315 316 314 312 310 310 310 309 307 308 307 307 306 306 307 310 311 312 313 314 314 315 316 317 318 319 319 318 317 317 315 313 312 309 306
311 313 311 316 314 310 312 311 307 309 309 309 310 313 315 315 312 308 306 307 309 307 306 305 304 304 304 304 305 307 309 310 311 312 311 311 312 314 314 315 315 313 311 311 310 309 307 305 301

GFSSGP_925_thetae_051.txt.gz
Theta_e
327 329 325 326 329 328 330 327 325 327 326 326 326 326 327 328 333 343 343 345 343 347 348 347 344 342 341 345 345 344 343 342 341 339 338 338 338 337 337 333 339 337 339 338 339 336 333 333 333
329 327 325 328 329 332 329 327 326 326 326 325 326 326 327 330 338 345 346 345 344 347 348 347 344 340 343 346 344 343 342 340 336 334 336 334 333 336 338 337 340 339 339 339 334 330 331 333 333
329 327 328 328 329 329 329 326 324 326 325 326 327 327 329 335 340 343 346 343 345 347 347 348 341 339 344 344 343 343 341 339 337 334 333 332 334 338 339 340 340 340 338 332 329 329 331 333 333
327 325 327 330 329 328 327 325 323 325 325 325 325 328 331 337 339 343 344 343 346 346 347 347 341 341 343 344 343 342 339 338 336 334 332 330 336 338 337 338 338 336 333 331 329 332 332 331 332
327 328 331 331 329 327 326 324 324 324 325 325 324 327 331 342 343 344 344 343 345 344 348 347 341 341 342 342 342 340 339 337 336 334 332 331 335 335 336 334 334 333 330 327 330 331 330 331 331
329 329 332 333 330 327 326 324 324 324 324 323 324 326 335 342 345 346 345 345 345 344 345 345 342 340 339 341 341 340 339 338 336 334 333 331 333 334 333 332 332 331 328 328 331 333 333 332 329
328 331 333 332 330 329 326 325 324 324 324 324 323 326 334 343 346 346 346 345 345 344 343 343 342 340 340 341 341 340 338 338 336 334 332 332 332 334 332 330 331 330 331 332 333 332 331 328 326
327 330 332 331 329 329 327 325 324 324 324 323 322 325 330 337 345 345 345 346 345 345 342 341 341 341 341 342 339 339 339 338 334 335 330 329 328 327 328 329 329 328 329 330 331 331 328 325 324
323 329 331 330 329 328 326 326 324 322 322 321 321 324 333 334 343 343 343 343 345 345 343 341 340 341 340 340 340 337 335 334 336 335 330 327 329 329 324 329 324 328 329 330 331 330 326 323 322
324 329 328 326 326 326 326 324 323 322 322 321 322 325 335 336 341 343 342 342 343 345 343 342 340 340 339 337 337 334 334 338 337 336 333 329 329 328 328 330 327 330 330 330 331 329 324 322 324
321 322 323 323 321 322 323 322 321 323 322 322 322 324 331 337 340 341 342 343 342 342 343 343 342 340 338 335 335 333 333 338 339 336 333 330 332 331 329 329 328 331 330 332 331 330 323 321 320
322 320 319 321 320 321 321 321 321 322 322 322 322 324 324 334 338 340 341 342 343 342 342 342 343 341 339 336 335 334 337 337 336 336 332 332 333 334 331 330 328 330 331 332 333 332 326 322 319
321 320 320 320 321 321 319 320 321 322 322 322 323 322 322 323 329 338 339 341 341 342 343 341 341 342 341 338 336 335 335 338 337 335 333 332 333 333 334 332 331 329 331 331 333 332 327 323 319
320 320 320 320 321 321 322 321 322 322 322 321 321 321 321 321 323 325 335 340 340 341 342 342 341 341 343 340 339 339 338 338 338 337 335 332 332 333 333 334 333 331 329 330 331 330 327 321 318
320 320 320 320 320 321 321 321 322 321 321 321 320 320 320 319 319 322 324 327 334 338 341 342 342 342 342 342 341 340 340 339 338 339 337 335 332 331 332 332 333 333 332 330 330 329 326 321 317
320 321 322 319 320 319 319 320 320 320 320 320 319 319 318 318 318 318 321 323 324 324 326 333 339 342 342 342 341 340 341 341 339 339 338 337 335 332 331 331 332 332 332 332 330 328 325 320 316
321 319 320 319 318 320 320 318 318 318 318 319 319 319 318 318 318 318 317 319 320 321 322 322 324 332 339 341 341 339 339 341 341 340 339 338 337 335 332 331 331 331 332 331 330 328 324 320 318
319 318 317 316 320 318 319 319 318 318 318 318 318 318 318 318 318 317 318 318 319 319 319 320 320 321 326 333 337 340 338 338 340 341 340 339 338 336 334 333 332 331 332 331 331 328 325 322 319
316 317 315 316 318 319 318 318 318 318 318 318 318 317 317 317 317 318 317 316 315 316 317 318 319 319 320 324 330 340 339 337 336 339 341 340 338 337 336 334 333 332 331 332 331 329 326 321 319
317 317 317 318 317 317 316 318 318 318 317 317 318 318 318 317 317 314 313 314 313 313 313 314 316 318 319 319 322 329 338 337 336 336 338 340 339 338 336 336 334 333 332 332 331 329 326 321 318
316 317 316 318 318 317 318 318 317 314 314 313 312 312 312 313 314 315 316 316 316 316 315 313 312 313 315 317 318 321 329 335 337 337 336 336 336 338 337 335 335 334 332 332 331 330 326 322 317
318 317 318 320 319 317 317 315 319 314 313 313 314 314 314 315 316 316 316 316 316 316 317 316 315 313 312 313 314 316 321 329 333 335 335 334 334 334 334 335 334 334 333 332 331 331 328 322 319
320 320 320 320 320 321 319 320 317 313 314 313 314 315 315 316 316 317 317 316 316 316 316 316 316 316 315 313 312 314 315 318 323 329 331 331 332 334 333 332 332 332 333 332 331 330 329 323 322
317 318 318 318 320 326 322 318 315 313 313 313 314 315 315 316 317 317 317 316 316 316 316 315 315 315 315 315 315 313 313 315 318 324 329 330 331 332 333 331 329 330 330 331 330 330 328 324 323
317 322 326 327 328 325 315 317 317 313 313 313 314 315 316 316 317 317 317 316 315 314 314 314 314 314 314 314 315 316 315 314 315 318 323 327 329 331 332 330 328 327 327 328 329 328 327 324 322
320 322 326 324 325 322 311 315 315 312 312 313 313 315 315 317 317 317 316 315 314 313 313 314 313 313 313 314 315 315 316 316 316 315 316 321 326 327 329 331 328 326 326 327 327 327 326 323 321
317 323 313 316 312 316 314 312 311 310 310 312 315 315 317 317 317 316 315 315 314 312 312 312 312 312 312 312 313 315 315 316 317 317 317 317 318 322 325 327 328 327 324 325 326 325 324 323 319
319 317 322 321 324 320 316 313 313 310 311 313 315 315 316 317 317 315 314 313 313 311 311 311 310 310 310 310 310 312 313 314 315 316 317 318 319 319 319 322 324 324 323 323 323 324 322 320 318
315 317 315 316 315 319 314 311 309 311 312 312 311 314 316 318 316 313 311 310 312 311 310 309 308 308 307 307 308 309 311 312 313 314 314 314 314 315 317 318 319 319 319 319 320 320 318 317 314
314 316 316 320 319 314 315 313 308 311 312 312 311 315 316 317 314 311 309 309 310 309 308 307 306 306 305 305 305 306 307 307 308 308 309 310 310 311 312 313 315 316 315 315 314 313 313 312 310

GFSSGP_925_thetae_054.txt.gz
Theta_e
322 328 330 327 331 330 331 328 325 326 326 325 325 325 325 326 344 353 343 343 349 346 345 343 343 344 343 345 345 343 342 340 340 339 339 338 338 334 335 335 338 339 338 340 337 334 334 334 334
326 330 327 327 331 332 329 327 326 324 325 324 325 325 325 340 345 343 345 344 348 347 344 343 343 342 343 344 344 342 341 340 335 333 336 335 334 338 339 339 338 339 340 338 330 332 333 332 333
325 330 329 329 330 330 330 327 324 324 324 324 326 326 328 340 341 345 346 343 347 348 347 346 344 340 345 343 342 341 339 337 335 333 333 333 338 341 341 341 339 340 337 329 327 329 332 333 333
326 328 326 330 330 328 326 324 323 324 325 324 325 328 336 341 342 345 343 344 347 347 348 345 340 341 342 342 341 341 339 337 335 333 330 333 339 339 341 339 339 337 331 329 327 330 332 333 332
327 327 330 330 331 328 325 323 323 324 324 324 324 328 341 343 344 343 344 346 346 349 348 342 339 342 345 343 341 339 339 337 335 333 330 333 338 337 335 336 336 332 329 327 329 332 331 331 328
331 328 334 333 330 328 325 322 323 323 323 323 323 329 342 344 345 344 343 345 345 349 348 342 339 341 342 342 341 340 338 337 335 333 331 332 335 336 333 333 334 332 327 327 329 331 330 328 328
330 331 334 332 330 329 327 323 322 322 323 323 323 325 343 345 346 345 344 345 344 346 346 342 341 340 339 340 340 340 338 337 336 333 330 330 334 333 333 331 332 330 327 326 330 330 328 327 325
327 330 333 332 331 331 327 324 322 322 322 321 321 328 340 344 345 346 346 345 345 343 344 342 341 339 339 340 340 340 338 338 335 334 332 325 326 332 331 330 331 328 326 327 330 329 327 325 324
324 330 333 333 331 330 327 325 323 322 322 321 320 331 334 344 344 343 344 345 346 344 342 342 341 340 339 340 339 338 337 338 334 335 331 323 322 320 319 329 327 325 327 330 330 329 326 324 322
324 328 330 328 327 326 326 325 323 322 321 320 320 330 334 341 343 342 342 342 344 345 342 341 342 342 342 341 341 338 337 333 335 335 333 323 329 328 326 327 327 326 329 330 330 329 325 322 322
322 325 326 326 323 321 325 323 323 321 322 320 320 322 334 338 339 342 342 341 342 343 343 342 340 340 339 337 337 334 334 335 336 336 334 328 329 328 328 329 327 327 331 330 330 330 325 321 324
321 321 321 323 321 321 321 322 322 320 322 321 321 322 327 335 336 338 341 342 342 342 342 343 343 340 339 336 335 334 333 336 336 338 334 330 331 330 330 329 326 325 329 331 331 330 328 321 320
322 320 319 320 321 320 320 320 319 320 321 321 321 321 321 322 328 337 338 340 342 342 341 341 342 342 340 337 335 335 333 339 339 338 335 332 332 333 333 330 329 327 331 330 332 331 330 324 321
320 320 320 319 321 321 319 319 318 320 320 320 321 321 319 320 321 324 337 339 340 341 342 342 341 341 342 339 337 335 335 336 337 336 335 332 332 333 334 333 331 329 329 331 332 333 331 325 322
320 320 320 320 320 321 320 321 320 319 320 320 319 318 318 318 319 319 321 327 336 340 341 342 342 341 341 342 339 338 338 337 338 338 336 334 332 333 333 333 334 332 330 329 330 331 330 327 321
321 320 322 319 320 320 320 321 319 319 319 319 318 316 316 316 318 318 319 322 324 326 326 339 342 341 341 342 343 340 340 341 339 339 338 337 335 332 332 332 332 333 333 331 329 330 329 326 321
321 322 321 321 319 319 319 320 318 318 318 318 316 316 315 315 316 317 318 317 320 322 323 323 324 336 342 342 341 342 340 341 340 339 339 339 337 335 332 332 332 332 332 333 331 330 329 326 321
322 321 320 320 318 319 320 319 317 317 317 315 315 315 316 317 316 317 317 317 317 318 319 321 322 322 324 331 341 341 340 339 339 341 341 339 338 337 335 333 331 331 331 332 332 331 329 327 322
317 318 318 317 318 318 318 318 318 316 316 316 315 315 314 315 315 316 315 314 314 314 315 317 318 319 320 320 324 338 341 340 338 335 339 341 340 338 337 335 333 332 331 331 332 331 329 327 322
317 317 316 316 317 318 317 316 316 316 316 316 315 314 314 315 315 312 315 315 314 313 313 313 314 316 318 319 319 323 335 338 338 337 333 338 341 339 338 337 335 333 332 332 332 331 330 327 323
317 317 315 317 317 316 317 316 316 316 314 313 313 312 311 311 312 313 315 316 316 316 316 315 313 312 313 315 317 318 318 332 338 336 335 333 334 338 339 338 337 335 333 332 331 332 329 326 323
317 315 316 319 319 317 315 310 314 314 312 312 312 310 311 314 313 314 315 316 316 316 317 317 316 316 314 312 312 314 315 317 326 336 336 336 336 334 333 336 336 336 335 334 332 332 330 327 321
318 318 319 320 320 320 318 317 317 311 313 312 312 313 314 315 315 315 316 316 316 316 316 316 316 315 315 315 314 312 313 314 315 317 321 332 334 333 334 333 331 333 333 333 333 331 331 330 324
319 318 318 319 320 324 320 316 314 312 312 311 312 313 313 314 315 315 317 316 316 315 314 314 314 314 315 315 315 316 314 313 313 315 317 321 327 330 331 332 333 331 329 331 331 332 331 330 326
318 319 320 323 323 323 316 318 315 311 311 311 312 312 313 315 315 315 315 315 314 314 313 314 314 313 313 313 314 315 316 316 316 315 315 317 321 327 329 330 329 330 329 327 328 329 330 330 328
318 320 321 322 324 319 312 316 313 310 310 311 313 313 314 315 315 315 315 314 314 313 313 313 312 312 312 312 313 314 315 316 317 317 317 317 317 317 321 324 326 326 328 326 326 326 327 328 328
319 322 312 316 312 316 312 312 310 309 311 311 312 314 314 316 315 315 315 314 314 312 311 311 311 311 310 310 311 312 313 314 314 315 316 317 318 318 318 319 321 326 325 327 324 324 325 326 327
317 318 320 315 318 319 312 311 310 308 308 311 314 314 314 316 315 314 312 312 313 311 310 310 308 308 308 307 308 309 311 311 312 313 314 313 314 315 316 318 319 320 322 322 321 322 323 325 325
316 319 318 316 314 318 314 310 309 308 307 311 311 313 314 316 314 311 309 309 310 310 309 308 307 306 305 305 305 306 306 307 308 308 308 308 310 310 310 311 313 316 317 318 317 318 318 321 320
313 317 316 322 322 311 312 312 308 308 309 309 309 313 315 315 312 309 308 308 310 308 307 306 305 304 304 304 304 304 303 303 303 302 302 303 303 305 305 307 309 310 312 312 312 312 314 314 313

GFSSGP_925_thetae_057.txt.gz
Theta_e
322 324 329 328 325 324 327 328 322 324 323 322 323 322 323 331 346 348 343 344 347 343 345 344 343 344 343 344 344 342 340 338 338 338 338 337 332 337 338 337 339 341 341 336 335 334 334 334 331
322 328 328 321 327 327 326 323 322 323 322 322 323 323 331 346 343 341 344 347 346 342 344 344 344 343 343 343 342 341 338 339 336 336 335 330 336 339 338 338 340 341 339 334 334 333 333 333 328
321 325 326 324 325 328 326 322 321 321 321 323 323 322 332 340 341 343 345 346 345 341 343 344 345 342 344 342 341 340 338 335 333 332 330 334 341 340 340 340 339 339 331 330 331 331 332 332 325
326 324 321 327 328 326 326 323 321 322 322 322 323 338 338 341 343 345 345 347 347 342 342 343 342 341 343 341 341 339 337 335 334 329 331 339 340 339 340 341 339 334 330 328 328 331 332 328 324
327 325 327 327 327 326 323 321 321 322 322 323 321 335 344 342 343 343 346 348 347 347 344 343 340 342 342 341 341 339 338 335 334 329 331 338 339 339 338 338 335 331 328 324 325 329 328 327 326
328 328 331 331 328 326 324 320 320 321 321 320 324 339 343 343 342 343 345 347 347 347 343 339 339 343 343 342 340 339 337 336 334 330 327 337 337 335 335 335 333 331 327 324 326 329 327 326 326
327 329 331 329 331 328 325 320 319 321 321 322 320 340 341 343 343 343 344 348 348 347 343 339 340 342 342 340 340 339 337 336 333 332 323 335 334 334 333 333 333 332 326 324 326 326 326 326 326
328 328 329 330 331 332 326 320 318 320 321 320 319 338 344 343 345 345 343 347 347 346 343 339 340 340 341 340 339 339 337 336 336 333 328 325 332 332 329 331 332 330 325 324 326 327 326 324 323
325 331 331 332 332 331 327 327 321 319 319 319 324 332 342 344 344 345 345 343 344 344 342 339 339 338 338 339 339 338 338 337 335 332 332 321 323 328 328 328 331 328 325 326 328 327 325 323 322
328 331 327 325 328 328 327 326 325 320 320 318 332 340 343 343 341 341 342 344 343 341 342 341 340 337 338 339 338 337 337 336 334 333 333 321 320 318 319 329 326 323 326 329 329 328 325 322 321
322 329 326 325 324 325 324 327 324 319 320 319 325 334 338 341 341 340 340 342 344 342 341 341 341 340 340 340 340 338 337 336 332 334 334 322 328 328 325 326 327 323 328 330 330 329 325 323 323
322 322 324 325 324 326 322 320 323 319 319 319 316 331 333 335 336 339 340 340 340 343 343 342 341 341 341 340 339 336 332 331 331 335 335 324 328 329 330 328 328 323 328 330 329 329 328 321 320
323 321 321 320 319 320 319 319 318 317 318 318 318 318 322 329 335 337 341 341 342 340 343 342 341 339 338 338 335 335 333 332 335 335 337 332 329 329 329 330 328 325 323 327 329 330 329 323 321
320 321 320 318 320 320 319 318 318 317 317 318 317 318 318 318 319 332 337 340 341 342 341 341 342 341 339 336 335 334 333 332 337 337 338 335 331 331 331 332 330 329 327 328 330 331 331 328 323
318 322 320 319 319 320 318 320 318 316 317 319 318 317 317 317 318 317 325 338 339 341 341 341 339 342 341 340 336 335 334 335 338 337 336 334 332 331 333 333 332 331 330 329 331 331 332 332 324
320 320 323 319 319 319 318 321 318 316 317 318 316 314 314 315 317 318 318 319 323 335 340 341 342 341 339 342 341 338 337 336 337 337 337 336 335 332 332 333 333 333 331 329 329 330 332 330 326
321 322 321 320 318 320 319 319 317 315 316 316 315 314 313 312 313 316 318 318 317 321 323 331 342 342 341 339 341 342 339 339 340 339 338 338 337 337 332 331 332 332 332 332 331 329 329 329 327
322 320 321 319 318 319 319 318 317 314 314 315 314 312 310 311 312 316 316 316 317 317 318 319 320 333 340 340 341 341 341 340 339 339 339 338 338 338 336 334 332 331 332 332 332 331 329 329 328
318 319 320 319 317 319 319 319 318 316 315 313 312 312 312 312 312 313 313 313 314 314 315 316 317 317 317 321 331 340 341 341 339 338 340 339 339 338 337 336 336 333 331 331 331 332 331 330 328
317 318 317 316 317 317 318 317 317 314 313 313 313 312 311 312 310 313 314 315 314 314 313 313 313 314 315 316 318 319 333 339 339 339 338 337 336 337 338 336 336 335 332 331 331 331 331 330 328
315 314 315 316 316 315 316 315 314 313 313 312 311 310 310 310 310 311 313 315 316 316 315 316 315 314 313 313 314 315 315 323 332 336 337 337 335 332 331 336 337 336 335 332 331 331 331 328 327
316 314 316 317 316 317 314 313 310 312 312 311 310 309 309 311 312 312 314 315 316 316 316 316 316 315 315 315 313 312 312 313 314 317 322 329 335 334 335 333 332 332 334 334 333 332 330 329 325
317 316 317 317 316 317 316 314 313 311 312 310 309 309 311 311 312 313 314 316 316 316 315 315 315 314 314 315 315 315 314 312 312 313 314 316 318 327 334 334 333 331 331 330 332 333 332 330 328
317 316 316 316 317 318 318 315 313 312 313 310 309 311 312 312 312 313 316 315 314 314 313 313 314 314 314 313 314 314 315 315 315 315 314 314 315 318 327 330 330 331 332 330 329 328 329 331 329
317 317 314 315 314 317 313 316 314 311 309 310 311 311 311 311 312 313 313 313 313 313 313 313 312 312 312 313 314 314 315 316 316 316 316 317 317 316 317 321 327 328 328 327 327 327 327 326 328
318 315 314 316 317 317 311 318 315 308 308 310 311 310 311 312 312 312 312 313 312 312 311 311 311 310 310 310 311 312 313 314 314 315 315 316 317 317 317 318 319 322 325 326 326 324 325 324 324
318 315 312 312 311 309 312 311 308 309 310 310 311 312 312 312 312 312 312 312 311 311 311 309 309 308 308 308 308 310 311 312 312 313 313 313 313 314 315 316 317 319 324 326 326 326 323 323 322
317 316 318 309 315 315 312 311 311 310 310 310 312 311 311 313 312 310 309 310 311 310 309 308 307 306 305 305 306 307 307 308 309 309 309 309 309 310 310 311 312 314 318 319 319 319 319 319 319
317 319 317 315 310 314 312 309 307 309 308 310 312 311 312 313 311 307 307 308 309 309 308 306 305 304 304 304 304 304 304 304 304 304 304 305 305 306 306 307 308 310 311 313 314 314 315 315 316
314 317 316 316 318 308 308 309 305 305 306 308 309 312 312 312 309 306 306 308 307 306 305 304 304 303 303 303 302 302 301 301 301 301 301 302 302 303 304 305 306 307 307 308 309 309 310 311 310

GFSSGP_925_thetae_060.txt.gz
Theta_e
322 322 329 325 324 323 326 326 320 322 323 321 321 333 339 335 343 336 341 344 345 343 343 343 344 344 345 343 343 342 341 339 339 338 338 335 335 337 336 338 341 341 337 336 335 334 334 331 323
322 327 326 319 325 327 326 321 323 320 321 318 320 322 337 347 341 343 344 345 344 344 345 344 344 343 343 343 341 340 338 338 338 338 335 332 338 338 338 339 341 340 336 334 333 333 333 326 322
322 326 324 323 324 327 326 322 320 321 320 322 322 326 336 343 340 343 345 345 343 344 344 343 344 343 343 342 340 338 337 335 331 334 328 340 340 339 338 341 340 335 330 327 331 331 328 322 324
326 322 318 326 328 325 324 322 321 321 321 320 327 340 339 340 342 344 346 345 343 344 343 344 344 342 342 341 340 338 336 333 329 329 338 340 341 340 339 340 338 331 329 326 328 330 323 321 325
325 320 325 327 327 325 323 321 319 321 322 320 324 342 344 341 343 346 345 343 342 343 344 345 344 342 341 340 339 338 336 333 329 329 339 339 340 339 339 338 335 330 328 321 322 324 325 322 327
327 325 327 330 328 325 323 321 318 320 320 323 339 341 342 341 341 346 345 344 340 341 342 343 340 342 340 340 340 339 336 334 332 324 338 340 339 341 342 336 331 330 327 319 325 325 325 325 325
327 327 329 329 329 328 327 322 318 319 320 320 331 341 342 342 341 346 347 346 345 344 343 341 340 342 342 340 339 339 336 335 331 324 330 337 336 336 336 334 332 331 327 320 323 324 325 325 325
325 326 328 327 329 330 327 325 319 319 320 317 331 344 347 342 343 345 346 346 346 344 340 338 342 343 341 339 339 338 337 335 334 330 320 331 334 333 334 334 333 332 327 323 324 326 325 324 324
325 329 328 328 329 328 325 325 324 318 319 326 329 336 340 343 343 347 347 345 344 342 340 339 341 341 341 339 338 339 337 336 335 333 327 324 329 329 328 331 332 331 327 325 328 327 325 323 322
328 328 327 324 325 329 327 325 324 319 320 331 342 341 342 342 343 341 342 343 344 343 340 338 339 339 339 339 339 338 338 337 336 333 332 320 323 326 325 325 329 330 326 326 329 327 325 323 322
327 328 325 325 325 327 328 327 325 322 319 325 342 341 340 338 339 340 340 342 343 342 340 339 338 337 338 339 338 338 337 336 335 332 333 324 320 318 319 327 328 326 323 326 330 329 326 322 321
325 324 326 326 324 327 327 325 324 321 319 318 332 338 337 337 337 337 339 342 341 340 341 340 339 338 337 338 338 338 337 336 335 330 333 333 322 326 326 324 325 321 321 325 328 329 328 322 323
322 323 323 325 326 326 325 325 325 321 318 317 325 331 334 334 337 338 338 339 342 341 341 340 340 340 338 339 339 339 336 334 330 329 333 334 323 328 329 329 328 327 324 323 327 328 328 327 321
322 322 322 321 320 324 326 325 323 318 315 317 317 317 317 326 333 336 339 339 340 341 342 342 341 340 340 340 340 337 335 332 332 334 334 335 330 328 329 329 329 329 327 322 323 327 329 330 326
320 323 320 320 318 319 321 324 321 317 315 317 316 316 317 315 316 332 337 339 341 341 341 342 341 340 338 337 337 335 334 334 332 334 336 337 335 330 330 330 329 332 331 329 326 329 330 331 330
319 321 324 320 319 319 317 319 318 316 315 316 316 315 314 313 316 316 321 337 337 340 341 339 339 340 341 339 336 334 334 334 333 333 337 336 337 334 331 331 331 332 332 330 329 329 330 330 331
320 323 322 321 318 319 317 319 316 315 314 315 314 314 313 312 312 316 316 315 318 331 337 340 340 340 340 340 341 339 337 336 337 336 337 336 336 334 332 331 332 332 332 332 330 328 330 330 331
323 321 322 321 319 319 319 317 317 315 313 314 313 313 312 311 310 313 314 315 315 317 320 328 339 340 341 341 339 340 341 339 337 339 338 337 337 336 335 336 334 331 332 332 332 330 329 328 329
318 319 321 319 317 319 319 318 317 315 314 313 312 312 311 312 309 311 311 312 314 314 314 315 316 318 327 338 340 340 340 341 341 339 339 339 338 338 337 335 334 334 331 331 331 332 331 329 328
318 317 319 317 317 317 317 318 316 315 314 312 312 311 310 310 310 311 313 314 314 314 314 313 313 313 314 315 318 327 334 338 339 340 339 337 337 337 336 335 334 335 334 332 331 331 330 330 329
317 317 315 316 316 315 315 315 315 313 312 312 311 311 310 308 310 311 313 315 315 315 315 315 315 315 314 313 312 313 314 317 329 329 330 330 335 337 336 335 333 331 335 334 332 330 330 329 328
319 313 314 315 317 320 314 317 309 312 312 310 309 307 308 309 309 311 313 314 315 315 315 315 315 315 315 315 314 313 311 312 313 313 315 319 323 329 333 334 334 333 332 333 332 331 331 329 328
316 314 315 315 316 315 315 314 310 310 311 310 308 306 306 309 310 311 313 314 315 315 314 314 314 314 314 314 314 314 314 314 313 313 312 312 314 315 318 322 333 333 331 330 330 330 330 331 329
315 315 314 314 315 318 316 313 311 310 310 310 307 308 309 309 310 311 313 314 313 313 313 313 313 313 313 313 313 314 314 315 315 315 316 315 315 316 317 322 327 330 332 330 330 329 328 328 328
316 314 317 319 319 316 313 314 314 310 309 308 308 310 310 309 310 311 311 312 312 312 312 312 311 311 311 312 312 313 314 315 315 315 315 316 316 316 316 317 319 323 326 327 328 328 326 326 326
318 314 311 317 316 315 311 317 315 308 306 308 309 311 309 310 310 311 311 311 311 311 311 310 310 309 309 309 310 311 312 313 313 313 313 313 314 314 314 315 316 318 320 323 326 326 326 326 325
318 320 312 310 309 308 311 311 308 309 308 308 309 310 310 311 310 310 310 311 310 310 310 309 308 307 306 307 307 308 309 310 309 310 310 310 310 310 310 311 312 315 317 322 324 324 324 322 320
317 314 317 308 312 314 311 310 311 311 310 310 311 311 311 311 310 309 309 310 310 309 308 307 306 305 305 305 305 305 305 305 306 306 306 306 306 306 307 308 308 310 312 315 316 316 315 315 315
318 320 316 313 309 314 313 309 305 309 311 312 312 310 309 312 310 307 306 308 309 308 306 305 305 304 304 303 303 303 303 303 303 303 303 303 303 304 305 305 306 307 308 309 310 310 311 311 312
314 317 317 317 312 305 306 308 305 304 308 310 311 311 310 311 308 305 305 307 307 305 304 304 303 303 302 302 302 301 301 301 301 301 301 301 302 302 302 303 303 304 304 305 306 306 306 306 305

GFSSGP_925_thetae_063.txt.gz
Theta_e
322 322 328 323 324 322 326 325 320 320 322 320 320 330 328 339 337 335 341 345 346 345 344 344 345 343 344 343 343 341 342 342 339 338 337 336 338 336 338 341 340 338 337 335 334 335 334 332 327
322 327 324 317 323 327 325 321 323 320 320 317 326 329 340 346 340 342 344 345 345 344 344 344 343 344 343 341 343 341 339 339 337 336 334 334 336 337 337 341 340 337 335 333 333 334 329 326 330
322 327 322 321 322 326 324 322 320 318 318 318 325 332 338 344 341 343 343 346 344 344 343 344 343 344 341 342 341 338 337 337 337 336 331 336 338 338 337 342 339 331 327 323 329 328 325 325 330
325 321 317 326 327 324 322 322 321 318 320 319 331 340 339 339 341 343 345 346 344 344 344 344 343 342 342 340 339 337 336 331 332 331 340 340 337 339 341 341 337 330 326 314 317 321 322 326 329
323 319 324 326 326 325 322 321 319 319 317 321 330 344 343 339 342 345 346 345 344 344 342 343 342 341 342 340 338 337 335 329 327 337 340 339 341 340 340 339 334 330 326 315 319 321 321 326 329
326 323 325 328 326 324 323 322 321 318 318 337 339 341 342 340 344 345 345 344 343 343 344 344 342 342 341 340 338 337 336 329 324 335 338 338 339 339 338 337 332 330 327 319 322 324 322 325 328
326 324 326 327 328 327 326 322 320 316 317 324 335 344 341 340 344 345 343 343 343 343 344 344 342 342 339 339 339 338 336 333 323 330 336 336 338 338 337 334 331 332 329 322 323 325 325 325 326
324 323 327 327 328 329 325 324 323 318 317 319 334 344 345 340 344 344 343 342 341 341 342 342 340 340 340 340 339 339 336 335 328 320 335 336 335 336 336 334 333 333 329 325 326 326 326 325 325
325 329 327 327 328 327 325 326 323 322 317 328 334 338 339 341 344 345 345 345 344 343 343 341 341 342 340 339 338 338 337 335 334 331 321 331 333 333 333 333 333 332 329 323 324 326 325 324 323
328 329 327 323 325 328 327 327 325 323 322 334 342 340 340 341 344 344 344 343 345 344 342 339 340 343 341 339 339 338 337 336 335 334 329 322 326 328 328 330 332 331 328 324 323 325 325 323 322
327 328 325 323 324 327 328 328 323 322 322 320 336 342 338 339 341 342 343 343 344 342 341 340 342 342 341 339 338 338 338 337 336 335 331 327 321 323 325 324 327 330 328 325 327 327 325 324 321
328 325 324 325 327 327 327 326 325 322 320 319 316 337 335 336 337 339 341 343 343 342 341 339 339 339 340 339 338 338 337 337 335 334 331 332 322 319 318 318 327 328 325 323 324 327 327 325 321
323 325 324 327 326 326 325 326 324 322 320 319 317 335 334 333 335 339 342 343 342 341 340 339 339 338 337 338 338 338 337 337 336 335 331 332 332 321 325 324 324 325 323 320 322 325 328 327 325
322 322 325 325 325 326 326 324 323 321 318 315 330 333 333 333 334 336 338 339 340 340 340 340 339 339 338 337 338 338 338 337 335 332 330 331 333 323 326 328 328 328 328 326 324 322 326 327 327
321 323 322 323 323 324 325 325 324 320 319 315 315 317 317 324 333 334 337 338 339 340 341 340 340 340 340 338 339 339 339 337 334 332 334 333 334 334 328 329 329 329 330 329 327 325 325 327 329
320 322 324 321 320 320 324 328 324 321 321 316 313 313 313 314 314 326 336 338 338 340 340 340 341 340 339 340 340 339 338 335 334 333 332 334 335 336 335 331 330 330 330 331 330 328 327 328 329
319 322 322 321 320 321 323 320 321 322 321 319 314 312 312 312 312 313 315 327 336 337 339 340 339 339 340 339 337 336 335 334 334 333 333 333 335 336 336 336 332 330 330 330 331 330 328 329 329
321 320 321 321 320 319 321 317 317 316 315 317 318 311 311 312 310 312 312 314 314 321 333 336 339 339 340 339 339 339 338 337 335 336 337 336 336 337 335 336 335 331 330 331 331 330 330 329 329
316 318 321 318 318 320 320 318 317 314 312 310 310 310 310 310 309 310 310 312 313 314 316 322 332 337 338 340 340 339 338 339 340 339 337 338 338 336 335 334 332 331 331 332 331 331 330 329 328
317 319 320 318 317 319 318 319 318 317 313 311 310 309 309 309 309 310 311 312 313 313 313 314 314 314 315 320 330 335 338 339 339 339 340 339 337 337 337 337 336 335 335 334 333 331 329 329 329
316 317 316 318 315 314 316 317 316 315 312 312 310 309 309 308 309 310 312 313 314 314 315 314 314 314 313 313 313 314 315 317 322 330 333 334 335 334 336 336 336 335 334 332 331 333 331 328 328
318 314 314 316 317 319 315 320 312 313 313 312 311 308 308 306 308 310 312 313 314 314 314 314 314 314 314 314 314 313 311 312 313 315 315 315 316 318 320 326 332 334 333 333 332 331 332 330 327
317 312 314 315 316 315 314 316 314 309 311 313 311 306 305 304 308 310 311 314 314 314 313 313 313 313 313 313 314 314 314 313 313 313 313 312 312 313 314 317 319 324 331 333 332 330 330 330 329
314 313 313 313 314 316 315 315 314 310 309 309 309 305 304 307 309 310 312 314 313 312 313 313 312 312 312 313 313 313 314 314 314 315 315 315 315 315 316 317 319 323 325 330 332 331 330 328 327
314 313 316 319 319 317 312 314 316 310 307 307 307 305 305 307 309 309 310 310 311 312 312 311 311 310 310 311 312 313 313 314 314 314 314 314 314 314 315 315 316 318 320 324 327 328 328 327 326
316 312 312 317 318 316 311 316 315 310 308 306 306 306 308 308 308 309 309 310 310 311 310 310 309 308 308 309 310 310 311 311 311 312 312 312 311 311 311 311 312 314 316 320 323 325 326 326 325
317 315 309 308 306 308 311 310 308 307 307 306 307 309 309 309 309 309 309 310 310 310 309 309 308 307 306 307 307 307 308 308 308 308 308 308 308 308 308 308 308 309 312 315 318 320 320 320 319
316 313 317 306 309 312 310 310 311 309 308 308 309 309 309 309 309 308 308 309 309 309 308 307 306 306 305 305 305 304 304 304 304 304 304 304 304 304 305 306 306 307 308 309 311 313 313 312 311
319 319 316 312 307 311 313 310 304 306 306 308 309 309 309 310 309 307 307 308 309 308 306 305 305 304 304 303 303 302 302 302 302 302 302 303 302 303 303 303 304 305 305 306 307 308 308 308 307
317 318 313 311 310 304 304 309 305 302 304 308 310 310 309 310 308 305 305 307 307 306 305 304 304 304 303 302 301 301 300 300 301 300 300 300 300 300 300 301 301 301 302 302 303 304 304 304 303

GFSSGP_925_thetae_066.txt.gz
Theta_e
327 323 327 321 323 321 323 322 320 321 320 319 319 324 326 337 336 335 340 345 342 343 344 344 344 344 344 343 341 341 341 341 339 337 338 339 337 339 341 340 338 337 334 334 335 335 333 333 333
326 327 322 317 322 323 322 321 322 320 319 328 326 332 340 345 340 340 344 344 342 345 343 344 344 343 342 342 341 342 342 339 338 335 334 335 337 337 340 341 339 336 331 333 334 333 330 332 330
327 324 321 321 320 324 321 321 321 319 315 317 332 334 339 343 341 342 343 345 345 344 343 344 342 344 342 342 342 339 337 337 337 336 331 338 338 337 341 341 335 330 321 329 331 329 327 330 330
326 321 318 323 325 323 321 321 321 320 317 316 330 341 338 338 341 342 345 346 345 343 343 343 344 343 342 341 340 337 335 336 331 333 338 338 339 338 342 340 334 330 318 323 325 324 325 329 329
325 319 324 325 326 324 322 321 320 321 317 319 330 343 342 339 340 345 346 346 346 343 343 343 343 342 341 340 338 336 335 326 329 339 339 338 339 340 342 339 333 330 319 321 323 323 326 328 329
326 320 325 326 325 323 322 322 322 318 315 334 339 341 341 340 345 346 346 344 342 343 344 343 342 341 341 339 337 337 334 326 328 338 339 339 340 340 339 337 331 330 324 322 324 323 324 328 328
328 324 325 324 326 326 325 322 322 320 314 317 335 342 340 339 344 346 345 344 344 342 343 343 341 341 340 339 338 337 334 327 325 337 337 337 338 337 337 335 331 332 330 325 326 326 325 326 327
325 324 325 325 328 328 325 324 322 323 321 315 328 341 342 338 344 345 345 344 343 342 344 344 342 341 340 339 338 338 336 331 321 335 336 336 337 337 336 334 332 332 330 321 322 324 325 325 325
324 329 327 326 327 327 325 326 323 321 320 322 337 337 337 342 343 343 344 344 344 345 345 344 341 340 340 339 339 338 337 335 331 321 330 335 335 335 336 334 333 333 331 325 321 324 324 323 323
327 329 326 322 325 327 327 326 323 322 320 325 321 336 339 343 343 341 341 340 341 344 343 342 340 340 341 340 339 337 337 336 334 333 327 324 329 331 332 333 332 332 331 327 322 325 326 324 322
326 328 324 323 327 327 327 327 322 322 322 319 320 319 335 340 342 341 341 340 341 343 343 342 340 342 341 340 339 338 337 336 335 335 333 327 322 325 326 326 325 330 330 328 324 325 325 324 322
326 325 325 327 326 326 326 325 325 322 321 319 317 317 332 336 339 340 341 342 343 343 342 340 339 341 342 340 339 338 337 337 336 335 334 330 327 320 320 320 320 324 328 328 325 323 326 326 324
323 324 324 326 325 325 325 325 325 323 320 317 317 323 333 333 336 339 341 343 344 343 341 340 339 342 341 340 339 338 337 337 336 335 334 331 330 329 319 318 318 323 325 322 321 322 324 326 326
321 323 325 326 326 326 325 323 322 321 318 317 317 320 331 331 334 337 340 342 343 342 341 340 338 338 338 339 338 338 337 337 337 336 334 333 329 331 324 323 326 326 327 328 326 324 323 324 326
320 326 326 326 326 327 323 325 322 320 318 318 317 312 317 326 332 334 338 340 342 342 341 340 339 338 338 338 336 337 337 337 337 336 333 332 330 331 333 325 327 328 328 329 329 328 327 325 325
322 323 328 324 325 324 322 326 323 321 320 320 318 312 311 312 314 330 335 338 340 340 340 340 340 339 339 339 338 337 338 338 338 336 333 332 333 334 334 334 332 330 329 329 329 330 329 328 327
322 322 321 324 323 324 322 323 320 322 321 320 320 315 311 310 311 313 317 333 336 337 338 339 340 340 340 339 339 339 339 338 338 336 334 333 332 332 334 335 335 335 333 330 329 329 329 329 329
320 319 320 322 321 324 322 319 322 321 321 320 320 319 312 311 310 311 313 315 326 333 332 337 338 338 338 339 338 337 336 336 336 335 333 333 333 333 333 333 335 335 335 333 329 329 329 329 329
315 317 319 318 320 322 324 321 318 319 320 320 319 319 315 311 310 309 310 312 313 314 321 329 332 337 338 338 338 338 338 338 338 337 336 335 336 337 336 335 335 334 333 333 331 330 330 329 329
316 316 319 317 317 320 318 320 317 315 318 319 318 318 316 309 308 309 309 310 312 313 314 317 319 321 324 331 337 337 338 338 338 338 338 338 338 338 337 337 337 336 334 333 333 331 329 329 329
315 316 316 317 315 314 317 319 317 316 316 313 313 311 307 307 307 307 310 312 313 313 313 314 314 314 314 313 314 315 318 321 325 329 332 334 335 336 336 336 336 336 335 335 334 333 331 328 328
318 314 314 315 316 320 315 321 315 316 317 314 314 314 309 306 306 308 309 312 313 314 314 314 314 314 314 314 314 313 312 311 312 313 314 314 314 314 316 319 322 327 331 333 333 332 332 330 328
316 312 313 314 314 315 314 317 316 309 317 317 315 313 308 306 305 308 310 312 313 313 313 313 313 313 313 313 314 314 313 313 312 313 313 313 313 313 313 315 316 318 321 325 329 332 332 330 328
312 312 312 311 312 312 314 315 315 310 311 310 309 311 310 306 304 307 311 313 312 311 312 312 312 311 312 312 313 313 313 313 313 314 314 315 315 314 314 315 316 317 319 322 323 327 330 330 329
312 313 312 315 313 314 312 313 316 312 307 307 308 306 304 303 305 308 309 310 310 311 311 311 311 310 310 311 312 312 313 313 313 313 313 313 313 313 313 313 314 314 316 318 322 325 327 327 326
315 312 311 316 317 314 310 315 314 310 308 306 306 305 304 305 306 308 308 309 310 310 310 310 309 309 309 309 309 310 311 311 311 310 310 310 309 309 309 310 310 311 313 315 318 322 323 323 322
316 316 308 306 305 306 311 309 307 306 307 306 304 306 306 307 307 308 308 309 309 310 309 309 308 307 307 307 307 307 307 307 307 307 307 307 306 306 306 306 307 307 309 311 314 317 318 319 319
315 311 316 305 310 313 309 309 311 308 307 306 307 307 307 308 308 307 307 308 309 309 308 307 306 306 305 305 304 304 304 304 303 303 304 304 303 304 304 304 305 305 306 307 309 311 312 313 312
318 316 314 310 307 310 311 311 304 306 304 303 305 307 308 308 308 307 306 308 308 308 307 306 305 304 304 303 303 302 302 302 302 302 302 302 302 302 302 302 303 303 304 304 305 306 306 306 303
315 317 312 312 310 303 304 309 305 303 302 302 306 308 308 309 308 306 306 306 306 305 305 304 304 303 303 302 301 301 300 300 300 300 300 299 300 300 300 300 300 300 301 301 301 302 301 302 301

GFSSGP_925_thetae_069.txt.gz
Theta_e
331 324 327 320 326 324 322 323 322 323 320 319 320 323 332 338 336 334 338 343 341 345 347 346 345 344 344 343 342 339 340 340 336 338 339 338 339 341 340 339 338 334 334 335 336 335 335 334 332
330 325 321 321 326 325 323 322 323 322 320 326 324 337 340 345 342 340 343 344 342 345 347 347 344 344 343 341 340 340 342 339 336 335 333 337 338 340 341 339 337 332 333 334 335 334 333 332 331
326 323 323 324 323 325 322 322 323 323 320 319 334 337 341 344 342 342 342 344 346 346 344 345 343 343 342 340 341 341 339 337 336 332 331 336 335 341 342 339 332 321 323 331 330 328 330 330 330
325 321 321 325 326 324 322 323 322 324 319 317 332 344 340 337 342 342 344 345 346 344 343 344 342 342 342 341 340 338 336 336 336 332 333 335 337 341 340 337 330 320 319 327 327 326 328 329 328
323 322 326 328 326 324 321 322 323 322 320 320 332 342 343 339 339 344 345 345 346 343 344 343 344 341 341 341 338 336 333 328 330 338 335 335 336 342 340 336 330 324 322 324 325 326 328 329 329
328 322 328 329 326 324 323 323 322 322 319 329 339 343 343 339 343 345 346 346 345 344 344 345 344 341 341 339 337 336 330 328 338 339 337 333 338 341 339 335 330 329 322 328 330 327 328 329 329
329 328 328 325 325 325 324 323 324 323 320 318 336 344 341 340 342 344 345 345 345 343 344 344 342 341 340 338 337 336 327 326 337 338 338 339 339 338 337 334 331 331 322 322 324 324 324 327 328
326 327 328 325 327 326 326 324 323 324 323 319 330 339 344 340 342 343 346 344 343 344 343 342 340 341 340 338 337 336 334 323 336 337 336 336 336 336 336 334 331 332 330 323 324 325 325 324 326
323 329 329 327 327 327 326 326 323 321 322 329 329 337 338 340 341 344 345 344 344 344 343 343 341 341 340 338 338 337 336 329 321 334 335 335 336 336 336 333 332 333 331 326 322 325 325 324 324
328 329 327 323 325 328 327 326 324 323 321 322 320 320 334 341 342 341 341 341 342 343 346 344 342 341 339 339 338 337 336 335 333 328 324 328 331 332 333 333 333 332 331 329 323 322 325 324 323
326 329 324 323 327 327 327 327 322 323 323 321 320 320 323 339 340 340 340 340 340 341 345 344 342 341 341 340 339 337 337 336 335 334 333 327 323 325 326 328 329 331 331 330 326 322 324 325 324
327 326 324 327 326 326 326 325 324 323 323 320 318 319 319 337 339 339 340 340 340 341 343 342 341 341 341 340 339 338 337 337 336 335 334 332 328 322 321 322 323 322 325 328 327 324 322 325 325
325 326 324 325 325 325 325 324 324 323 321 318 318 317 330 333 335 337 340 340 340 340 342 342 340 341 342 340 339 338 338 337 336 335 335 333 330 329 325 319 318 318 324 325 323 321 321 322 325
322 323 325 326 326 325 326 324 323 320 318 319 319 318 316 331 334 335 337 339 341 342 342 341 339 339 341 341 340 339 338 337 337 336 335 334 333 329 330 325 321 323 324 326 327 327 325 325 324
321 324 324 326 326 326 323 326 325 321 319 320 319 318 316 313 324 334 336 337 341 343 342 340 339 339 339 339 339 338 337 337 337 337 336 334 333 331 330 332 325 326 327 328 328 329 329 328 327
321 323 326 326 326 324 324 328 323 322 321 322 320 319 317 315 312 316 332 337 340 341 342 341 339 338 338 338 338 337 336 337 337 337 337 335 332 332 332 332 334 333 330 328 328 328 328 329 329
322 324 324 326 325 325 324 326 322 322 322 322 321 320 318 316 314 313 312 328 336 339 339 339 339 339 339 339 338 338 338 337 337 338 338 336 334 332 332 332 333 334 334 334 333 330 329 328 329
323 321 321 324 326 324 324 322 323 322 322 323 321 320 318 317 317 316 312 312 322 335 336 338 338 339 339 339 339 338 338 338 338 338 338 337 334 333 332 332 332 333 334 335 334 334 332 329 328
316 319 320 320 322 325 324 321 322 322 321 322 323 320 318 318 314 314 315 312 311 317 324 331 337 338 338 338 338 338 338 338 337 336 335 334 333 332 335 336 336 334 334 334 333 332 331 328 329
317 319 318 316 320 322 323 323 319 320 321 321 321 320 318 317 311 310 311 312 311 312 314 320 327 332 336 337 337 337 337 337 338 338 337 337 337 337 337 336 336 336 336 335 334 331 328 328 330
315 317 317 318 317 315 318 321 320 316 318 318 319 318 316 315 311 309 309 310 311 312 313 314 316 318 319 323 328 331 331 330 330 331 333 334 335 335 335 335 335 335 334 334 334 334 332 328 330
318 314 315 316 318 323 317 323 319 318 317 317 318 318 317 314 308 308 309 310 311 312 313 313 313 313 313 313 313 312 312 312 312 312 314 314 314 314 315 317 319 321 324 328 330 331 331 330 328
315 312 314 314 315 315 314 320 317 315 318 318 316 316 315 314 309 309 309 311 312 313 313 313 313 313 313 313 313 313 313 312 312 312 312 313 313 313 313 313 314 315 316 318 323 327 328 329 328
310 312 311 311 314 321 316 319 317 314 315 315 317 316 315 314 311 308 309 311 312 312 312 312 312 312 312 312 313 313 313 313 313 313 314 314 314 314 314 314 314 314 316 318 320 322 324 325 326
312 312 318 321 320 319 311 314 317 314 310 309 310 311 312 311 308 308 310 310 310 311 311 311 311 311 311 311 312 312 312 312 313 313 313 312 312 312 312 312 312 312 313 314 316 322 322 324 324
314 311 314 317 318 316 310 316 316 311 309 307 306 306 306 305 305 308 311 310 309 310 310 309 309 309 309 309 310 310 311 311 310 310 310 309 309 309 309 309 309 309 309 311 314 317 319 321 322
316 313 307 307 304 310 311 310 307 306 307 307 307 305 307 306 307 309 310 309 309 309 309 309 308 308 307 307 307 307 308 308 307 307 307 306 306 305 305 305 306 306 307 308 312 314 315 317 318
314 309 315 309 311 315 310 309 312 309 308 305 304 306 307 307 308 309 308 308 309 309 309 308 307 307 306 306 305 304 304 304 304 303 303 303 303 303 303 304 304 305 305 306 308 310 312 312 312
317 316 311 310 309 314 313 312 305 308 305 304 303 304 307 308 310 309 307 307 308 308 307 306 306 305 305 304 303 303 302 302 302 302 302 302 301 302 302 302 302 303 303 304 305 306 306 306 304
313 313 312 314 312 304 308 312 306 304 303 302 305 307 307 308 309 308 307 306 306 306 305 305 304 304 303 302 302 301 301 301 301 300 300 300 300 300 300 300 300 300 301 301 302 302 302 302 301

GFSSGP_925_thetae_072.txt.gz
Theta_e
333 329 326 324 326 326 325 324 326 325 323 325 323 326 339 339 334 341 342 344 343 345 348 348 345 344 344 344 343 341 340 338 339 341 340 340 342 340 340 338 335 335 337 338 338 337 337 335 330
332 327 323 326 326 325 325 324 325 326 325 328 331 334 337 343 344 345 343 344 343 346 349 348 345 344 344 342 339 340 341 336 334 337 337 340 342 341 340 338 333 334 335 336 337 336 333 331 330
330 324 326 325 324 325 324 324 327 327 324 328 334 339 341 346 345 343 343 343 344 347 346 349 343 344 342 340 340 343 339 337 335 327 336 337 341 342 340 333 325 331 334 334 334 333 330 330 328
328 325 325 324 323 324 324 327 327 327 322 324 330 343 343 342 343 344 345 344 345 346 345 346 344 343 341 340 342 339 338 336 335 330 334 337 341 343 338 331 322 326 332 331 330 330 329 328 329
326 326 326 325 325 325 325 326 327 327 324 324 333 342 346 344 343 346 345 344 345 344 346 347 343 342 341 341 339 336 334 331 332 333 333 336 341 342 338 331 325 324 328 329 328 329 329 329 330
330 327 327 327 325 326 325 326 326 327 323 331 337 343 345 343 346 346 344 344 344 344 346 346 344 341 341 339 337 334 326 335 339 337 330 334 342 339 338 332 330 320 324 322 322 325 326 327 328
330 329 327 327 326 326 325 326 326 327 322 330 339 342 345 343 345 346 345 344 344 345 345 347 346 343 340 338 336 333 326 338 340 340 337 338 339 337 337 332 331 328 325 327 325 324 326 327 327
328 328 329 328 327 325 327 326 326 325 326 328 338 342 348 345 343 345 344 344 345 345 345 347 346 343 342 339 336 333 324 337 338 337 338 338 337 336 336 333 332 332 326 324 326 326 326 325 326
327 332 332 328 326 326 327 328 325 323 328 326 326 336 337 341 342 343 344 345 345 346 346 345 344 343 343 341 338 336 326 328 336 335 335 335 337 337 336 336 332 332 331 325 324 326 326 324 324
328 331 329 326 325 325 328 328 326 326 328 326 326 327 333 343 343 344 345 345 345 346 346 345 344 344 343 341 339 339 336 331 330 333 335 334 336 336 337 335 332 332 332 329 324 324 326 325 327
326 329 326 326 324 327 328 328 325 326 328 325 325 326 325 342 343 342 344 342 343 344 345 345 344 344 343 341 341 340 338 337 335 334 334 332 331 331 331 332 333 334 333 334 332 331 330 330 329
327 325 326 325 325 325 327 326 327 326 327 324 322 325 324 339 341 340 342 344 343 342 342 345 344 344 343 342 341 340 339 338 337 336 335 334 332 331 328 328 328 328 328 332 333 330 329 329 329
325 324 325 324 326 325 325 326 326 326 324 322 322 323 333 333 338 338 339 342 343 343 344 345 344 344 343 343 342 341 340 339 338 337 336 334 333 331 330 328 326 326 326 329 331 330 328 328 327
322 323 325 325 326 326 325 325 324 324 322 323 323 323 323 328 338 338 337 339 341 343 344 344 344 343 343 343 342 341 340 339 338 338 337 335 334 333 331 331 326 326 327 330 331 331 331 331 330
322 325 325 325 326 326 325 326 326 324 323 323 323 323 322 321 320 335 339 340 341 343 344 343 342 341 341 342 342 341 340 339 339 339 338 336 335 335 332 332 331 328 330 330 330 331 331 332 332
323 323 327 326 326 326 325 330 325 324 323 324 323 323 323 321 319 318 328 337 340 342 343 342 341 340 341 341 341 340 340 339 339 339 339 338 337 335 335 334 334 334 332 332 332 332 332 332 332
322 323 325 326 325 326 327 327 324 322 323 323 323 324 323 322 321 319 315 320 337 340 341 341 341 340 340 340 340 340 340 339 339 339 339 339 338 337 335 334 334 334 334 334 334 333 333 334 333
320 322 322 325 327 326 327 326 323 323 324 324 323 324 324 322 322 319 317 314 317 333 338 339 340 340 341 340 340 339 339 339 339 339 339 339 338 337 336 335 335 335 334 334 335 334 335 333 333
317 320 322 322 325 326 325 324 323 322 322 323 323 323 323 323 322 318 317 314 313 317 326 334 338 339 340 340 340 340 340 340 339 338 338 337 336 335 334 335 335 336 335 335 335 335 334 333 332
319 320 322 323 325 326 325 326 323 321 322 322 322 323 323 323 322 319 317 314 313 315 317 321 328 336 336 339 339 339 339 339 339 338 338 337 337 337 337 337 337 337 336 336 335 334 333 333 333
318 319 321 322 325 323 324 326 324 322 320 321 321 320 321 323 323 320 317 314 314 315 315 316 318 320 324 329 329 335 336 335 332 333 334 334 335 334 334 334 335 335 334 334 333 333 332 331 331
320 318 320 322 324 322 322 319 321 322 322 320 321 320 321 322 321 319 315 313 313 315 315 315 315 315 315 316 317 319 322 322 317 316 316 317 317 317 318 320 321 322 326 327 328 329 329 329 330
318 318 319 320 319 319 321 321 317 319 321 321 320 320 320 320 320 317 315 313 313 314 315 314 314 313 313 314 314 315 315 314 312 313 314 314 313 313 313 313 313 315 316 320 321 322 324 325 327
314 317 318 319 319 322 318 319 318 318 318 318 319 319 319 319 318 317 315 313 314 314 313 313 313 313 313 313 313 315 315 315 315 315 315 315 315 313 313 313 313 313 314 316 317 320 322 321 323
317 319 322 321 323 320 316 320 317 317 316 315 316 317 319 319 319 318 315 314 314 313 313 313 313 312 312 312 312 313 313 314 315 314 314 313 313 312 311 311 311 311 312 312 315 317 319 321 321
319 318 320 318 319 318 315 319 317 316 314 313 312 313 312 312 314 315 315 314 314 313 313 311 312 311 311 311 310 311 311 311 310 310 309 309 308 308 308 308 308 308 308 309 312 316 318 318 321
317 319 311 315 312 317 317 316 315 312 314 312 312 311 312 312 313 311 310 313 314 313 312 311 311 310 309 308 308 308 307 307 307 307 307 306 306 305 305 305 305 306 306 307 309 312 314 315 317
317 313 318 320 321 318 314 314 314 314 314 312 311 310 310 311 311 311 311 312 313 312 311 310 309 309 307 306 306 305 305 305 304 304 303 303 303 303 303 303 304 304 305 305 306 308 309 310 308
318 318 317 316 317 317 315 314 312 313 312 311 312 312 311 311 312 312 311 312 312 311 310 309 308 307 306 305 303 303 303 303 303 302 302 301 301 301 301 301 302 302 302 303 303 304 305 305 305
316 318 317 320 319 315 316 316 311 311 310 310 313 313 312 312 313 313 313 312 310 309 309 308 307 307 305 303 303 302 301 300 300 299 299 299 299 299 299 299 299 299 300 300 301 301 301 302 301

GFSSGP_925_thetae_075.txt.gz
Theta_e
332 331 327 327 328 326 328 330 328 326 327 327 326 330 338 341 337 353 341 342 344 347 348 348 343 344 344 345 343 341 340 340 340 341 341 342 341 340 337 335 336 337 338 338 339 338 337 336 334
335 329 326 326 327 327 328 328 327 327 327 327 330 331 337 345 345 344 343 343 343 347 348 348 344 344 344 343 340 340 336 334 338 340 341 343 341 340 337 333 335 336 337 337 337 336 335 332 329
332 328 327 325 324 326 327 326 326 328 326 328 330 336 339 349 344 341 342 342 345 347 347 348 345 344 344 339 340 341 337 335 330 335 337 341 342 340 336 332 334 335 335 336 336 334 330 329 329
329 326 328 326 325 324 325 325 327 327 324 328 329 335 344 344 343 342 342 341 345 346 347 347 344 344 340 339 343 340 338 336 330 330 334 341 343 339 331 320 323 329 332 334 334 331 329 330 330
330 328 326 327 326 324 325 327 327 327 328 327 331 341 347 346 345 345 342 342 345 344 350 347 344 342 339 341 340 338 336 334 330 328 335 341 344 338 333 324 320 322 325 326 328 327 327 328 328
332 328 329 328 326 325 326 327 326 327 325 330 332 341 348 345 346 344 342 343 344 345 346 348 344 342 340 341 337 334 328 334 337 329 335 341 342 338 336 329 321 327 328 328 328 327 327 328 329
333 330 329 328 326 327 326 326 327 327 325 335 336 339 347 345 346 345 343 343 343 346 346 346 346 343 340 338 336 329 335 339 338 332 333 342 339 336 336 331 329 322 325 325 324 326 327 327 327
330 331 329 328 327 327 326 326 327 327 327 333 337 339 348 345 345 347 344 342 343 345 346 347 346 343 341 338 335 325 338 340 340 339 339 340 336 335 336 332 332 329 322 324 325 324 324 324 326
326 333 333 329 329 327 326 326 326 325 329 329 331 339 338 343 344 345 345 344 343 344 345 347 345 342 341 340 336 328 335 338 338 338 338 336 337 337 336 337 333 332 330 323 325 325 325 324 324
328 333 329 328 326 327 324 326 327 327 328 329 329 331 341 343 345 344 344 345 344 345 345 345 344 342 342 340 338 337 328 335 335 335 335 337 337 337 337 336 332 332 331 330 324 322 323 324 329
327 329 328 326 327 325 328 327 326 326 329 327 327 331 339 344 344 345 346 345 345 344 345 344 343 343 342 340 340 339 337 333 332 333 334 332 332 334 332 334 334 334 333 335 333 333 331 331 330
327 326 325 327 326 327 328 325 326 327 328 325 325 329 334 341 344 343 345 344 344 345 345 344 343 344 343 341 340 339 338 337 337 336 335 334 332 331 329 329 329 330 330 331 333 331 330 329 329
326 325 325 327 326 326 325 326 327 326 326 324 324 327 335 340 342 340 340 343 343 343 342 344 343 343 343 342 340 339 338 338 337 337 336 335 334 332 331 329 327 327 326 329 331 331 329 328 328
320 322 325 326 325 325 326 326 325 324 325 324 324 325 329 338 340 338 339 341 343 343 343 343 343 343 342 342 341 340 339 338 338 338 337 336 335 334 332 332 328 326 327 330 332 333 333 332 332
320 322 324 327 327 328 326 327 326 322 324 324 325 325 325 325 329 340 341 340 342 343 342 343 343 342 341 342 341 340 339 338 338 339 338 337 337 337 334 333 334 329 331 331 331 332 333 333 333
321 322 326 324 325 326 327 328 326 322 324 325 325 324 325 324 323 324 335 340 342 343 342 342 342 341 340 340 341 340 340 339 339 340 339 338 337 337 337 336 336 336 334 334 334 334 334 334 334
322 322 323 323 324 326 327 325 324 323 323 324 324 324 324 325 323 322 321 330 340 342 342 343 343 341 341 341 341 340 340 340 340 340 340 340 340 339 337 336 336 336 336 336 336 335 336 336 335
320 320 321 321 325 325 327 327 325 325 324 324 324 324 324 324 324 322 321 318 325 339 342 343 343 342 341 341 340 340 341 341 340 340 340 340 340 340 339 338 337 336 336 336 336 336 336 336 335
314 316 320 319 323 326 326 326 325 324 324 325 324 323 323 325 324 322 320 318 317 326 337 341 342 341 342 342 342 341 341 341 341 341 341 340 340 339 339 338 337 337 337 337 337 336 335 335 335
317 317 320 320 323 325 324 324 324 323 323 323 323 323 323 324 324 323 321 319 317 317 326 333 338 340 341 341 341 341 341 341 341 341 340 340 339 338 337 337 337 337 337 336 336 335 335 334 333
317 317 321 323 323 323 323 323 324 323 323 321 321 323 323 324 324 324 321 319 317 317 317 322 326 333 336 339 339 338 336 337 336 338 338 334 333 335 335 335 335 334 334 333 333 333 333 332 332
319 316 319 320 324 324 322 320 320 322 323 321 322 322 322 323 323 324 323 320 317 317 318 318 319 320 321 324 328 330 333 333 329 327 325 321 321 321 322 323 323 324 325 328 328 328 328 330 329
316 318 319 321 323 319 322 322 318 320 323 322 321 321 321 320 321 323 322 319 316 317 318 317 317 317 316 317 318 318 318 316 316 315 316 316 316 313 313 313 314 317 318 320 321 322 323 323 323
318 319 319 319 318 322 319 319 317 318 318 318 319 320 320 320 320 320 321 317 316 317 317 316 316 316 316 317 317 317 318 317 316 317 317 317 317 316 314 313 313 314 315 316 318 319 318 320 320
318 319 321 321 323 322 317 318 318 318 317 317 317 318 319 319 319 320 319 318 317 317 316 316 316 315 316 316 316 316 316 316 317 317 316 316 315 315 313 311 312 312 311 311 313 316 318 318 320
318 317 319 318 318 317 317 319 317 317 316 316 316 316 316 315 318 319 320 318 317 317 316 315 315 315 314 314 314 314 314 314 313 313 312 312 311 310 309 308 308 308 308 309 310 313 316 317 318
319 321 314 318 316 318 318 316 316 314 315 315 314 314 315 315 315 315 315 317 317 316 316 314 314 314 313 312 312 311 310 310 310 309 308 308 307 306 305 305 305 306 306 306 308 311 314 313 314
318 317 317 320 321 317 316 315 315 315 315 314 314 314 313 312 313 314 313 313 316 316 315 314 313 312 311 310 310 309 307 307 306 306 305 305 304 303 304 304 304 304 304 305 306 308 310 311 310
318 317 318 317 318 320 315 315 315 315 314 315 315 315 315 314 314 314 313 314 314 315 314 313 312 311 310 308 307 306 305 304 304 304 303 302 302 302 302 302 302 302 302 303 305 305 306 307 307
318 317 316 319 319 317 318 317 313 314 313 314 315 315 315 315 315 314 314 314 314 314 313 312 311 310 309 307 306 305 304 304 303 303 302 301 301 301 300 300 300 300 300 301 302 303 303 304 303

GFSSGP_925_thetae_078.txt.gz
Theta_e
328 332 331 329 334 328 328 326 330 333 334 334 329 327 333 345 346 352 341 345 350 348 344 341 344 344 344 344 341 339 339 338 339 342 341 341 338 335 335 337 338 339 338 338 338 337 336 334 333
330 333 327 330 328 327 325 326 331 329 327 327 330 330 339 350 344 340 342 346 349 348 343 342 344 344 344 342 339 334 333 336 335 341 342 341 339 334 334 335 336 337 337 337 336 335 333 331 330
325 332 328 328 327 327 326 326 327 327 326 328 331 332 346 350 341 342 343 346 348 348 347 345 344 344 343 339 338 334 335 332 331 338 342 341 339 334 332 335 335 337 336 335 335 331 334 332 328
327 330 328 326 326 324 324 325 327 327 324 327 327 341 345 345 341 343 342 346 347 346 348 343 344 344 340 339 339 337 336 330 328 335 341 342 337 329 325 328 329 331 334 332 328 326 327 328 329
327 331 327 329 326 324 323 326 327 327 324 326 333 343 348 346 345 342 342 346 346 349 347 344 344 342 339 343 340 338 336 332 327 333 341 343 338 331 321 323 326 327 328 328 326 327 328 328 328
331 331 327 328 327 324 326 325 325 326 325 330 333 343 348 345 346 342 342 346 348 350 347 344 343 340 340 342 339 336 332 332 327 333 341 342 339 335 327 322 324 324 324 326 326 326 327 328 328
332 330 331 326 326 325 327 326 325 325 324 333 331 337 346 345 345 344 342 344 348 347 346 345 342 340 341 338 335 328 333 339 329 333 340 341 336 335 331 327 321 324 323 322 323 325 326 326 326
330 332 330 329 327 328 326 326 327 327 331 334 333 337 350 344 346 346 344 345 346 346 346 345 342 341 339 336 332 332 338 338 335 334 341 338 336 335 334 330 328 321 321 323 323 322 323 323 324
326 332 334 331 330 327 325 327 326 325 330 328 333 337 344 345 345 345 344 344 345 346 345 345 343 342 340 338 327 335 339 340 338 337 340 336 335 336 334 337 331 330 325 320 321 322 323 322 325
327 332 332 328 327 327 326 326 325 328 328 329 332 341 342 344 343 345 344 343 344 345 346 345 343 340 339 339 332 327 337 338 337 337 335 337 337 338 338 335 331 330 330 328 324 319 319 326 329
326 329 328 328 328 327 324 327 326 326 328 326 326 340 343 344 344 342 343 341 344 343 346 345 343 340 339 339 337 333 326 333 336 336 333 336 336 336 336 333 330 329 332 331 334 332 330 331 330
327 326 325 328 328 328 327 325 326 327 326 324 324 336 340 343 344 344 344 345 342 343 344 344 343 342 340 339 339 338 336 331 332 334 334 332 331 330 330 332 331 332 332 331 334 333 332 329 328
325 326 325 325 326 327 328 325 325 327 324 323 324 335 340 340 343 342 343 344 344 343 345 344 343 343 341 340 339 339 338 337 337 336 336 334 333 332 329 328 327 327 327 327 330 331 330 329 328
322 322 325 324 325 324 326 326 325 324 324 323 324 327 336 340 341 339 339 341 343 343 342 343 343 343 342 340 339 339 338 337 337 337 336 335 334 333 331 331 328 326 326 327 330 332 332 332 332
318 324 326 325 326 325 326 330 326 323 324 324 323 324 325 326 332 339 339 339 342 342 342 340 342 342 342 342 340 337 339 338 338 338 338 336 335 335 332 332 332 327 328 329 331 332 332 332 332
320 321 325 324 326 325 326 326 324 322 322 324 324 323 323 323 325 333 340 340 341 342 342 342 341 341 342 342 341 340 339 338 339 339 338 337 337 337 337 335 335 335 332 332 333 333 333 334 334
322 324 322 324 322 323 324 327 325 322 322 323 323 323 322 322 323 322 327 336 341 342 341 341 342 341 340 341 341 339 339 338 338 339 339 339 338 337 337 336 336 336 336 336 335 335 335 335 334
322 320 321 321 324 321 324 325 325 323 321 320 321 321 321 322 322 322 320 321 333 341 341 341 341 341 340 340 340 340 340 339 339 340 339 339 340 339 339 338 337 336 336 336 336 336 336 334 334
317 317 318 318 322 325 325 326 325 324 324 323 320 321 321 321 322 321 320 318 318 332 340 342 342 342 341 340 339 339 338 339 340 341 340 340 339 339 339 338 337 337 336 336 337 336 335 335 334
318 317 318 319 324 326 325 324 322 323 323 323 322 321 321 321 321 320 320 318 317 318 333 339 342 341 341 341 340 340 340 341 340 340 340 340 339 338 338 337 336 336 336 335 335 334 333 333 333
320 318 319 323 324 323 323 323 321 322 321 321 321 321 321 321 320 320 320 319 317 317 321 331 335 340 340 341 341 341 340 339 340 340 339 338 338 338 337 336 335 334 334 334 333 332 333 332 332
320 317 319 322 324 326 321 319 321 319 321 322 320 319 318 319 320 320 320 319 317 317 317 319 325 332 338 339 339 339 338 336 335 336 337 334 328 326 325 325 326 327 326 327 327 327 328 328 329
319 317 320 322 323 321 323 321 316 318 320 321 320 318 318 318 318 320 320 319 318 317 317 317 319 321 324 327 331 330 330 321 321 322 320 316 315 314 313 313 313 314 316 317 319 320 322 323 322
317 320 320 321 321 318 319 319 316 316 318 319 318 319 317 318 318 319 320 318 316 317 317 317 317 317 317 318 318 317 317 316 315 315 316 317 317 316 315 313 313 313 314 315 315 317 318 317 318
318 321 320 318 317 318 316 316 315 315 315 317 315 316 315 316 316 316 318 316 316 317 317 317 316 316 316 317 317 317 317 317 316 317 317 316 316 315 314 313 311 311 311 311 311 312 315 318 317
318 317 318 317 317 317 316 317 314 314 314 313 314 314 314 313 312 315 316 316 316 317 317 316 316 316 316 316 316 316 316 316 315 315 314 313 313 312 311 309 309 308 308 308 308 310 313 316 315
318 319 314 318 315 315 316 315 314 314 314 314 313 313 314 314 312 313 314 317 317 317 317 316 316 315 315 315 314 313 313 312 311 310 310 310 309 308 307 306 306 306 306 306 306 308 312 313 312
319 316 317 315 315 316 316 315 314 312 312 311 311 311 311 311 310 312 311 315 317 317 316 315 315 314 313 313 311 310 309 309 309 308 307 307 306 305 304 304 304 304 304 304 305 307 309 309 310
318 320 318 316 315 319 315 313 311 312 312 313 312 313 313 313 312 311 311 312 314 316 315 314 314 312 311 310 310 308 308 307 306 305 305 304 304 304 303 303 303 302 303 303 304 305 306 307 307
318 317 316 316 318 315 314 315 312 311 312 313 313 314 313 313 313 312 311 313 314 315 315 313 312 311 310 309 308 307 306 305 305 304 304 303 302 302 302 301 301 301 301 301 302 303 303 304 303

GFSSGP_925_thetae_081.txt.gz
Theta_e
324 327 333 329 329 327 327 325 326 332 332 331 327 328 340 345 348 345 345 349 347 343 344 343 341 344 344 342 339 339 338 337 337 339 336 336 335 337 339 340 338 337 337 337 337 335 335 331 332
325 330 330 326 329 324 321 323 328 330 325 327 330 333 344 348 341 339 348 349 343 342 344 344 344 344 343 339 338 337 336 336 340 338 340 335 334 335 336 338 337 336 336 336 335 332 329 333 334
325 326 324 326 324 325 323 321 328 328 324 327 332 338 348 348 340 341 349 347 342 341 344 344 343 344 341 337 332 333 334 336 341 338 339 336 333 335 335 337 336 335 336 334 334 332 326 334 336
325 326 325 326 324 323 323 325 326 330 324 324 332 343 345 345 345 345 348 347 343 341 342 344 344 343 339 336 334 333 331 332 339 342 339 332 332 334 334 335 336 335 333 332 331 329 328 329 334
325 325 328 328 327 322 320 325 324 326 324 325 336 346 348 344 343 345 348 346 346 346 343 344 343 341 339 337 337 335 327 330 338 342 339 335 323 319 324 327 328 328 328 328 328 328 327 329 332
327 327 324 327 325 324 324 324 323 325 322 325 338 346 346 342 342 343 347 346 347 346 343 344 343 339 343 339 338 335 331 328 336 341 340 336 330 319 320 322 324 325 325 324 326 326 326 325 324
326 327 327 322 323 324 326 324 323 323 325 333 332 342 344 342 340 344 346 347 347 344 343 344 341 340 342 339 336 332 332 327 335 341 341 337 335 328 320 324 322 321 322 322 323 324 324 324 324
327 327 329 326 323 326 325 326 325 326 331 331 333 343 337 342 342 344 345 348 347 344 343 342 339 340 338 335 328 332 337 330 335 341 341 336 334 334 329 322 320 322 321 321 321 321 322 322 322
325 329 329 328 328 327 324 326 325 324 328 332 335 339 341 342 333 342 345 346 346 344 343 341 340 340 336 333 329 336 337 331 333 339 339 336 334 334 330 329 328 322 319 319 320 321 321 321 326
327 329 327 326 327 324 324 324 324 327 329 337 342 340 344 343 337 340 342 344 345 345 344 341 340 339 337 332 328 337 338 335 333 339 337 336 335 335 334 333 329 329 327 325 321 318 319 328 328
325 329 327 329 331 328 325 326 325 326 327 325 344 343 342 343 340 339 340 343 344 344 344 342 340 340 339 335 327 334 337 336 336 332 335 337 337 337 336 333 329 327 328 327 333 331 329 330 330
326 326 326 328 327 328 328 325 327 325 324 323 336 342 342 343 342 340 341 340 342 342 343 343 341 339 339 338 337 327 329 332 335 335 333 335 336 333 331 331 331 331 331 331 333 332 332 330 328
323 325 325 325 327 326 327 327 326 324 322 322 337 339 340 339 343 343 340 341 341 342 343 342 342 340 339 339 338 335 333 331 332 334 333 332 331 330 330 330 330 328 327 328 331 332 330 329 328
322 323 324 325 326 325 326 328 324 323 321 321 337 338 339 340 340 340 341 342 342 343 343 343 342 340 339 338 338 340 336 335 334 335 335 334 333 332 330 328 327 326 326 325 328 330 332 331 331
321 322 322 323 325 325 324 329 326 321 321 322 325 334 336 337 340 338 339 340 341 341 342 341 342 342 341 338 337 339 337 337 337 337 336 335 334 333 332 331 331 327 325 327 329 331 331 332 332
322 322 325 322 325 325 324 330 325 321 321 321 320 322 323 325 334 338 338 338 340 339 340 341 342 342 342 340 338 337 337 337 337 338 337 337 335 335 334 332 333 332 330 330 331 331 332 333 333
321 322 325 324 323 325 325 326 322 322 320 321 321 320 321 321 322 331 337 338 340 340 341 339 340 339 340 341 340 337 339 338 338 338 337 337 337 336 336 336 335 335 336 334 334 334 334 334 334
322 321 322 324 323 323 324 323 321 322 321 320 320 320 319 321 320 322 326 332 339 340 340 339 339 341 340 340 339 338 339 339 337 337 337 338 337 337 337 337 336 336 335 335 335 335 335 335 334
318 319 320 321 323 323 321 320 320 321 321 317 316 317 319 318 319 320 320 323 324 339 340 340 339 340 340 340 339 339 340 339 338 339 339 339 339 339 338 338 338 336 336 336 336 336 335 333 333
319 318 318 320 323 323 320 321 322 321 322 320 320 318 317 318 318 317 318 318 319 330 338 340 340 339 338 339 339 338 337 338 337 337 339 340 339 338 338 338 337 336 335 334 333 333 333 331 330
319 317 318 321 323 323 324 325 324 320 320 320 320 318 317 318 319 316 316 317 317 318 332 339 339 338 337 338 338 339 339 339 338 338 338 339 339 338 337 336 335 335 334 332 332 331 331 331 329
321 317 318 322 323 326 322 325 321 321 322 321 319 317 317 317 318 316 316 317 316 317 318 330 334 338 339 339 338 337 336 336 337 339 339 338 337 336 335 334 334 333 331 330 328 327 327 327 327
320 317 317 321 323 320 323 321 317 315 320 321 317 315 315 313 314 316 317 317 318 317 318 323 330 334 337 338 338 337 337 336 333 335 335 333 329 319 315 314 314 314 315 316 317 318 320 321 322
318 319 321 321 321 321 321 320 315 315 318 317 317 316 315 314 314 314 317 318 316 317 317 317 321 325 328 332 333 335 334 328 325 324 321 317 316 316 315 314 313 313 313 314 314 315 316 317 317
319 317 322 323 322 320 315 316 314 313 314 314 316 315 314 312 313 314 314 314 317 317 317 317 318 318 318 320 322 321 323 321 319 316 315 316 316 316 314 313 312 312 311 311 311 311 312 314 318
320 318 314 319 319 315 314 315 314 312 311 311 311 310 310 310 309 313 313 314 317 317 317 317 317 316 316 317 317 317 317 316 316 316 316 316 315 314 313 312 310 309 309 308 308 308 310 313 316
318 319 312 315 312 314 314 313 310 311 311 311 311 310 311 311 310 311 313 314 315 316 317 316 316 316 316 316 316 316 316 316 315 314 314 313 312 311 310 308 307 307 306 306 306 306 308 312 313
317 315 313 308 314 316 315 314 311 310 309 310 309 309 310 309 308 308 308 313 315 316 316 316 315 315 316 315 315 314 314 313 312 311 310 310 308 307 306 306 305 305 305 305 305 306 307 309 310
316 318 316 313 311 316 312 310 307 308 310 311 311 311 311 312 310 308 308 310 315 316 316 316 315 315 314 314 312 311 311 310 309 308 307 306 306 305 304 304 303 303 303 303 304 305 305 306 307
316 317 316 312 316 310 310 312 310 309 310 311 311 311 311 311 311 310 310 311 314 315 315 315 314 313 313 312 311 309 308 306 306 306 306 304 304 304 303 302 302 302 302 302 302 303 303 304 305

GFSSGP_925_thetae_084.txt.gz
Theta_e
328 326 330 329 328 327 325 323 325 331 336 329 328 332 347 343 343 341 345 347 346 346 342 343 342 342 343 342 340 337 333 338 337 337 337 340 342 341 340 339 339 337 337 336 337 337 337 334 334
328 326 330 324 330 327 325 322 323 327 328 329 331 339 348 346 339 346 347 347 345 344 343 343 341 344 342 341 340 336 335 337 336 336 335 337 338 339 339 337 336 335 336 335 333 333 333 335 335
325 325 325 326 327 326 324 321 321 325 325 333 333 343 347 349 342 344 347 348 344 344 343 341 344 343 341 341 339 335 339 336 338 335 334 335 336 337 336 336 335 336 335 332 327 333 334 335 334
325 325 326 324 327 323 321 322 321 329 328 325 334 343 343 344 344 346 346 346 345 345 344 343 343 342 339 334 338 335 340 339 339 334 333 335 335 336 337 334 334 333 333 334 325 332 334 334 334
325 323 329 329 327 321 320 320 323 327 330 330 334 344 345 341 346 347 345 344 345 345 344 343 343 340 334 334 332 334 340 340 340 335 333 335 335 335 336 334 329 326 326 326 326 327 333 333 333
326 325 328 328 326 323 320 319 322 324 323 334 340 340 343 339 344 346 344 341 342 344 344 343 342 339 336 336 333 329 337 340 342 337 331 331 334 333 332 328 326 325 326 325 324 325 329 331 331
327 327 326 324 323 324 322 322 321 322 322 331 339 342 343 338 341 344 345 339 341 343 344 343 339 340 337 337 335 330 332 339 343 339 336 327 319 320 321 322 323 326 326 325 324 324 324 323 323
325 327 327 322 322 324 324 325 324 324 332 329 333 339 346 340 339 343 344 344 345 343 343 342 339 344 338 336 333 330 328 336 340 341 337 334 327 320 322 321 321 322 322 323 323 323 323 322 322
323 329 328 327 322 324 323 325 324 324 329 334 336 337 339 337 339 334 342 344 346 345 343 340 340 341 336 331 329 334 328 335 342 342 336 333 333 328 323 320 320 321 321 321 321 321 321 321 322
326 327 327 324 326 324 324 324 324 330 335 342 342 342 340 334 336 340 342 342 345 345 343 339 339 338 334 329 332 335 330 333 338 340 336 334 333 331 329 329 327 325 322 319 319 319 321 325 327
325 327 325 328 330 328 325 325 324 326 327 332 344 342 341 338 337 338 338 338 343 343 341 339 339 337 335 327 335 337 333 329 336 339 336 335 335 334 335 332 328 328 327 326 329 327 323 329 328
326 325 325 328 326 328 328 325 325 325 324 329 340 341 341 339 336 337 339 341 339 341 341 339 339 338 337 329 330 337 337 335 335 337 336 336 336 336 336 333 330 329 330 329 333 332 331 329 328
323 325 325 326 326 326 325 325 325 324 322 329 339 341 341 339 340 338 339 339 334 329 329 340 339 338 338 336 330 329 333 331 333 333 333 335 335 335 331 330 331 329 328 328 329 331 330 329 328
320 324 324 326 326 324 325 327 324 323 321 336 337 339 340 340 341 338 335 335 327 326 328 339 339 339 337 337 337 332 330 332 333 333 334 332 332 331 330 329 328 328 327 326 326 329 330 331 331
319 324 324 322 323 326 323 328 326 320 320 333 335 336 338 337 339 339 338 335 335 333 332 338 340 339 339 337 337 339 338 331 331 333 334 333 332 331 331 329 327 327 325 325 326 329 331 331 331
320 322 326 324 325 326 322 329 325 321 318 321 326 331 332 333 336 338 339 339 339 339 340 340 339 339 339 339 337 338 339 337 333 334 335 335 334 334 332 331 331 331 328 327 329 330 330 331 332
320 323 323 324 322 325 321 321 323 322 320 319 319 320 321 322 325 333 337 338 338 339 335 340 339 336 338 339 338 337 338 338 337 337 337 337 336 334 334 333 331 333 334 332 331 333 333 334 334
321 320 321 324 324 323 325 325 323 321 322 320 318 318 318 320 319 329 337 338 338 339 336 336 332 329 333 338 339 338 338 339 337 337 337 336 336 336 335 335 335 335 335 335 335 335 335 335 335
318 320 321 320 322 322 322 324 323 322 320 319 318 317 317 318 319 320 329 333 338 338 339 339 339 337 338 339 338 338 338 339 338 338 337 337 336 337 336 336 336 336 334 334 334 335 334 333 333
318 318 321 321 323 321 321 323 321 322 320 319 318 315 316 317 318 318 318 321 329 336 338 337 339 338 339 338 338 337 337 337 336 336 337 337 338 338 337 337 338 337 335 334 334 332 331 330 330
319 320 319 322 323 322 322 322 322 320 318 319 318 317 316 316 316 316 316 316 319 327 337 337 337 338 339 339 338 337 337 337 336 336 337 336 338 338 338 338 337 336 335 333 332 331 330 330 330
320 317 318 322 323 327 324 325 320 320 320 318 317 316 317 316 315 315 315 315 316 318 329 337 337 339 338 338 338 337 337 337 336 336 336 335 336 336 336 336 336 335 333 333 332 330 328 327 327
319 318 318 322 322 322 324 319 317 316 318 318 318 316 315 315 315 315 315 318 318 318 318 331 336 336 337 338 338 337 335 335 333 335 334 333 334 334 335 333 329 325 321 318 316 317 318 320 321
318 318 318 321 322 325 321 317 316 314 318 317 317 316 314 313 312 311 315 318 318 318 316 320 331 334 335 335 336 336 336 334 333 334 333 331 331 328 318 314 313 313 313 313 314 314 314 316 316
319 317 319 324 322 320 316 320 317 312 313 315 315 314 313 312 311 311 312 314 316 316 315 319 325 328 332 333 334 334 334 334 333 333 330 325 320 316 315 314 313 312 312 312 311 311 311 312 313
320 316 316 321 321 316 315 321 315 311 310 310 312 311 309 310 308 310 311 313 315 316 316 316 318 320 320 322 326 328 330 328 325 324 322 318 316 315 315 313 312 311 310 309 309 308 308 309 311
318 316 312 313 310 312 313 312 310 310 309 309 308 307 307 306 307 308 311 313 315 316 317 317 317 317 317 317 317 317 318 319 318 316 316 316 316 315 313 311 309 308 308 307 306 306 306 308 312
315 314 313 308 314 316 314 314 311 311 309 309 309 309 309 308 307 307 308 312 313 315 316 316 316 316 316 316 316 316 316 316 316 316 315 314 313 311 309 308 307 306 305 305 305 305 306 307 309
315 316 314 311 311 313 314 312 306 308 308 309 310 310 310 310 308 307 307 310 313 314 315 316 315 315 315 315 315 315 314 314 313 312 311 310 309 309 307 305 304 304 304 304 303 304 305 305 306
315 316 313 310 312 307 307 311 306 307 308 309 309 311 311 311 310 308 308 310 312 313 315 315 314 314 314 314 314 313 312 310 309 308 307 306 306 304 305 304 304 303 302 302 302 303 303 303 305

GFSSGP_925_thetae_087.txt.gz
Theta_e
330 329 326 329 327 324 321 323 325 332 338 332 330 338 345 342 338 337 344 346 345 345 344 344 342 342 343 341 339 338 341 337 340 344 345 344 344 344 341 340 339 338 336 337 338 338 338 337 337
328 326 328 324 325 327 326 320 322 328 334 332 331 341 346 346 344 346 347 346 345 345 344 342 341 344 342 341 340 338 340 337 338 341 343 343 342 340 339 338 336 337 336 338 338 337 337 335 336
326 324 327 328 326 324 327 323 319 325 331 332 333 342 345 349 344 345 345 347 346 344 342 342 342 343 341 340 338 335 338 337 335 337 339 340 341 340 337 335 335 336 334 333 332 334 334 333 333
325 325 327 326 327 323 320 323 320 329 329 332 333 338 343 342 343 345 346 346 344 343 343 341 344 341 339 338 336 338 340 338 334 335 336 337 337 336 335 336 335 332 327 332 332 334 334 333 332
323 324 330 330 326 321 320 320 320 327 328 332 333 337 345 342 345 346 347 345 344 343 341 343 342 340 337 337 335 339 338 338 335 335 336 336 337 336 336 335 333 332 327 329 333 334 333 333 331
325 325 331 330 325 323 320 318 321 323 327 330 335 339 343 339 345 344 346 344 345 344 343 343 341 336 336 335 335 339 340 339 336 334 335 336 338 335 334 334 328 327 325 326 330 333 333 332 330
325 327 329 326 323 324 322 319 320 321 325 332 335 339 341 340 342 344 344 344 344 344 343 342 340 335 336 332 334 338 340 341 336 331 333 334 334 335 333 332 327 328 325 325 326 329 331 330 328
321 327 326 323 324 324 320 324 323 321 326 332 335 341 342 336 339 343 342 344 343 343 343 342 339 337 337 335 329 333 338 343 339 334 325 322 325 330 329 327 330 325 323 324 324 324 323 323 323
321 326 328 325 323 322 321 325 323 326 330 334 336 337 337 335 330 341 341 343 344 344 343 340 339 338 337 335 333 327 335 341 341 337 334 326 322 323 323 323 323 323 323 322 322 322 321 321 320
321 323 323 323 321 321 323 323 324 332 339 342 344 339 337 339 335 341 342 344 343 343 343 340 340 341 337 332 332 329 333 339 340 338 334 332 329 325 322 321 321 321 321 322 322 322 321 323 325
318 322 320 325 328 328 325 325 322 330 332 337 342 341 337 338 338 342 341 342 343 343 342 340 340 339 334 329 333 332 330 338 341 340 335 333 332 330 329 329 328 327 325 323 322 321 319 327 328
319 319 320 326 326 326 327 325 324 324 325 328 339 338 336 335 336 338 338 340 338 337 336 337 339 337 334 329 333 335 330 333 337 339 336 334 334 333 334 333 329 327 327 327 330 330 329 329 328
318 317 321 326 326 324 325 325 325 324 322 338 340 338 335 335 335 336 336 330 333 331 329 331 330 335 336 330 332 337 333 329 335 339 336 335 336 336 335 333 331 329 329 329 331 331 330 329 328
317 320 319 326 325 324 325 326 324 322 322 337 340 340 339 337 336 337 338 336 334 325 324 328 328 334 335 334 328 333 336 333 334 333 335 335 334 335 332 331 330 330 328 326 326 328 330 330 330
316 321 319 326 323 326 323 328 324 320 320 334 336 337 337 336 338 336 337 333 329 326 326 328 328 333 336 332 336 331 328 330 333 333 334 333 332 333 331 330 328 327 327 326 325 327 329 330 331
318 319 319 324 324 323 322 331 325 320 318 327 329 333 334 337 338 336 336 334 330 328 328 327 328 331 336 336 333 335 334 331 332 333 333 334 332 332 330 330 329 329 328 325 326 327 329 330 331
318 322 320 323 321 323 322 327 322 320 319 319 320 324 325 327 331 335 334 332 329 328 327 327 329 331 329 331 336 336 337 338 336 332 333 334 334 333 332 332 331 330 331 329 328 330 332 333 334
319 321 320 320 324 321 319 322 322 322 320 319 318 317 319 321 321 327 335 335 335 330 330 332 335 332 333 336 337 336 336 336 336 335 334 335 335 336 334 333 333 332 334 335 335 334 334 334 334
316 319 321 321 323 322 320 321 320 321 320 317 318 317 317 319 319 320 333 335 337 338 337 337 337 336 337 337 337 332 336 337 337 336 336 336 336 336 335 335 335 334 335 332 333 331 333 333 331
317 319 320 321 321 321 322 321 319 321 322 318 317 317 316 317 318 318 319 326 332 336 336 335 334 335 334 335 333 335 334 336 337 336 336 335 336 336 336 336 336 335 335 335 333 332 332 331 329
318 319 320 322 322 321 322 322 321 321 321 318 317 316 315 315 316 317 316 318 321 331 335 335 336 337 337 337 337 337 337 336 337 336 334 335 335 335 336 335 335 336 336 333 332 332 331 330 330
320 317 319 322 322 328 322 327 321 320 320 319 316 315 315 315 314 314 315 316 316 320 326 334 336 336 338 337 337 337 337 336 336 335 335 335 335 334 334 333 336 335 335 334 333 331 330 329 328
320 318 319 321 322 323 324 323 317 318 321 320 315 314 314 315 315 315 314 317 319 319 317 324 335 335 336 337 335 336 337 336 335 335 334 333 332 331 332 334 334 332 332 331 328 320 317 318 319
317 319 320 320 322 323 323 321 316 315 317 317 314 314 314 313 313 313 315 317 317 319 318 316 323 334 334 333 334 334 333 333 333 334 333 332 331 329 326 327 320 316 314 313 313 313 313 314 315
318 317 321 322 322 322 318 319 317 314 311 313 313 312 313 312 311 311 311 311 315 316 318 318 316 325 332 334 334 333 333 333 333 332 332 331 327 325 320 315 313 313 312 312 312 311 311 311 311
320 314 318 323 322 315 317 321 317 310 309 309 310 312 309 308 307 309 310 312 314 315 315 316 316 322 328 330 331 331 332 330 331 330 330 329 326 320 316 314 313 312 311 310 309 309 308 308 309
318 312 312 311 310 313 315 312 309 309 307 307 307 306 305 306 306 307 309 311 313 315 315 314 316 321 323 323 323 324 326 327 325 324 325 325 318 316 315 313 312 310 309 308 307 306 306 306 307
317 314 315 311 315 315 312 312 310 312 310 309 308 308 308 306 306 305 305 311 312 314 314 314 315 315 316 316 316 316 317 319 319 318 316 316 315 314 312 310 309 308 307 306 305 305 305 305 306
315 316 312 311 310 312 314 312 306 308 308 308 308 308 308 308 307 306 305 308 312 313 314 315 315 315 315 315 315 316 315 315 315 314 314 313 313 311 310 309 309 307 305 304 304 304 304 304 305
314 315 311 310 312 305 306 310 304 305 308 308 309 310 310 310 308 306 306 308 310 311 314 315 314 314 314 315 315 314 314 314 313 313 312 309 309 308 307 306 305 304 304 303 303 302 303 303 303

GFSSGP_925_thetae_090.txt.gz
Theta_e
328 328 327 328 328 322 323 326 323 333 334 332 330 339 342 340 337 334 342 344 344 345 344 344 341 343 343 341 340 338 338 344 344 344 344 344 344 344 341 341 339 337 337 338 337 338 338 338 337
326 326 326 325 328 326 324 319 325 332 334 333 331 338 344 347 343 346 346 344 344 344 344 343 341 343 342 340 339 340 337 342 343 343 344 344 344 342 340 339 338 337 338 338 339 340 338 336 334
326 325 325 329 329 327 322 318 321 328 331 333 334 340 343 348 344 344 344 345 345 344 344 342 341 343 341 340 339 340 337 339 342 342 342 343 341 340 338 338 337 337 338 340 340 337 336 333 332
324 324 325 330 329 324 319 321 323 329 331 332 333 335 343 340 343 345 344 345 345 344 343 340 343 341 339 337 336 338 336 337 339 340 341 340 339 337 336 337 335 336 337 339 337 336 333 332 334
322 322 325 330 328 322 318 318 320 328 331 333 333 336 343 342 344 345 345 344 345 343 342 342 342 339 338 334 334 339 337 335 336 337 338 338 337 337 337 334 333 334 336 336 334 334 333 332 331
321 322 327 329 328 323 319 317 320 324 327 333 334 335 341 341 345 346 345 344 344 344 341 343 340 338 337 333 338 336 336 335 335 335 336 335 336 337 333 333 335 334 333 333 333 333 333 331 330
321 323 325 325 327 324 321 317 318 321 326 333 332 336 338 341 342 345 345 343 342 342 342 342 339 334 335 333 339 339 338 333 333 334 335 337 333 335 334 334 334 335 332 332 333 332 332 330 328
319 323 323 324 326 325 319 320 319 319 323 328 331 339 337 340 341 343 343 343 343 341 342 341 336 335 333 334 335 339 341 337 329 331 333 334 335 334 336 332 333 332 327 327 328 328 327 325 324
317 321 322 323 325 323 318 321 323 324 332 334 333 336 335 337 337 330 342 341 341 341 342 340 336 335 334 330 330 337 342 338 333 328 323 328 330 331 331 327 327 325 324 324 324 323 323 322 321
317 318 319 320 320 319 320 322 323 333 337 339 341 337 337 337 331 328 338 342 342 341 341 339 337 335 336 334 330 331 338 343 337 335 329 322 322 323 323 324 323 323 322 322 321 321 320 322 323
314 318 317 320 320 322 324 323 323 331 337 338 340 338 334 334 329 329 328 332 341 342 340 339 340 338 337 334 330 328 334 339 339 337 332 330 326 323 323 322 322 321 321 320 320 319 319 324 326
314 315 317 319 320 325 326 325 324 327 327 327 338 335 334 331 330 329 326 330 339 339 339 338 337 336 334 331 328 329 331 338 339 338 334 332 331 328 329 328 327 327 326 325 326 326 326 327 328
314 314 317 318 319 321 324 325 324 322 319 336 337 335 336 332 331 330 328 334 339 336 335 331 333 332 333 333 333 334 329 333 339 340 337 333 332 331 333 333 330 328 327 328 329 331 330 330 328
313 315 316 318 318 321 325 325 324 322 319 340 337 336 336 336 336 336 335 337 336 334 326 325 328 328 331 333 332 335 334 330 333 336 338 334 335 335 335 332 330 329 328 328 328 328 329 330 330
312 317 318 315 318 325 322 326 324 321 320 334 339 335 335 335 336 336 333 333 331 330 326 326 326 325 331 335 331 334 337 334 329 334 337 336 335 334 334 332 330 329 328 327 326 325 327 329 330
314 316 320 318 313 317 323 331 322 319 321 324 330 334 336 336 335 336 334 332 328 327 326 325 329 327 327 333 334 331 332 336 334 332 332 333 333 332 332 332 330 328 327 326 325 325 327 329 330
316 318 320 318 316 322 322 329 322 320 320 320 319 322 330 334 334 334 335 333 330 327 326 325 329 329 329 334 329 332 332 330 333 333 333 333 333 333 332 331 330 328 329 328 325 327 329 331 333
316 319 319 320 321 318 321 321 321 319 319 318 317 318 320 327 332 334 334 334 333 331 328 327 327 329 329 329 327 332 329 334 333 332 331 332 333 334 332 331 331 331 330 331 332 332 332 332 331
315 318 319 317 318 320 319 320 320 319 318 318 316 317 318 321 319 329 333 333 331 330 328 328 327 329 333 331 328 328 328 334 336 335 335 334 332 334 334 333 332 332 331 334 334 332 332 330 331
317 319 321 320 318 319 320 320 319 319 320 319 318 317 317 317 317 318 331 333 334 330 328 329 327 328 333 329 329 331 335 335 333 332 334 335 332 333 333 334 333 334 334 334 333 332 331 331 330
317 317 318 319 320 320 320 321 321 320 320 319 317 316 316 316 317 316 315 326 331 334 333 332 329 330 332 332 334 334 332 333 333 333 330 335 334 334 334 334 333 333 334 334 334 332 331 331 330
319 317 319 321 320 324 320 325 319 319 320 321 316 315 315 315 314 315 315 315 317 324 333 335 335 335 334 334 334 333 333 333 332 333 334 335 334 333 334 333 329 329 329 331 332 331 331 329 327
320 317 319 320 322 323 322 323 319 318 320 320 317 314 313 314 314 314 314 316 318 316 317 322 332 334 334 334 333 333 333 333 333 333 335 334 332 332 332 331 330 329 329 329 327 325 321 317 317
317 319 320 320 322 319 322 319 317 317 319 318 316 314 313 313 313 313 315 316 318 317 317 316 316 323 332 332 332 333 332 332 333 332 332 330 330 329 329 330 329 328 321 316 313 313 313 313 314
319 319 322 323 323 321 318 318 316 314 311 314 315 311 311 312 312 312 312 312 315 317 318 318 316 317 322 332 333 332 333 332 333 331 331 329 328 327 324 322 321 317 313 312 311 311 311 310 310
319 315 320 322 319 319 318 322 315 308 307 308 309 306 307 309 309 309 309 311 313 314 315 315 315 316 319 326 331 331 331 331 330 329 329 330 329 328 322 314 314 312 311 311 310 309 308 308 308
318 314 311 312 310 314 316 313 309 308 307 307 306 305 305 305 305 305 307 309 311 312 314 314 314 315 319 324 325 326 326 327 328 328 327 327 324 324 323 314 312 311 310 309 308 307 306 306 306
316 312 314 312 318 315 312 312 311 310 309 308 308 307 306 305 304 304 303 308 311 312 314 314 314 314 317 318 317 317 317 319 322 323 323 322 322 320 314 313 311 310 311 309 307 305 305 305 305
314 314 311 310 310 313 313 311 307 306 308 308 307 307 307 307 305 304 304 307 310 312 313 314 314 315 315 315 315 315 315 315 317 318 317 316 314 313 311 309 308 309 306 305 305 305 304 303 304
314 314 309 309 312 304 306 310 304 304 307 307 308 308 308 307 306 305 305 307 308 310 311 313 313 313 314 314 315 315 314 313 313 313 313 313 312 309 308 307 307 303 305 304 303 303 302 302 303

GFSSGP_925_thetae_093.txt.gz
Theta_e
327 327 327 327 332 329 332 331 326 335 337 333 331 341 341 342 335 336 342 343 345 346 347 345 343 343 340 339 339 342 344 343 341 342 343 344 345 344 341 340 338 336 337 338 339 338 338 337 333
325 326 325 325 331 331 330 325 326 332 333 332 332 334 343 347 344 345 345 343 345 346 346 345 342 342 337 338 337 339 344 343 342 343 344 344 344 342 340 338 337 338 338 338 338 338 337 336 335
323 325 327 330 330 328 327 321 323 327 333 333 334 333 340 346 344 344 345 344 345 345 345 344 342 342 339 335 338 337 343 342 342 342 342 343 342 341 338 337 338 338 337 337 338 336 333 333 331
323 324 325 328 329 327 323 320 319 328 332 331 333 335 337 340 343 344 343 344 344 344 344 341 342 340 338 338 339 336 339 342 341 342 342 341 339 339 337 337 337 337 337 338 336 333 332 335 332
322 322 327 327 326 326 323 321 319 327 333 333 332 335 334 342 343 345 344 344 344 343 342 342 342 339 338 334 335 334 336 340 341 341 340 339 337 337 336 336 336 337 338 337 335 333 332 332 332
322 323 327 327 325 324 323 320 321 322 332 333 332 333 332 334 343 343 344 344 344 343 341 342 340 338 333 329 335 328 334 337 338 339 338 336 336 336 334 336 338 339 337 335 337 334 332 330 330
320 322 322 322 323 323 324 321 320 320 330 335 332 335 336 340 335 343 343 343 342 342 341 341 340 338 333 334 339 334 327 333 333 333 334 335 335 332 334 334 335 337 336 335 335 333 331 329 329
318 318 319 321 322 323 322 321 319 318 323 329 331 337 338 339 336 341 344 342 342 342 341 339 338 337 334 339 336 337 333 327 334 334 334 333 333 333 333 334 335 337 334 333 332 331 330 327 324
316 317 318 319 321 322 321 322 322 320 323 332 332 332 336 337 339 338 341 342 342 342 341 337 333 334 334 332 339 340 337 329 329 333 335 333 333 333 332 331 330 326 326 327 327 326 324 323 322
315 316 315 315 318 320 321 321 322 324 326 334 336 338 335 334 335 330 329 340 340 341 340 335 333 332 329 331 336 341 338 335 331 325 329 330 329 329 327 326 325 324 324 324 323 323 321 321 322
312 313 313 313 315 320 323 321 321 324 327 332 336 340 335 332 330 330 329 327 337 341 338 337 335 335 333 328 329 336 340 337 335 332 323 323 324 324 324 323 323 322 322 322 321 321 321 322 325
311 311 312 315 316 320 322 323 325 324 324 324 335 336 334 332 332 331 330 327 328 336 338 338 336 337 336 334 331 329 336 340 337 336 331 327 324 323 322 322 322 321 321 321 320 321 322 323 327
310 309 312 314 315 318 321 321 322 324 322 320 333 335 333 332 331 331 330 327 327 333 334 338 338 338 334 332 331 330 331 337 338 336 334 332 330 327 327 328 327 327 326 326 325 328 329 329 328
311 311 312 314 316 318 321 321 320 323 320 323 334 335 334 331 331 330 328 328 331 334 333 335 336 337 334 333 332 335 330 331 338 339 338 334 331 330 331 333 331 328 327 328 328 329 329 329 329
308 309 314 314 316 318 318 318 317 321 319 325 334 334 332 331 330 329 327 329 334 329 331 330 336 332 327 333 333 332 335 334 330 335 338 337 334 334 335 334 331 329 329 327 326 326 326 328 329
312 313 316 316 317 314 315 319 320 319 321 328 330 335 335 335 331 329 328 332 335 333 329 326 327 327 327 330 334 330 332 335 334 331 332 337 336 334 334 333 332 330 329 328 327 325 325 328 329
314 316 317 319 315 317 314 317 319 318 320 321 321 325 335 337 336 334 333 333 332 329 326 326 327 326 327 328 333 333 332 331 334 335 332 333 335 334 333 332 332 330 328 327 325 324 326 329 332
315 316 316 319 318 316 315 312 310 319 319 320 319 321 328 335 334 333 332 330 329 330 327 326 324 325 330 330 332 328 329 333 332 331 332 333 333 334 333 333 332 330 328 328 327 326 329 331 331
315 316 317 320 318 317 317 313 316 320 319 321 321 321 323 328 327 331 331 331 327 327 329 328 327 327 326 327 331 328 329 331 330 332 332 331 332 332 333 333 332 330 329 330 330 332 331 331 331
316 318 319 318 317 316 316 315 317 320 320 320 321 319 320 320 321 325 332 331 330 327 327 326 326 326 328 329 331 329 328 331 332 329 333 334 334 332 331 332 332 330 330 330 333 332 331 330 330
317 318 318 319 319 316 317 317 320 320 320 321 320 318 316 317 319 321 327 331 332 329 328 328 327 327 328 331 331 329 329 328 328 331 333 333 333 333 332 332 332 330 331 331 332 332 331 331 330
319 317 317 318 320 322 319 322 319 321 321 321 321 319 316 316 315 315 317 322 330 332 330 329 328 328 328 329 330 330 329 331 332 332 331 331 331 332 333 333 332 331 328 327 328 328 329 328 328
319 317 319 319 322 322 321 322 320 318 320 320 322 320 317 314 315 316 315 315 318 323 330 333 329 328 327 328 330 332 331 331 331 330 330 330 331 332 333 332 331 328 327 326 324 325 326 320 317
317 318 318 319 320 322 321 320 318 319 319 318 321 318 319 316 316 315 315 316 316 316 315 316 327 332 333 333 332 332 332 331 330 331 331 331 329 331 331 330 330 328 327 325 325 324 316 312 312
317 319 322 322 319 321 317 319 317 313 309 311 319 315 315 314 313 314 315 314 315 315 315 315 315 316 319 329 332 331 331 332 331 330 331 330 329 329 329 329 329 328 325 324 321 313 311 310 310
318 317 319 320 320 323 318 322 316 308 307 309 308 307 310 311 310 310 310 310 312 312 313 313 314 314 316 320 329 331 331 331 330 330 329 328 329 328 328 328 327 322 316 312 311 310 309 308 308
318 315 311 312 311 320 315 313 308 309 309 308 308 307 307 306 306 307 308 309 310 312 313 314 314 314 315 320 326 328 328 328 328 328 327 327 327 327 327 323 317 313 311 310 309 308 308 307 307
315 312 314 313 316 316 313 312 311 308 309 309 309 308 307 306 306 306 306 308 310 312 313 314 313 314 316 318 318 319 318 320 322 325 326 326 325 324 319 314 312 310 309 308 307 306 306 306 305
314 314 311 311 310 315 315 312 306 307 307 309 309 308 308 307 307 306 306 306 309 311 312 313 313 313 314 314 314 314 315 316 319 321 323 322 321 319 314 310 308 307 308 308 305 305 303 304 304
313 312 308 313 314 306 309 312 304 304 306 308 308 308 308 307 306 305 304 305 306 308 310 311 313 313 313 313 313 314 314 314 315 317 318 319 317 313 311 308 307 308 306 304 304 303 303 304 303

GFSSGP_925_thetae_096.txt.gz
Theta_e
327 327 328 328 329 329 330 328 329 330 334 334 334 336 341 341 339 346 345 343 344 346 348 346 343 342 341 342 343 342 342 340 343 343 343 345 345 344 341 339 338 339 339 339 339 338 337 337 336
326 327 327 330 330 328 327 326 329 328 330 333 334 335 337 343 345 345 345 344 345 345 347 345 342 341 340 342 343 343 341 339 342 343 343 345 345 343 340 338 338 338 338 338 337 336 337 337 336
323 326 328 327 330 330 325 325 326 327 328 334 336 333 335 340 343 344 346 343 345 345 346 345 343 340 339 341 342 344 342 340 342 342 342 344 344 341 339 338 337 337 337 336 336 336 336 332 326
322 325 327 330 324 323 325 323 324 325 327 331 333 334 333 337 340 345 345 345 345 345 345 343 343 338 336 340 340 343 342 341 340 341 342 342 341 339 338 337 337 336 337 336 336 334 336 332 328
321 323 323 323 322 321 322 324 323 323 326 332 332 332 333 337 338 344 345 345 345 345 344 344 342 338 334 337 337 342 342 342 341 342 341 340 339 337 337 336 336 336 337 336 333 334 335 331 329
321 320 321 321 318 319 321 324 323 324 324 326 333 332 334 332 334 338 344 345 344 344 344 344 340 339 338 338 335 338 342 341 341 341 339 337 337 335 336 336 336 336 336 335 335 332 331 330 330
320 320 319 317 316 317 319 322 324 324 324 325 330 333 332 331 329 332 337 344 343 344 342 343 343 340 334 330 328 332 338 341 340 339 337 336 335 333 335 336 336 336 336 336 334 332 330 329 329
317 319 319 317 317 315 316 320 322 324 324 323 330 332 334 333 329 333 330 342 343 343 342 343 341 337 335 340 332 325 329 334 336 335 334 333 333 333 334 335 336 336 335 335 333 332 330 328 327
314 317 317 316 315 315 315 317 320 322 324 323 326 332 333 334 333 333 329 328 342 342 342 342 340 337 335 338 338 331 326 332 332 332 333 333 331 332 333 334 336 335 334 333 332 330 327 323 322
313 313 312 312 313 314 316 317 319 321 324 324 325 333 337 337 334 332 329 329 328 341 341 340 339 336 338 339 340 336 332 332 332 335 331 331 331 331 333 333 332 329 328 328 327 325 323 322 325
310 313 310 311 312 313 316 318 319 322 323 324 325 328 336 336 333 329 328 327 328 339 340 338 335 334 336 339 341 340 335 330 330 333 333 332 332 332 332 332 331 330 326 328 327 326 326 326 327
310 308 309 309 311 313 314 317 319 320 321 322 324 325 336 336 334 329 326 325 328 329 338 337 336 333 332 338 339 340 339 335 332 329 329 330 330 330 330 330 330 329 328 328 327 326 326 326 329
309 308 307 308 309 311 315 317 320 321 322 322 322 324 330 334 329 326 325 325 325 326 336 336 337 336 335 333 335 339 340 338 336 335 331 328 328 328 328 328 328 328 329 328 328 329 329 329 330
308 308 308 308 309 311 314 316 319 320 322 324 324 323 325 332 330 326 326 324 324 327 332 336 337 337 336 334 333 333 338 340 337 336 336 334 332 330 331 331 332 331 330 329 329 331 331 331 331
309 309 310 311 310 313 314 318 319 318 320 322 324 323 327 331 329 329 326 326 326 328 329 332 333 336 335 334 333 334 333 336 339 338 339 336 334 333 332 335 334 332 331 330 330 330 330 330 331
307 311 313 311 311 313 316 318 315 319 320 322 325 325 328 331 331 329 327 328 328 331 329 331 331 333 336 335 333 334 335 334 334 337 340 339 336 334 335 336 335 333 332 331 329 328 327 329 331
309 318 316 316 314 316 317 318 316 314 315 318 325 326 330 331 332 330 331 330 332 331 330 328 328 330 332 336 334 332 334 336 336 334 334 337 338 336 335 335 335 334 332 330 330 328 327 330 332
316 316 315 316 317 317 319 320 316 314 315 317 325 327 331 331 332 331 329 332 332 328 328 325 328 329 332 336 336 334 333 334 335 336 334 333 335 337 336 335 334 334 332 329 328 327 328 332 334
310 316 317 319 318 318 318 318 316 314 316 314 325 328 333 332 332 333 333 333 331 328 328 327 328 329 334 336 336 335 336 336 335 332 332 334 334 334 334 334 334 333 331 330 329 330 332 332 333
313 316 318 319 318 318 318 319 317 316 315 313 324 326 331 330 327 325 331 329 330 329 327 327 327 328 331 330 333 332 334 336 336 334 334 335 333 332 332 333 333 332 332 332 331 333 333 332 333
317 314 318 319 318 317 319 320 317 315 315 315 321 320 325 329 326 325 326 330 328 329 329 328 328 328 327 329 331 333 333 333 335 334 335 335 332 333 333 332 331 331 332 333 332 332 332 332 331
316 315 317 318 320 322 318 324 319 316 323 325 323 321 321 324 325 324 324 331 330 324 328 328 328 327 327 327 331 332 331 332 332 332 331 330 329 332 331 331 332 331 330 330 328 327 327 329 330
318 318 318 318 320 321 321 324 321 320 326 325 325 323 320 319 321 321 322 327 330 328 328 328 328 328 327 327 327 331 330 329 330 327 327 329 330 329 329 330 331 331 328 326 326 325 324 320 317
319 319 319 321 321 323 322 324 322 318 316 321 322 322 322 318 317 317 317 318 319 320 324 331 332 330 329 328 328 328 327 330 330 330 329 329 330 330 328 331 331 329 328 328 326 325 322 322 318
318 320 323 323 325 324 321 324 317 312 312 314 319 320 321 319 316 317 318 317 317 316 315 314 319 329 331 331 332 331 331 329 331 331 330 328 327 329 328 328 327 325 328 327 324 325 323 321 315
317 319 323 321 323 324 321 323 316 313 312 312 317 313 316 318 317 313 314 314 314 314 314 314 315 315 318 326 331 331 331 331 331 331 331 329 326 328 328 328 326 328 328 326 324 321 317 312 311
319 318 313 318 320 322 319 315 317 313 314 312 311 312 312 312 312 313 313 313 315 315 315 315 315 316 318 322 326 328 330 328 329 329 329 328 326 325 328 327 328 328 326 322 318 311 310 309 309
317 314 319 320 322 322 316 318 319 316 315 314 313 312 311 311 311 311 312 312 313 314 314 314 315 316 317 318 320 321 323 324 326 326 326 326 324 324 324 322 321 320 314 312 310 308 308 307 307
317 316 315 315 315 319 319 317 311 312 313 314 313 313 312 312 311 311 311 311 311 312 313 314 314 314 315 315 315 315 315 317 319 321 322 324 323 322 322 317 314 311 310 309 308 307 306 306 306
315 316 313 319 316 313 317 316 310 310 312 313 313 313 312 311 309 309 308 308 309 310 311 312 312 312 313 313 313 313 313 314 316 317 318 320 317 318 317 313 310 308 307 308 307 305 305 304 304

GFSSGP_925_thetae_099.txt.gz
Theta_e
327 328 327 329 332 329 330 328 325 327 328 332 335 337 338 339 341 348 345 344 345 348 348 346 344 342 343 342 343 343 336 344 345 344 345 345 345 344 341 343 344 342 340 343 338 337 336 336 336
326 324 326 328 330 329 326 324 326 326 328 330 336 336 339 341 343 345 346 344 345 348 348 346 343 342 341 341 343 342 339 344 344 343 344 344 345 343 340 340 341 338 339 338 337 338 337 336 326
323 324 326 326 329 331 325 324 324 325 326 328 333 335 337 340 342 343 346 345 345 347 347 346 342 340 341 341 343 342 339 341 343 343 344 344 344 341 339 338 337 338 337 336 335 337 336 327 320
320 322 324 327 323 322 323 323 323 324 326 326 331 335 335 336 338 343 345 345 345 347 347 345 341 339 340 342 343 342 339 339 342 343 343 343 342 340 337 337 337 336 335 335 335 335 329 323 321
319 321 323 320 321 322 321 321 322 323 325 325 327 332 333 334 335 340 345 345 345 346 345 346 342 338 339 341 343 342 339 340 342 341 342 342 339 338 337 337 336 336 336 335 336 336 331 328 327
320 318 321 320 318 318 318 318 320 322 323 323 325 330 331 331 335 340 346 345 345 345 345 345 342 337 339 339 343 342 341 340 340 341 342 340 338 337 336 335 336 336 335 336 336 336 332 329 328
318 319 317 316 316 316 316 317 318 321 322 323 323 327 330 331 335 338 339 344 344 344 344 343 343 340 338 337 341 342 341 341 342 342 340 339 336 335 336 335 336 336 336 336 334 331 330 330 329
315 316 317 317 317 316 315 315 317 320 321 322 323 324 330 331 334 337 331 333 333 337 343 343 343 341 340 339 336 342 341 341 341 338 337 336 334 334 335 335 335 336 336 335 332 331 329 328 328
312 316 318 315 315 315 314 315 315 317 319 321 322 323 326 334 334 332 327 331 330 328 327 342 342 340 335 333 334 337 341 339 337 337 336 333 333 335 335 335 335 335 336 335 333 331 329 325 323
312 314 313 312 312 313 313 314 315 315 317 320 322 323 323 336 334 331 330 328 327 325 324 323 340 336 334 334 333 331 335 336 336 335 333 331 331 333 334 335 335 335 335 334 332 330 325 323 326
310 313 310 310 310 311 312 313 314 316 317 319 320 322 329 336 335 333 331 330 327 325 325 326 338 336 335 337 333 330 329 330 332 333 333 332 331 332 335 334 334 333 330 331 328 325 325 326 327
309 309 309 309 309 309 311 312 314 316 317 318 318 320 326 332 333 333 330 330 329 327 325 327 337 336 336 337 335 331 328 330 332 332 332 332 332 332 332 332 331 330 327 329 328 328 327 327 328
309 308 308 308 308 309 309 311 314 314 316 318 319 322 325 327 333 331 330 331 329 328 329 330 336 334 338 337 337 333 331 329 329 332 332 331 331 330 330 330 330 330 328 328 327 327 327 326 328
310 310 309 309 309 308 308 309 311 313 315 318 322 323 324 325 329 332 330 330 330 331 330 326 335 333 334 335 337 338 335 333 332 329 328 328 328 328 328 329 329 329 330 329 329 329 330 330 330
311 311 310 310 309 309 308 309 310 312 315 318 321 322 324 324 330 329 329 329 328 328 326 327 331 333 334 334 335 337 337 336 334 335 333 332 331 330 331 331 333 332 331 329 330 329 331 330 331
310 310 311 310 309 310 309 312 311 312 315 318 320 322 324 323 328 329 328 328 328 328 326 326 331 331 334 334 333 333 335 339 338 336 336 335 334 333 333 335 335 333 332 330 329 330 329 328 330
311 313 313 313 312 311 311 313 314 314 317 319 320 322 324 324 325 329 329 328 327 329 328 330 330 332 332 335 333 333 333 335 337 338 339 338 336 335 336 337 336 334 333 331 331 329 327 328 331
313 315 315 320 315 313 313 315 316 318 317 318 320 324 322 323 328 329 328 329 329 330 328 330 331 330 331 334 335 334 335 334 334 334 336 338 338 337 336 336 336 335 334 332 331 330 327 330 331
312 313 314 318 314 314 315 316 315 316 316 318 319 324 323 325 328 329 329 330 331 332 330 329 327 328 329 333 334 335 334 335 337 336 334 333 336 337 337 336 335 335 335 333 330 330 330 332 333
314 314 316 318 318 316 317 317 316 316 316 316 316 318 326 328 326 325 328 331 331 331 328 326 325 327 328 330 334 334 335 336 336 335 335 334 334 335 336 335 335 335 334 333 332 331 332 333 333
314 316 317 320 319 318 318 321 320 318 317 316 316 316 326 329 327 324 326 330 330 329 329 328 328 328 330 330 329 332 334 335 336 335 336 336 336 335 334 334 333 333 332 332 333 332 334 333 332
319 315 316 317 322 325 319 325 319 318 320 319 318 319 329 327 324 323 325 329 328 328 328 327 327 328 328 329 328 329 330 332 333 334 334 332 330 332 333 332 331 331 331 331 332 331 330 329 330
318 315 317 316 318 323 322 322 322 317 323 322 323 324 327 326 324 324 323 326 322 324 327 328 327 328 328 328 328 330 329 329 330 330 331 330 330 329 329 329 328 330 331 331 330 327 324 322 321
315 317 317 318 322 328 325 324 324 320 315 325 322 321 322 325 324 324 323 324 326 325 326 325 326 328 329 329 328 328 327 327 328 330 331 329 328 328 329 327 326 330 330 328 328 327 327 326 325
319 317 325 326 326 327 322 325 319 315 313 322 324 321 320 320 320 319 319 319 321 323 326 327 328 330 330 331 330 329 328 326 326 326 328 329 328 327 327 328 325 328 329 327 325 325 326 324 321
320 321 327 323 327 327 324 324 321 316 317 318 316 318 319 318 316 315 315 318 317 316 316 317 315 317 322 328 332 332 333 330 327 327 328 330 330 329 327 327 327 328 326 326 327 327 324 321 319
319 321 315 321 320 321 324 321 318 318 315 315 313 314 314 315 315 315 315 315 315 316 316 316 316 317 317 321 326 330 330 331 331 331 332 332 330 329 326 326 329 328 326 326 326 324 321 318 313
319 316 322 322 324 322 324 323 322 320 317 316 316 313 313 313 314 314 314 315 316 316 316 316 316 318 319 321 324 326 327 328 330 330 330 328 328 327 326 325 326 327 325 325 322 319 314 311 311
319 317 316 316 317 320 322 323 313 316 317 315 315 314 313 313 313 313 312 313 313 314 315 315 315 316 316 317 317 318 318 320 322 325 326 326 323 323 323 323 323 322 320 318 318 314 310 309 309
316 315 315 320 318 319 319 318 313 315 315 315 314 314 312 311 311 310 310 310 310 310 312 313 313 313 314 314 315 315 314 315 318 320 322 321 319 320 321 321 321 317 314 312 310 308 308 307 307

GFSSGP_925_thetae_102.txt.gz
Theta_e
323 327 328 327 333 331 331 330 326 326 325 324 327 334 338 337 347 352 344 344 349 349 346 345 345 343 342 336 337 333 330 343 344 343 345 345 343 342 343 344 341 343 343 339 338 336 337 338 338
325 325 324 327 330 331 327 324 326 324 324 323 328 335 338 340 344 346 345 343 347 349 347 346 344 342 341 339 340 341 332 342 344 343 344 344 345 342 344 344 340 343 339 338 337 336 336 328 328
319 323 326 327 328 331 326 323 322 322 322 323 329 335 336 337 342 346 346 344 348 349 347 346 344 342 341 340 341 342 335 343 343 344 343 344 344 342 343 342 337 340 339 336 337 337 329 319 317
320 320 323 325 324 322 324 323 323 322 321 322 326 336 335 334 340 344 345 345 347 348 346 346 343 340 340 339 342 341 337 342 343 342 343 343 342 341 339 336 338 336 335 334 336 328 322 320 319
318 321 323 322 321 321 320 321 321 321 320 322 323 330 336 334 339 343 345 345 346 347 347 346 343 338 340 339 342 341 337 340 341 341 343 343 341 338 336 336 336 334 335 335 336 328 325 323 321
319 318 321 321 320 317 317 318 318 318 318 320 322 322 328 332 334 338 345 345 345 347 346 345 341 338 339 339 342 341 338 339 341 341 341 342 339 335 336 336 334 335 334 334 335 332 328 327 326
317 319 319 315 315 315 316 315 316 316 316 318 320 321 322 334 333 339 346 346 345 346 345 345 341 339 337 339 342 341 338 339 341 341 342 339 338 336 335 335 335 335 335 335 335 333 330 329 327
313 316 316 316 317 316 314 314 314 314 316 316 318 320 320 331 337 340 344 345 343 343 338 339 336 339 338 338 342 341 339 340 340 341 340 337 336 335 335 334 335 335 334 335 332 330 329 328 327
311 314 315 314 314 313 313 313 314 313 313 314 316 318 325 333 335 335 333 332 337 335 337 329 327 328 339 336 340 341 340 340 341 341 338 336 335 335 334 334 335 335 334 333 332 329 328 326 324
311 312 313 311 311 311 311 311 312 312 313 313 315 317 321 333 335 334 331 329 327 327 329 326 325 325 327 337 337 340 341 341 339 336 335 334 333 333 334 333 334 335 334 334 331 330 327 322 324
310 312 310 310 310 310 310 309 310 311 312 313 313 315 317 329 334 332 331 329 325 327 325 326 325 324 324 324 334 338 339 338 337 336 333 332 333 333 335 334 334 334 334 334 331 328 322 325 326
307 308 309 310 309 309 309 308 308 310 311 313 314 316 319 324 330 332 331 331 328 326 325 324 324 324 325 327 330 332 336 336 335 333 331 331 333 332 334 332 333 333 333 329 326 326 327 327 327
309 309 309 308 308 308 308 308 308 309 311 312 313 315 320 323 326 331 332 330 330 327 325 326 324 325 325 335 331 330 329 331 333 333 332 330 332 334 333 330 331 329 326 330 328 329 327 326 326
309 309 310 311 311 309 308 308 308 308 308 311 313 314 319 323 322 326 331 330 331 329 326 328 328 329 331 335 332 329 329 331 333 331 332 332 332 331 331 330 330 330 328 328 327 327 327 327 328
311 310 311 311 311 311 310 310 308 307 307 308 312 314 318 321 323 324 328 330 331 329 329 328 332 332 331 334 334 333 328 329 331 331 331 330 330 329 329 329 328 328 328 329 329 328 329 330 330
311 312 313 311 310 310 310 311 309 307 307 307 311 315 319 319 322 324 326 322 329 328 327 329 331 330 328 332 332 333 334 332 330 329 328 328 328 328 328 329 330 331 331 329 329 329 330 330 329
311 312 313 312 311 312 312 310 310 308 308 308 309 318 318 319 323 327 328 328 327 327 327 328 327 326 324 324 332 333 333 333 334 334 331 332 332 331 332 334 333 332 332 330 330 329 329 328 328
314 314 314 314 315 315 314 312 311 310 309 310 317 317 318 319 322 327 328 327 328 328 326 327 326 324 323 329 330 332 332 335 334 335 335 335 334 334 332 336 336 334 333 332 331 330 329 327 328
311 313 314 312 314 316 314 312 312 314 314 315 316 318 321 321 322 327 328 324 327 328 327 328 330 326 326 328 332 334 333 333 333 336 337 336 337 335 336 336 335 335 334 333 332 330 330 327 330
314 315 313 313 318 315 315 313 314 315 315 315 315 315 318 321 326 326 328 327 328 329 328 329 330 329 329 330 331 333 335 336 336 334 334 334 336 337 336 335 336 336 335 334 332 330 330 330 332
313 314 313 317 315 317 318 318 317 316 317 316 315 315 315 322 327 324 325 326 327 328 328 328 327 327 329 328 328 330 331 332 335 335 336 334 334 335 335 335 335 334 334 334 333 332 331 332 332
315 315 317 319 318 323 319 322 320 317 316 316 316 315 320 325 324 324 324 327 327 328 328 327 326 327 326 328 329 329 330 330 330 333 334 335 334 334 334 334 334 333 332 332 332 332 332 331 330
315 316 318 319 319 317 322 322 321 315 321 320 318 320 326 324 323 322 324 323 326 328 327 327 326 327 327 327 328 328 327 328 329 330 330 330 330 330 330 332 332 330 330 331 331 331 331 330 329
315 317 318 317 320 325 324 323 321 317 317 319 325 327 326 325 325 323 323 324 325 326 327 327 326 327 326 327 328 328 327 328 327 329 328 329 328 328 328 329 329 328 329 330 330 330 330 328 327
317 319 322 325 327 326 320 322 318 315 315 320 324 324 325 323 321 322 322 322 324 323 324 324 324 326 326 327 327 328 328 327 327 326 329 329 328 327 327 327 328 326 328 330 329 326 327 326 325
319 319 323 327 327 329 320 322 318 317 316 320 320 320 317 316 316 315 318 320 320 323 323 324 324 323 325 327 328 329 329 328 327 327 325 324 325 326 326 327 327 326 327 328 327 325 325 325 325
320 321 316 321 322 325 324 318 316 315 317 315 315 318 317 316 314 315 314 314 315 315 316 316 316 316 316 319 326 331 332 330 328 327 327 326 325 325 328 327 328 327 327 326 326 327 324 325 324
318 317 319 321 328 329 323 319 322 316 319 317 315 315 315 314 314 315 315 315 316 316 315 316 317 318 319 321 323 326 327 329 329 330 329 329 328 328 328 327 327 326 326 327 325 325 325 323 321
318 317 316 315 316 320 323 321 319 318 317 316 315 314 312 312 312 311 312 313 314 314 314 315 315 315 315 316 316 317 317 319 321 325 326 326 326 326 326 325 326 326 326 327 326 324 322 319 315
316 315 314 317 318 317 317 319 316 315 314 314 312 311 311 309 308 307 307 308 309 309 310 311 312 312 313 314 314 314 314 314 316 319 322 323 322 322 322 322 323 323 323 323 323 321 316 314 311

GFSSGP_925_thetae_105.txt.gz
Theta_e
322 325 325 327 329 327 330 332 326 326 324 321 321 321 336 339 343 342 344 347 348 346 342 339 336 333 333 334 332 331 342 344 344 345 345 344 342 342 344 343 345 342 342 339 338 339 338 337 336
323 324 323 322 327 328 327 324 324 322 322 320 319 331 337 345 346 344 343 348 348 346 343 343 341 336 335 335 334 330 337 343 343 344 344 344 343 344 344 342 345 342 339 338 337 337 337 336 331
316 320 321 324 323 327 325 321 320 321 318 318 321 333 335 343 344 344 344 345 348 346 344 344 342 340 336 336 338 335 333 341 342 343 343 343 342 343 344 339 342 339 336 336 336 334 325 323 323
318 317 318 323 324 323 324 321 321 320 319 318 322 335 334 335 342 345 345 348 348 347 346 344 343 343 338 339 338 341 333 341 342 342 342 344 342 343 343 339 341 337 334 336 335 323 317 315 316
316 316 321 321 321 318 317 318 318 318 317 316 316 332 334 340 344 344 345 347 348 347 346 344 343 340 339 339 339 340 334 341 342 343 343 343 341 340 339 337 338 336 332 334 326 322 320 320 322
314 314 319 323 320 317 314 313 314 314 314 313 314 319 330 340 344 343 345 346 348 347 346 344 343 338 339 337 339 341 337 340 341 342 342 342 341 338 335 336 335 334 333 334 330 326 324 322 324
315 315 317 316 314 313 314 312 312 312 311 313 314 315 317 331 339 344 344 345 347 347 345 344 341 337 339 337 340 341 338 338 340 341 341 342 338 335 335 334 334 334 332 334 335 329 327 325 325
310 312 315 315 318 316 312 311 312 311 311 309 312 313 316 329 342 344 344 343 344 345 343 343 342 340 340 339 341 341 338 338 339 339 341 340 335 336 335 334 335 333 332 335 334 330 328 327 325
309 311 313 313 313 312 310 310 310 310 310 310 310 312 325 337 339 341 339 338 338 339 341 340 338 334 336 339 341 341 338 338 339 340 341 338 336 335 334 334 334 333 332 334 330 328 327 326 325
309 309 311 310 309 308 308 308 308 308 308 309 310 311 330 337 336 333 331 330 335 335 336 335 334 328 329 329 332 339 338 338 340 341 338 337 335 335 333 334 334 333 333 332 330 328 326 321 321
309 310 309 310 309 309 310 309 307 307 308 307 309 310 312 321 332 331 330 329 329 330 331 332 332 332 331 329 326 325 336 339 341 340 337 336 335 334 333 333 333 333 333 333 330 328 324 323 326
307 307 308 308 309 308 307 307 307 306 306 306 308 310 312 320 324 328 329 329 329 326 325 325 326 328 326 324 326 325 327 339 340 337 335 335 334 334 333 333 333 334 334 333 329 327 321 325 326
308 308 308 308 309 308 307 307 306 307 306 306 306 308 311 317 320 321 329 329 328 327 326 325 324 323 324 325 324 326 332 336 337 334 333 332 332 333 332 332 333 333 333 332 326 326 326 327 326
308 309 309 308 309 310 311 310 306 306 305 306 307 307 308 316 317 321 324 328 330 329 327 325 325 325 323 324 323 327 332 335 336 335 332 331 333 333 334 332 333 330 330 328 328 328 327 326 325
309 310 310 309 309 310 310 311 310 307 305 306 307 307 308 316 317 319 321 326 329 330 328 326 328 328 326 328 326 331 330 335 334 331 331 330 332 333 332 329 328 328 327 328 328 327 326 328 328
309 309 310 309 310 311 310 310 309 306 305 306 306 306 307 315 315 317 321 327 330 330 329 328 328 331 330 331 333 331 328 329 332 332 332 331 332 333 332 330 330 330 328 327 327 328 328 330 330
308 306 308 311 311 311 312 312 310 308 306 306 306 306 307 316 316 316 320 325 324 328 329 328 331 330 328 329 331 329 329 330 332 331 331 331 330 330 329 329 328 328 328 329 329 329 329 330 329
311 309 311 311 312 312 314 315 314 310 308 308 309 308 313 315 315 316 323 325 325 326 326 327 328 327 329 327 327 329 330 330 330 330 328 328 328 328 328 328 329 331 330 329 329 329 329 328 327
310 311 311 311 312 315 315 315 314 311 312 310 310 311 312 315 318 318 323 326 327 327 327 327 328 325 326 328 328 331 331 330 330 329 328 332 329 330 329 334 333 333 332 331 331 330 330 328 327
311 313 313 312 313 316 315 315 313 311 311 312 311 314 311 316 319 323 325 325 326 327 327 327 327 325 326 325 326 326 327 327 330 331 332 333 333 333 332 335 336 335 334 333 331 331 330 329 327
314 314 312 313 312 314 315 317 314 313 313 310 311 312 313 314 320 322 325 326 327 327 328 328 328 327 325 328 330 326 321 328 329 327 330 333 334 334 333 336 335 335 335 334 333 331 330 330 331
316 313 315 318 318 319 315 317 318 315 315 314 312 311 313 315 321 321 322 323 326 327 326 328 328 325 326 328 328 329 329 328 328 330 329 333 334 335 336 335 335 335 335 334 333 332 331 330 331
315 315 316 316 320 317 318 320 321 316 316 316 313 311 319 323 322 323 322 323 325 326 326 327 327 327 327 327 328 328 327 328 329 329 329 329 330 332 334 332 331 332 332 331 331 331 331 331 330
315 316 317 317 319 322 323 323 320 316 315 316 318 318 323 323 322 322 323 323 324 326 326 327 327 326 326 327 327 327 326 327 328 329 329 329 329 330 330 330 330 330 330 330 330 330 329 329 329
315 318 318 322 324 325 320 321 317 313 316 316 323 324 324 323 322 322 323 323 324 324 324 325 325 325 326 326 327 327 327 327 326 326 327 328 328 328 327 327 327 328 327 326 327 329 330 329 328
316 319 321 322 327 326 320 319 314 312 322 320 320 320 318 317 317 320 321 319 320 322 323 323 324 324 325 324 324 327 326 327 327 327 327 326 327 328 327 326 326 326 326 326 326 328 328 325 325
319 322 318 320 323 323 321 316 314 314 318 319 319 318 316 316 315 315 314 315 316 317 316 318 319 318 319 320 321 326 326 327 327 327 327 327 325 324 324 325 326 326 326 326 325 327 325 324 325
316 316 320 319 322 326 322 320 317 314 318 317 317 316 315 315 316 315 314 314 314 315 315 316 317 317 319 320 323 325 329 329 329 329 328 327 327 326 325 326 325 326 327 327 326 327 326 325 324
317 317 317 315 316 323 321 322 313 317 316 315 313 312 314 313 312 311 310 311 311 312 313 313 314 314 315 315 316 317 318 320 323 326 327 328 327 327 327 327 326 327 326 326 326 326 325 325 324
314 316 313 314 317 314 314 321 316 316 314 313 312 310 308 308 306 306 306 306 306 306 307 308 309 310 312 313 313 313 314 314 316 318 321 323 322 322 322 322 323 323 324 324 324 324 324 324 323

GFSSGP_925_thetae_108.txt.gz
Theta_e
319 324 324 325 328 325 328 330 327 327 324 320 319 320 320 326 338 339 344 347 346 339 340 339 339 337 335 334 339 342 344 343 344 345 347 345 342 340 342 344 344 343 341 340 339 338 335 338 337
320 323 322 319 323 328 322 324 326 323 321 316 317 320 332 340 345 342 346 346 347 341 337 337 335 336 335 334 331 339 343 343 343 344 345 344 341 343 344 344 342 340 339 338 338 337 335 335 334
317 319 320 323 321 325 323 320 320 319 317 318 319 321 332 345 343 342 343 347 347 343 339 337 336 335 335 335 333 332 341 342 342 343 343 342 339 344 343 344 341 339 337 337 336 336 331 330 327
317 316 316 322 324 322 321 320 319 317 317 316 316 319 330 335 344 344 345 348 347 344 343 340 339 336 335 335 334 329 337 341 342 343 342 343 339 343 341 343 339 335 333 335 327 323 323 323 325
316 314 318 321 322 319 317 317 316 316 314 314 314 316 319 339 343 343 346 347 347 345 344 343 342 340 336 336 338 338 332 341 341 341 342 342 340 343 340 341 338 332 332 329 318 316 315 320 328
314 313 318 320 318 317 314 313 313 313 311 311 312 315 318 333 343 345 347 347 347 345 345 344 343 341 337 339 336 339 332 340 340 341 342 342 340 340 339 339 337 334 328 325 321 319 319 324 328
313 314 315 317 316 315 314 311 311 310 310 310 310 311 313 333 338 342 346 346 346 346 345 344 342 339 338 338 338 340 337 340 341 341 341 342 340 338 337 338 335 333 327 326 323 321 321 323 327
309 311 314 315 316 315 313 310 310 309 309 308 310 310 310 313 337 341 340 345 344 345 343 344 341 338 339 339 340 341 340 336 340 341 340 342 340 337 336 335 334 332 332 329 327 326 325 324 325
307 310 312 312 313 313 307 307 307 307 308 306 308 309 314 319 336 337 336 336 339 342 343 342 340 340 340 340 339 340 341 337 339 340 339 341 338 335 335 333 333 333 332 332 329 327 326 325 324
308 308 309 309 309 308 308 308 307 307 306 306 307 308 310 313 316 330 332 331 332 334 338 339 339 338 337 336 337 338 340 338 339 339 339 340 335 335 334 333 334 333 334 334 329 327 326 325 324
308 309 308 309 308 309 310 309 307 306 307 306 306 306 309 314 320 328 329 330 333 334 335 336 336 336 335 332 331 330 327 335 339 338 340 337 336 335 333 333 333 333 332 332 328 327 325 320 322
307 307 308 307 307 308 307 305 306 305 306 305 304 305 309 312 317 319 323 328 327 330 333 335 334 334 333 332 329 329 326 327 335 339 340 337 336 334 333 333 333 333 332 330 329 327 324 323 325
307 307 308 308 308 308 308 308 306 306 305 304 305 305 306 309 315 314 318 326 328 327 329 331 332 334 334 334 334 330 326 327 327 339 338 337 335 334 333 333 333 333 333 331 329 327 323 324 326
306 307 308 308 308 308 308 308 308 308 304 305 306 305 305 306 310 314 317 323 328 328 326 325 325 325 324 325 323 323 327 327 328 334 336 336 335 334 332 333 333 332 333 332 330 325 324 326 326
308 309 308 309 310 309 309 310 310 308 306 305 306 306 306 306 310 315 315 319 322 328 328 326 325 324 324 324 323 323 326 327 329 333 333 334 335 334 333 332 332 332 333 331 328 327 328 327 326
308 307 308 308 309 310 309 309 307 305 306 306 306 306 306 305 308 310 310 317 321 327 328 328 326 327 328 327 324 324 324 329 329 330 332 331 332 332 332 332 332 332 331 330 328 328 327 326 327
305 303 306 309 310 310 309 310 309 307 306 306 305 305 305 305 308 310 312 315 319 327 328 329 327 327 329 329 327 328 326 330 331 332 331 331 331 331 332 333 333 330 328 327 327 327 326 327 329
307 306 308 309 309 309 311 311 311 312 311 308 305 304 307 309 309 310 311 314 319 326 328 329 328 328 330 330 330 330 330 330 331 332 332 330 330 331 331 331 328 329 330 328 328 328 328 328 329
307 309 310 309 309 311 312 313 313 313 311 308 306 307 307 309 311 312 315 317 324 326 326 326 328 329 329 327 327 329 329 328 329 331 330 331 330 331 332 331 330 328 328 328 328 329 328 329 328
309 311 311 311 311 312 313 314 313 312 310 309 309 307 308 309 311 314 318 322 325 325 325 326 328 327 328 327 328 327 329 328 329 329 329 329 331 330 328 328 328 328 330 330 328 329 329 329 327
313 312 312 311 311 314 313 315 313 312 311 309 309 310 310 310 311 315 320 323 326 326 327 326 326 327 327 327 327 328 329 329 328 329 328 328 328 328 328 328 330 332 332 331 331 330 330 329 328
315 312 313 316 318 318 314 318 316 314 313 313 311 309 310 311 313 319 321 322 325 326 326 326 326 327 326 325 326 327 323 325 325 329 328 329 329 330 330 330 332 335 335 333 333 331 331 329 330
315 313 314 314 316 316 317 318 314 314 315 313 312 310 309 311 318 321 321 322 323 324 326 325 326 327 327 325 327 325 323 327 324 325 324 326 329 330 332 332 334 335 335 334 333 331 330 329 329
314 315 315 315 318 319 320 320 319 317 315 313 312 312 312 319 321 321 322 322 323 325 326 325 326 325 325 326 327 327 327 326 327 326 327 326 327 328 329 331 331 330 330 330 329 328 329 328 328
315 317 315 316 319 320 321 321 318 314 313 313 317 321 321 323 322 323 322 321 325 326 326 326 326 325 326 327 327 326 327 327 327 327 326 326 325 327 327 328 329 328 328 328 326 327 328 327 328
315 317 318 322 324 322 318 319 317 311 321 321 319 318 319 318 318 317 318 318 318 317 319 320 322 323 323 324 325 325 326 326 327 326 326 326 326 326 327 327 326 326 327 327 326 325 326 327 327
318 321 317 319 320 322 321 316 311 311 318 319 318 317 317 317 316 316 315 315 316 315 316 317 320 321 322 321 321 326 325 325 324 325 325 326 326 325 326 326 325 326 326 326 326 326 326 325 327
315 316 322 319 323 323 319 320 315 312 317 316 317 316 316 315 314 313 313 313 314 314 315 315 317 318 319 321 323 325 325 325 324 324 325 326 327 327 326 325 325 325 325 325 326 326 326 325 326
318 319 318 317 316 322 320 321 311 313 314 313 315 314 312 312 310 309 308 308 308 310 311 311 313 314 314 314 315 316 317 319 322 324 326 327 327 325 325 325 325 325 326 325 325 325 325 325 326
314 316 315 315 318 314 316 319 313 314 312 311 310 310 309 308 308 306 305 305 305 305 306 307 308 310 311 312 313 313 313 314 315 316 318 321 321 321 321 321 322 323 324 325 325 325 325 324 324

GFSSGP_925_thetae_111.txt.gz
Theta_e
321 324 325 322 324 323 325 326 327 326 324 317 317 320 320 320 322 333 343 346 346 344 344 344 344 343 345 345 344 343 341 344 344 346 345 345 339 340 344 344 342 341 343 342 339 336 337 338 337
321 322 322 317 321 321 314 322 326 324 320 314 316 317 321 330 343 342 345 346 346 343 342 343 341 338 340 344 343 343 342 342 343 344 346 344 342 342 344 344 343 340 341 338 336 337 338 336 333
319 320 318 322 319 322 317 319 320 317 315 316 317 316 323 338 342 341 344 346 345 342 341 340 339 337 334 334 340 342 342 342 343 343 344 343 342 343 344 343 340 339 337 336 334 337 336 329 329
317 316 314 320 324 320 318 318 318 317 315 313 313 315 316 336 341 342 343 346 345 341 342 339 336 333 332 331 330 338 342 341 342 342 342 342 339 343 344 342 340 337 335 337 336 334 331 326 330
316 312 315 320 320 319 317 317 314 315 313 313 311 314 314 327 341 342 345 346 345 342 339 339 337 335 333 332 331 330 338 342 341 342 342 341 339 341 343 340 337 334 332 332 327 327 327 325 329
313 312 314 315 316 316 315 313 312 312 310 309 310 310 311 316 328 341 342 344 344 344 342 340 338 336 335 334 335 333 330 340 341 341 341 342 339 340 342 341 335 327 330 323 318 317 319 328 329
313 312 313 315 315 315 314 312 310 309 308 310 308 310 309 311 329 336 338 339 341 343 344 344 342 341 337 337 337 339 332 339 339 340 341 341 339 340 340 339 335 329 323 321 318 317 323 328 328
308 311 314 313 313 313 312 308 309 309 308 306 307 309 310 310 325 335 338 338 337 339 342 343 343 340 338 338 338 339 339 337 339 340 340 341 340 340 339 338 335 332 323 320 320 320 321 326 328
306 309 310 312 314 313 306 307 306 306 307 305 307 307 310 308 310 323 332 337 337 337 340 341 341 340 339 339 338 339 341 337 339 340 340 340 340 339 337 336 335 332 324 322 323 323 323 324 326
306 307 308 309 308 308 307 308 307 307 306 306 306 306 307 307 308 321 328 331 331 336 336 340 340 338 338 338 338 337 340 339 338 339 340 340 340 338 337 335 334 332 329 327 326 325 324 324 324
307 308 307 308 308 308 308 307 307 306 307 305 305 305 305 308 308 312 318 328 330 331 334 334 338 338 338 337 335 336 337 338 338 340 339 339 340 335 337 333 332 333 331 332 329 327 325 324 324
306 306 307 308 306 307 306 305 305 304 305 304 304 304 304 307 307 309 312 314 324 330 330 332 334 335 337 335 334 334 333 329 335 339 339 339 338 335 334 333 333 332 333 334 329 327 325 321 320
307 306 307 307 307 307 307 307 307 307 305 305 305 304 304 306 307 308 308 310 324 328 331 332 332 333 332 332 333 331 330 328 327 331 337 339 336 335 334 332 333 333 332 332 328 327 325 321 324
305 306 307 307 308 307 308 307 306 306 305 305 305 305 303 304 305 307 308 310 317 326 328 331 332 332 331 330 329 330 330 328 326 328 332 337 336 335 334 333 334 333 332 331 329 327 326 322 324
307 307 307 307 308 309 308 309 308 306 305 306 307 306 306 304 305 306 308 310 313 319 326 327 327 329 331 332 332 330 331 324 325 329 329 336 336 335 334 333 333 333 332 332 331 330 327 323 325
307 306 306 306 309 309 308 309 307 305 305 305 306 307 306 304 305 306 307 308 309 314 319 326 327 326 325 325 324 323 324 323 326 329 331 335 336 335 334 332 333 333 333 332 332 331 327 327 327
304 302 305 307 308 309 309 309 308 306 305 306 306 305 305 305 304 305 306 307 307 309 321 325 327 326 325 324 325 327 327 324 324 329 332 333 334 333 333 332 332 333 332 332 332 331 328 327 326
306 305 306 308 307 308 308 309 308 308 309 308 307 304 304 304 305 306 307 307 307 312 318 326 327 327 326 327 327 329 327 326 326 329 331 332 333 333 333 332 332 332 332 332 331 330 329 328 326
306 309 308 308 308 309 309 309 309 310 310 309 308 304 303 305 306 308 308 308 310 312 315 324 327 328 327 328 330 329 330 329 328 330 330 330 330 330 332 331 330 331 332 331 328 327 326 326 328
309 310 310 309 309 310 311 312 311 311 310 309 308 305 305 306 307 308 309 311 313 317 318 325 327 327 327 327 329 329 328 329 328 330 331 330 328 330 326 321 324 330 329 328 328 328 327 328 328
310 312 312 312 311 312 313 312 312 312 311 310 307 306 307 308 309 308 309 313 316 320 323 326 325 326 327 328 327 327 328 329 329 328 329 329 330 330 325 326 327 330 328 329 328 328 328 328 328
313 310 312 313 316 315 312 315 312 312 312 311 309 307 307 307 309 310 313 317 320 322 323 324 325 327 327 328 327 327 327 328 328 329 328 328 329 330 329 330 330 329 329 328 328 329 328 329 329
313 313 314 314 316 314 315 317 312 311 313 312 310 307 309 308 309 311 315 318 321 323 324 325 326 326 327 326 327 327 327 327 327 328 329 328 328 328 329 329 328 328 328 330 331 331 330 330 329
313 314 315 315 317 318 315 318 307 315 316 314 310 310 312 310 315 318 319 321 322 323 323 325 326 326 326 326 326 325 325 325 326 327 327 326 326 327 328 328 329 328 330 331 331 331 331 330 329
314 318 312 312 315 317 320 321 314 314 311 316 313 315 319 319 319 321 320 320 322 322 323 325 325 326 325 326 327 327 326 325 325 325 326 325 325 326 326 326 328 327 327 328 327 328 328 327 326
315 316 319 319 315 318 319 320 318 311 318 319 318 318 318 318 317 317 317 318 318 319 324 324 325 324 324 325 326 326 326 326 326 325 326 325 324 323 323 325 326 327 327 327 327 327 327 326 327
317 320 317 319 318 321 319 317 312 310 316 318 318 317 317 316 314 315 315 315 315 316 316 318 318 319 322 325 324 323 324 325 326 325 325 325 324 324 324 324 325 325 326 326 324 326 326 325 325
315 315 320 318 322 324 321 319 314 311 311 316 316 316 313 312 310 310 310 310 310 311 312 313 314 317 319 322 324 324 325 325 324 325 325 325 325 326 326 325 326 325 324 325 326 325 326 325 325
318 319 319 319 316 320 321 320 310 310 310 314 313 313 311 309 307 307 306 305 306 307 308 310 312 313 313 314 314 316 317 320 322 324 325 326 325 325 325 325 326 325 326 325 325 325 325 325 324
315 317 315 316 318 312 316 318 310 311 310 311 310 310 307 306 306 305 305 305 305 305 305 306 309 310 311 311 312 312 312 313 313 313 314 315 317 318 320 320 320 321 322 322 322 323 323 324 324

GFSSGP_925_thetae_114.txt.gz
Theta_e
320 323 325 320 323 319 322 322 325 325 323 317 313 318 319 318 321 325 342 346 345 344 346 344 344 345 345 344 345 344 344 345 344 345 345 343 343 342 343 341 340 342 342 339 337 336 335 337 337
321 322 321 315 318 315 309 319 324 324 321 314 315 316 318 323 331 339 343 346 345 344 346 344 344 344 344 344 344 342 344 344 343 345 344 343 342 343 344 342 342 343 342 339 335 336 336 336 333
319 320 317 317 316 315 310 316 320 317 314 314 315 314 318 332 340 340 343 345 345 344 345 343 343 343 344 344 343 343 341 342 342 343 344 342 342 343 343 343 341 339 338 336 336 336 335 330 329
318 315 313 318 321 317 314 317 317 315 314 311 311 314 312 319 329 338 341 344 345 344 344 343 341 338 340 342 342 343 342 341 342 342 342 343 341 344 342 342 339 337 336 334 336 335 329 329 329
314 309 314 317 318 317 316 316 314 314 313 312 308 312 310 315 321 331 341 345 345 344 345 343 342 337 334 333 337 340 340 340 341 341 342 342 339 341 343 340 339 336 335 335 336 333 327 329 328
312 309 308 311 313 314 313 314 312 312 309 309 309 309 310 310 314 327 339 342 343 341 342 341 341 338 333 332 331 333 339 341 339 340 340 341 339 339 343 340 338 333 333 335 333 330 325 329 328
311 309 310 311 313 314 313 310 311 310 308 310 307 310 308 308 308 322 337 339 340 342 341 339 340 339 338 336 334 331 334 339 340 340 340 340 339 339 342 340 334 326 326 326 325 324 324 328 329
309 308 313 311 312 311 309 307 306 307 308 304 306 308 309 308 308 318 330 337 338 340 341 340 339 339 338 337 338 340 333 335 340 340 340 340 339 340 341 340 334 323 320 319 317 318 327 328 328
305 308 309 310 312 311 306 307 306 305 306 305 305 306 310 306 307 308 314 330 335 337 338 338 341 341 340 338 336 336 339 332 340 339 340 340 340 340 339 338 335 329 321 318 319 320 326 327 328
305 304 306 307 308 308 307 307 307 307 306 305 305 305 306 307 306 307 311 320 330 333 337 337 337 340 339 337 337 336 338 337 336 340 339 341 340 339 339 337 335 333 323 320 321 320 322 325 327
306 306 306 307 307 307 306 305 306 306 305 304 305 304 303 305 305 306 307 310 317 324 331 336 336 338 338 337 337 337 337 338 337 337 340 339 340 339 338 337 335 333 326 324 324 325 324 323 324
305 306 306 306 306 307 307 305 306 304 304 303 303 303 303 303 304 305 306 307 309 315 326 332 334 336 336 336 336 335 336 337 338 336 338 340 339 339 337 336 334 333 330 327 326 325 325 324 324
306 306 306 306 306 306 306 306 306 306 305 304 304 305 304 303 304 305 306 306 307 313 322 329 331 333 335 335 334 333 332 332 333 334 334 338 339 338 336 335 334 333 332 330 330 327 326 324 321
305 306 306 306 306 307 307 306 306 305 304 304 305 304 303 303 304 305 306 306 307 309 318 327 330 333 332 334 334 333 329 328 328 330 335 334 336 337 335 334 333 332 332 332 333 328 326 324 321
306 306 305 306 307 307 307 307 307 305 304 304 305 305 305 304 304 304 306 306 306 307 313 324 328 332 332 331 332 332 328 329 331 327 327 335 337 336 335 334 333 333 333 332 332 330 327 326 323
305 303 304 305 308 308 307 309 306 304 304 304 305 305 305 305 304 305 306 306 307 307 310 314 325 328 331 332 331 329 329 329 326 325 325 328 335 336 335 334 334 333 333 332 332 330 329 327 326
302 303 304 306 306 308 308 308 307 305 305 306 306 305 305 306 304 304 306 306 306 307 307 309 318 325 326 328 330 330 329 323 324 324 324 328 330 335 335 334 334 333 333 333 332 331 330 329 326
306 305 307 307 306 307 308 308 307 307 306 306 306 306 306 305 305 305 306 306 306 307 306 307 313 323 326 326 325 324 324 325 327 325 324 326 329 332 335 334 333 332 332 332 332 332 331 330 327
307 307 308 308 307 308 308 308 308 308 308 307 307 307 306 306 305 305 305 305 306 307 308 308 314 323 326 327 327 326 326 329 329 326 326 327 329 331 334 333 332 331 332 330 332 332 332 330 328
307 309 307 307 308 308 309 310 310 310 310 308 308 307 306 305 305 305 307 307 307 308 308 310 315 318 325 326 328 326 327 327 329 328 327 329 329 330 332 332 330 329 330 329 329 330 330 328 327
307 308 308 310 309 310 311 309 309 310 310 309 307 305 304 304 305 307 307 308 308 309 309 313 317 319 325 327 327 325 327 328 328 328 328 328 328 331 331 330 326 323 322 323 322 327 329 327 326
309 308 310 312 314 316 312 314 310 310 310 309 308 306 305 306 306 306 308 309 310 310 311 315 319 323 327 327 326 326 327 327 327 328 328 329 330 330 329 329 327 321 320 321 323 327 328 328 327
311 311 312 313 316 315 314 316 311 312 312 313 311 308 307 306 308 308 309 311 314 316 318 319 321 325 324 325 325 326 327 327 327 328 329 328 328 329 329 328 323 323 320 321 327 327 328 327 327
310 312 313 313 317 317 313 317 311 316 313 312 312 311 312 313 311 310 314 317 318 318 320 321 322 324 324 326 326 327 327 326 326 327 328 328 328 328 328 327 328 328 327 325 326 326 327 329 328
312 317 310 308 316 314 319 321 317 314 311 317 318 319 318 317 316 316 318 317 318 319 320 321 322 323 325 325 325 326 326 326 326 326 326 327 326 327 327 327 328 328 327 327 328 327 327 327 327
315 316 317 315 314 317 318 317 317 312 311 317 318 317 315 315 312 315 315 317 317 319 320 322 322 323 323 324 324 326 326 325 325 325 326 326 325 325 326 325 326 326 326 326 326 326 326 326 326
316 320 316 319 316 320 319 317 314 310 310 315 315 314 313 311 310 309 309 312 314 315 319 322 322 322 324 324 324 325 325 325 325 325 326 325 324 323 323 324 324 324 325 325 325 325 325 325 326
314 315 320 318 321 323 321 318 314 310 309 310 313 312 310 309 308 308 307 308 309 310 312 316 315 315 318 322 323 324 324 325 325 325 325 325 325 325 325 325 325 325 324 325 325 325 324 325 325
318 319 319 319 317 320 320 318 309 308 309 309 311 309 308 307 307 307 306 306 306 306 307 309 310 309 310 313 315 316 318 319 322 322 322 322 322 323 323 323 324 324 325 325 325 325 325 325 324
314 316 316 315 319 313 315 318 312 310 311 310 309 308 307 306 305 305 304 304 305 305 305 305 305 306 306 308 308 308 309 309 310 310 310 312 313 315 316 317 317 317 318 319 320 319 319 319 320

GFSSGP_925_thetae_117.txt.gz
Theta_e
320 323 325 319 325 322 322 320 326 325 325 318 315 318 321 320 322 331 340 343 345 344 347 346 344 345 343 343 342 344 344 344 345 345 345 344 342 341 342 340 340 338 339 337 339 339 336 337 336
321 322 321 316 322 317 313 319 325 325 320 316 315 316 319 324 335 342 343 343 345 345 348 347 342 345 344 343 343 344 344 343 343 344 343 343 343 343 342 340 342 343 340 336 336 334 335 336 336
320 320 321 319 318 315 312 315 322 318 314 315 315 313 319 328 327 336 338 341 345 345 347 344 343 345 344 343 343 343 343 343 342 344 342 342 342 343 343 340 343 341 337 334 335 335 335 331 329
319 315 315 322 319 318 313 318 317 316 315 312 311 315 318 312 320 328 334 343 345 345 346 344 343 343 344 344 343 341 342 343 342 342 342 341 340 342 341 342 340 338 337 334 335 334 330 329 328
313 311 316 316 317 317 317 316 314 316 314 313 310 313 312 311 312 324 338 341 345 345 345 344 342 342 343 343 342 342 340 340 341 341 342 342 339 339 341 341 338 336 335 334 335 332 329 328 327
314 308 310 311 313 313 314 315 314 313 311 311 310 311 312 309 309 320 335 342 344 344 342 342 342 340 339 341 342 342 342 340 341 341 341 341 340 339 340 340 338 335 334 334 335 330 329 328 327
312 308 307 308 311 313 312 308 313 312 309 311 307 311 311 310 307 309 329 337 341 343 340 338 340 340 337 335 334 338 340 341 340 340 341 341 340 339 340 339 338 333 333 336 335 329 327 328 328
311 309 312 312 312 310 308 308 306 308 310 306 306 311 312 309 307 308 310 330 336 341 342 340 338 338 337 337 334 333 333 339 340 340 340 340 340 339 339 340 338 330 327 331 329 328 326 328 328
306 309 310 310 312 309 307 309 307 306 307 306 306 306 308 307 307 308 308 309 324 334 338 341 340 338 336 335 335 335 335 330 335 340 339 340 340 339 339 340 338 328 321 323 323 324 326 328 328
307 305 307 307 309 308 307 308 307 308 307 307 307 307 307 307 306 306 307 307 307 312 326 334 338 339 339 339 338 336 335 335 333 340 338 340 340 339 339 340 337 332 321 319 320 321 327 328 327
306 306 306 307 307 307 306 306 305 307 307 306 307 306 305 305 305 306 306 306 306 307 311 325 334 336 338 338 338 336 334 333 333 337 339 339 340 339 339 339 337 335 328 328 326 327 330 327 327
305 306 307 306 306 307 307 306 307 305 306 305 304 304 304 305 305 305 306 306 306 307 308 317 329 334 336 337 337 337 335 335 337 335 337 339 340 340 340 338 337 335 334 326 327 330 325 325 325
305 305 306 306 306 306 306 306 306 306 306 305 304 305 305 306 306 305 305 305 306 306 307 310 325 332 334 336 336 336 335 335 337 337 336 336 338 339 339 338 337 335 334 330 325 326 327 326 325
305 306 306 306 306 306 307 306 305 306 305 305 305 306 305 306 306 305 305 305 306 306 306 308 318 329 332 334 335 333 333 335 336 337 337 337 337 337 336 338 336 335 333 332 328 327 327 327 325
305 306 305 305 307 307 307 308 308 307 304 305 306 306 306 306 305 305 305 306 306 306 306 306 311 325 330 333 334 333 332 330 329 328 331 336 337 337 336 336 336 334 333 332 331 331 331 328 325
305 303 305 304 307 308 307 310 307 305 305 306 306 306 307 307 306 306 306 307 307 307 306 306 311 320 329 332 332 332 331 330 329 329 331 328 328 335 337 335 335 334 333 332 331 333 333 329 327
303 306 307 307 305 307 308 309 307 307 307 307 307 307 307 307 306 305 306 306 307 307 306 306 307 313 323 329 331 331 329 329 328 328 324 323 324 327 335 336 334 333 333 333 332 332 331 330 328
307 307 306 307 306 307 308 308 308 307 307 307 308 307 307 307 308 307 306 307 307 307 306 306 306 307 314 323 328 330 330 330 329 327 324 325 325 326 329 334 334 333 333 333 333 332 329 330 330
306 306 307 306 306 307 308 309 309 309 309 309 309 308 308 308 308 307 306 306 306 306 306 306 306 306 309 322 324 324 325 325 324 324 324 326 327 328 329 331 333 333 332 332 332 331 328 329 330
306 307 307 307 307 308 309 311 310 310 309 309 309 309 308 308 307 307 306 306 306 306 306 306 306 308 309 320 325 325 325 325 325 325 327 328 327 328 328 330 332 333 332 332 331 330 328 328 328
307 307 307 309 308 310 311 312 308 308 310 309 309 308 308 308 308 307 307 308 308 308 307 306 307 308 312 321 325 325 326 326 327 327 328 327 327 327 328 328 329 331 331 330 330 325 327 326 325
309 306 308 310 315 315 312 317 310 311 311 311 312 311 311 309 308 308 309 308 308 309 308 308 308 310 314 320 323 325 325 326 327 327 326 327 328 328 328 327 328 330 330 330 327 324 325 326 325
310 310 311 312 315 316 314 317 312 313 314 312 312 312 312 310 310 310 311 310 310 312 310 309 309 314 317 321 323 325 324 324 325 326 327 327 328 328 327 327 327 329 326 326 326 326 323 320 321
308 311 312 312 313 319 313 315 313 317 314 312 312 317 317 314 312 314 314 312 314 316 316 316 318 318 321 322 325 323 324 324 324 327 328 327 328 328 328 327 329 329 326 321 321 321 321 323 321
311 315 310 310 318 315 314 320 317 313 312 313 318 315 315 312 311 310 315 317 317 317 316 318 320 321 321 323 324 325 326 325 325 326 328 328 327 327 327 328 328 327 326 322 321 322 324 325 325
314 315 313 315 315 315 317 317 316 310 310 310 312 311 311 312 309 309 309 317 317 316 317 319 320 321 322 322 323 323 324 325 325 325 326 326 326 327 327 327 327 326 326 326 325 324 324 325 325
316 318 315 319 316 319 317 316 314 309 309 310 310 310 309 309 308 308 309 311 311 315 316 319 320 322 322 323 323 324 325 325 324 324 325 326 325 326 326 325 326 326 326 326 326 326 325 325 325
315 315 320 318 320 319 319 317 315 310 309 308 310 310 309 308 307 307 307 307 307 309 311 312 314 314 315 319 317 321 322 324 324 324 324 324 323 323 324 324 323 323 323 324 325 325 325 325 324
317 318 317 319 319 320 319 315 311 310 310 310 310 309 308 307 306 306 306 305 306 306 307 306 307 307 308 310 311 315 314 315 319 320 320 319 320 320 321 321 321 322 323 323 324 324 324 324 324
315 316 316 317 320 315 315 318 313 312 311 310 309 308 307 306 305 304 304 304 304 304 304 305 304 304 304 305 307 307 308 308 309 310 311 312 312 312 312 312 312 314 315 315 317 316 316 317 317